Ship Status Report: callsign 000000

sailwx.info

Track history (hours):
 
Tides and Currents Weather Stations Pressure Air Temp Water Temp Dewpoint Dewpoint Depression Visibility Wind Speed Wind Dir Waves Ship Positions

Callsign 000000 (name unknown)

Last reported at 2016-May-05 09:33 UTC. Time now 2016-May-05 10:29 UTC.
Position N 24°25' E 118°04'.

Type: Fishing. MMSI: 200007452.

Date/timePositionNaut miles runAvg speedWind from/ knotsBaromVisibWave heightAir tempDewpointWater temp
2016-May-05 09:33N 24°25' E 118°04'429386327.0
2016-May-05 09:33N 30°58' E 121°18'667171445.7
2016-May-05 09:33N 22°12' E 113°40'697179219.1
2016-May-05 09:33N 31°37' E 121°18'61023.4
2016-May-05 09:33N 31°33' E 121°22'172866.3
2016-May-05 09:32N 31°19' E 121°34'232232.9
2016-May-05 09:32N 31°38' E 121°18'66259560.0
2016-May-05 09:31N 23°03' E 113°30'640767616.6
2016-May-05 09:31N 31°01' E 121°28'41305.3
2016-May-05 09:23N 31°40' E 121°14'58381.8
2016-May-05 09:14N 31°56' E 120°08'8437897.6
2016-May-05 09:14N 31°06' E 121°27'65019822.2
2016-May-05 09:12N 22°55' E 113°30'66649914.9
2016-May-05 09:11N 31°30' E 121°24'1016.1
2016-May-05 08:34N 31°38' E 121°18'46657797.2
2016-May-05 08:33N 24°25' E 118°04'440197887.8
2016-May-05 08:33N 31°06' E 121°27'326813.5
2016-May-05 08:33N 31°37' E 121°18'223840.5
2016-May-05 08:32N 31°19' E 121°34'241615.6
2016-May-05 08:31N 30°59' E 121°19'40699.9
2016-May-05 08:28N 31°39' E 121°13'241239.2
2016-May-05 08:27N 31°16' E 121°03'1011315.0
2016-May-05 08:22N 29°53' E 122°08'61912115.7
2016-May-05 08:19N 23°02' E 113°31'66126453.9
2016-May-05 08:18N 31°40' E 121°14'14109.0
2016-May-05 08:10N 31°30' E 121°24'2033.7
2016-May-05 07:33N 31°17' E 121°05'216861.1
2016-May-05 07:33N 30°57' E 121°12'40145542.2
2016-May-05 07:33N 31°37' E 121°18'465278938.1
2016-May-05 07:33N 24°25' E 118°04'46619954.0
2016-May-05 07:32N 31°38' E 121°18'232431.5
2016-May-05 07:31N 31°19' E 121°34'665104009.3
2016-May-05 07:31N 23°04' E 113°16'6689469.3
2016-May-05 07:27N 31°40' E 121°14'66110168.0
2016-May-05 07:23N 23°03' E 113°31'9463576.6
2016-May-05 07:07N 36°48' E 122°23'7761386.9
2016-May-05 06:33N 24°25' E 118°04'4541634380.4
2016-May-05 06:33N 31°19' E 121°34'2213437.5
2016-May-05 06:33N 31°37' E 121°18'223416.7
2016-May-05 06:33N 31°17' E 121°09'2327019.8
2016-May-05 06:33N 31°38' E 121°18'405764.6
2016-May-05 06:32N 30°58' E 121°18'35837871.0
2016-May-05 06:32N 36°51' E 122°27'3173066.6
2016-May-05 06:26N 31°40' E 121°14'6798786.9
2016-May-05 06:21N 22°54' E 113°12'659148342.6
2016-May-05 06:21N 31°56' E 120°14'661538.9
2016-May-05 06:18N 31°30' E 121°24'3040.6
2016-May-05 05:33N 30°59' E 121°23'51633.4
2016-May-05 05:33N 31°01' E 121°29'3719233.4
2016-May-05 05:33N 31°37' E 121°18'3214535.8
2016-May-05 05:33N 31°59' E 120°49'476428820.9
2016-May-05 05:33N 24°25' E 118°04'46097461.4
2016-May-05 05:33N 31°30' E 121°24'638737.2
2016-May-05 05:32N 31°58' E 120°18'7527024.9
2016-May-05 05:32N 31°19' E 121°34'231079.9
2016-May-05 05:31N 31°38' E 121°18'434.0
2016-May-05 05:24N 31°40' E 121°14'233863.9
2016-May-05 05:23N 31°17' E 121°11'64222658.6
2016-May-05 05:22N 23°04' E 113°30'16342.5
2016-May-05 05:19N 22°53' E 113°17'672884.1
2016-May-05 04:33N 31°19' E 121°34'1916834.9
2016-May-05 04:33N 31°01' E 121°29'43658104.0
2016-May-05 04:33N 24°25' E 118°04'46041419.3
2016-May-05 04:32N 31°30' E 121°24'2428647.7
2016-May-05 04:32N 31°06' E 121°28'334767.7
2016-May-05 04:32N 31°38' E 121°18'66623263.4
2016-May-05 04:30N 22°56' E 113°33'66461334.2
2016-May-05 04:29N 31°40' E 121°12'67296797.6
2016-May-05 04:29N 22°54' E 113°22'67317171.9
2016-May-05 04:26N 31°40' E 121°14'6601930.7
2016-May-05 04:06N 23°04' E 113°30'1018.0
2016-May-05 03:33N 22°54' E 113°28'66954742.6
2016-May-05 03:33N 31°37' E 121°18'4651674009.1
2016-May-05 03:33N 24°25' E 118°04'46369509.0
2016-May-05 03:32N 31°35' E 121°19'3314.3
2016-May-05 03:32N 31°38' E 121°18'46912229.2
2016-May-05 03:29N 24°18' E 118°15'44730924.8
2016-May-05 03:28N 31°11' E 121°28'581654.5
2016-May-05 03:26N 31°58' E 120°49'5465366.5
2016-May-05 03:26N 31°19' E 121°34'131878.9
2016-May-05 03:26N 31°30' E 121°24'6011376.7
2016-May-05 03:26N 32°03' E 120°26'653146973.5
2016-May-05 03:25N 23°04' E 113°30'4319.3
2016-May-05 03:25N 23°01' E 113°32'64510147.3
2016-May-05 03:21N 31°08' E 121°28'3240.2
2016-May-05 02:34N 31°38' E 121°18'466119768.0
2016-May-05 02:33N 24°25' E 118°04'4611660488.8
2016-May-05 02:33N 31°30' E 121°25'1729898.9
2016-May-05 02:33N 31°14' E 121°29'458205983.3
2016-May-05 02:33N 38°52' E 121°32'466186309.7
2016-May-05 02:33N 31°06' E 121°27'64957013.9
2016-May-05 02:32N 22°53' E 113°34'66539260.6
2016-May-05 02:31N 31°30' E 121°24'65926060.6
2016-May-05 02:30N 23°04' E 113°29'65621290.2
2016-May-05 02:28N 31°19' E 121°34'10373.4
2016-May-05 02:26N 31°26' E 121°25'16103.0
2016-May-05 02:17N 31°40' E 121°14'30151.0
2016-May-05 02:05N 31°13' E 121°30'2343.8
2016-May-05 01:33N 31°34' E 121°20'47354.0
2016-May-05 01:33N 31°38' E 121°18'466186212.6
2016-May-05 01:33N 24°25' E 118°04'46464314.5
2016-May-05 01:33N 31°38' E 121°14'341097.0
2016-May-05 01:31N 31°06' E 121°27'143673.5
2016-May-05 01:31N 31°19' E 121°34'5516.1
2016-May-05 01:30N 31°24' E 121°31'65967805.3
2016-May-05 01:29N 23°01' E 113°32'2872774.3
2016-May-05 01:23N 24°25' E 118°31'28564045.9
2016-May-05 01:23N 22°56' E 113°36'65743023.2
2016-May-05 01:22N 31°17' E 121°34'4556963.1
2016-May-05 01:18N 38°52' E 121°32'4425037.4
2016-May-05 01:13N 31°30' E 121°24'460702.0
2016-May-05 00:33N 24°25' E 118°04'460276170.0
2016-May-05 00:33N 31°30' E 121°24'12493.9
2016-May-05 00:32N 31°20' E 121°33'12991.0
2016-May-05 00:31N 31°30' E 121°24'13472.1
2016-May-05 00:30N 31°19' E 121°34'65748301.3
2016-May-05 00:29N 23°01' E 113°32'65732381.0
2016-May-05 00:28N 31°18' E 121°33'24725.8
2016-May-05 00:26N 31°38' E 121°18'66449780.8
2016-May-05 00:25N 22°56' E 113°36'66217781.7
2016-May-05 00:23N 31°38' E 121°14'43313669.7
2016-May-05 00:21N 38°51' E 121°34'103424485.4
2016-May-05 00:18N 23°04' E 113°29'6154056.7
2016-May-05 00:09N 29°58' E 121°57'393665.5
2016-May-04 23:34N 24°25' E 118°04'461184330.9
2016-May-04 23:33N 31°30' E 121°24'51644.2
2016-May-04 23:33N 31°33' E 121°19'141855.7
2016-May-04 23:33N 31°23' E 121°30'2137191.8
2016-May-04 23:33N 31°38' E 121°14'43344518.1
2016-May-04 23:32N 38°51' E 121°33'43345849.7
2016-May-04 23:32N 31°38' E 121°18'212965.4
2016-May-04 23:31N 31°21' E 121°31'904907.7
2016-May-04 23:30N 29°56' E 122°05'973015.7
2016-May-04 23:28N 31°26' E 121°25'13844.4
2016-May-04 23:27N 31°14' E 121°29'16429.5
2016-May-04 23:25N 31°30' E 121°23'6594410.9
2016-May-04 23:16N 23°01' E 113°32'426.4
2016-May-04 23:07N 23°04' E 113°29'6141092.2
2016-May-04 22:33N 29°48' E 122°05'3891399070.8
2016-May-04 22:33N 24°25' E 118°04'461165895.8
2016-May-04 22:33N 31°30' E 121°24'1214614.6
2016-May-04 22:33N 31°38' E 121°14'216223.0
2016-May-04 22:33N 31°24' E 121°32'44615152.8
2016-May-04 22:31N 38°50' E 121°33'43247181.6
2016-May-04 22:31N 31°38' E 121°15'3151.5
2016-May-04 22:30N 31°38' E 121°18'661793466.4
2016-May-04 22:30N 23°04' E 113°29'6569888.6
2016-May-04 22:26N 31°22' E 121°30'6589622.2
2016-May-04 22:21N 23°01' E 113°32'660826.0
2016-May-04 21:34N 31°30' E 121°24'461184326.5
2016-May-04 21:33N 24°25' E 118°04'26337862.5
2016-May-04 21:33N 23°01' E 113°32'64150186.3
2016-May-04 21:32N 31°01' E 121°29'381001.3
2016-May-04 21:30N 31°38' E 121°18'10243.3
2016-May-04 21:28N 31°30' E 121°23'6589476.7
2016-May-04 21:23N 23°04' E 113°29'65798479.1
2016-May-04 21:23N 31°26' E 121°25'423513.7
2016-May-04 20:34N 24°45' E 118°54'342246469.9
2016-May-04 20:33N 29°42' E 122°05'8627986.9
2016-May-04 20:33N 31°00' E 121°27'4351564752.6
2016-May-04 20:33N 24°25' E 118°04'461118495.6
2016-May-04 20:33N 31°30' E 121°24'66057962.4
2016-May-04 20:32N 23°01' E 113°32'66214539.5
2016-May-04 20:30N 31°38' E 121°18'6611190216.4
2016-May-04 20:30N 23°04' E 113°29'65621101.7
2016-May-04 20:28N 31°22' E 121°30'6132.6
2016-May-04 20:25N 31°26' E 121°25'313.1
2016-May-04 20:10N 31°30' E 121°23'420696.7
2016-May-04 19:33N 24°49' E 118°58'394354389.8
2016-May-04 19:33N 31°00' E 121°27'245346.4
2016-May-04 19:33N 31°23' E 121°34'95106.3
2016-May-04 19:33N 31°26' E 121°25'61114.1
2016-May-04 19:33N 31°22' E 121°30'456234345.9
2016-May-04 19:33N 24°25' E 118°04'26821008.2
2016-May-04 19:32N 22°54' E 113°28'73801.9
2016-May-04 19:32N 23°01' E 113°32'6601188270.4
2016-May-04 19:32N 31°30' E 121°24'10501.9
2016-May-04 19:30N 31°38' E 121°18'232066.8
2016-May-04 19:30N 31°19' E 121°34'101455.1
2016-May-04 19:16N 29°42' E 122°05'865985.6
2016-May-04 19:16N 30°58' E 121°18'3142.7
2016-May-04 19:14N 30°59' E 121°21'3146.1
2016-May-04 18:33N 31°30' E 121°24'415498157.9
2016-May-04 18:33N 24°54' E 119°03'3331197380.4
2016-May-04 18:33N 29°45' E 122°03'8173276.9
2016-May-04 18:33N 31°00' E 121°27'43592044.3
2016-May-04 18:33N 24°25' E 118°04'272163337.3
2016-May-04 18:33N 22°15' E 113°43'693156014.4
2016-May-04 18:33N 31°38' E 121°18'66635805.3
2016-May-04 18:32N 22°54' E 113°35'63637550.7
2016-May-04 18:31N 30°58' E 121°18'253501.2
2016-May-04 18:30N 31°19' E 121°34'142218.6
2016-May-04 18:30N 31°06' E 121°27'1689.4
2016-May-04 18:19N 31°22' E 121°30'65811326.0
2016-May-04 18:15N 23°01' E 113°32'6584994.5
2016-May-04 18:07N 31°26' E 121°25'458808.0
2016-May-04 17:34N 24°25' E 118°04'435260792.1
2016-May-04 17:33N 31°00' E 121°27'413427.2
2016-May-04 17:33N 30°59' E 121°23'2511224.3
2016-May-04 17:33N 31°23' E 121°30'1448651.1
2016-May-04 17:33N 31°33' E 121°19'10843346.1
2016-May-04 17:33N 29°53' E 122°09'10474884.7
2016-May-04 17:33N 31°30' E 121°24'3128234.8
2016-May-04 17:33N 30°59' E 121°21'238319.4
2016-May-04 17:33N 31°19' E 121°34'665239270.7
2016-May-04 17:33N 22°54' E 113°28'67013391.4
2016-May-04 17:30N 31°38' E 121°18'66217929.6
2016-May-04 17:27N 23°01' E 113°32'263292.6
2016-May-04 16:33N 24°25' E 118°04'393353638.9
2016-May-04 16:33N 29°57' E 121°59'6922725.0
2016-May-04 16:33N 31°01' E 121°27'3919823.0
2016-May-04 16:33N 31°38' E 121°15'3915443.2
2016-May-04 16:33N 31°00' E 121°27'301779.7
2016-May-04 16:32N 31°30' E 121°24'659395535.4
2016-May-04 16:32N 23°02' E 113°32'65964107.3
2016-May-04 16:31N 31°26' E 121°29'15615.0
2016-May-04 16:30N 31°38' E 121°18'1346808.7
2016-May-04 16:30N 31°26' E 121°25'10636.6
2016-May-04 16:29N 31°22' E 121°35'6756429.8
2016-May-04 16:23N 22°53' E 113°18'15237.3
2016-May-04 16:19N 23°04' E 113°29'65615445.7
2016-May-04 16:16N 31°19' E 121°34'894.3
2016-May-04 16:11N 31°12' E 121°30'1219.4
2016-May-04 15:33N 31°00' E 121°27'435521584.2
2016-May-04 15:33N 24°25' E 118°04'454204435.7
2016-May-04 15:33N 31°19' E 121°34'1510971.9
2016-May-04 15:33N 31°05' E 121°28'25952.0
2016-May-04 15:31N 31°30' E 121°24'958981.6
2016-May-04 15:31N 29°58' E 121°49'61692394.2
2016-May-04 15:30N 22°48' E 113°37'6682405613.7
2016-May-04 15:30N 31°41' E 121°10'71243.8
2016-May-04 15:30N 31°38' E 121°18'114101.4
2016-May-04 15:30N 31°29' E 121°25'14247.1
2016-May-04 15:26N 31°15' E 121°29'6594922.6
2016-May-04 15:18N 22°55' E 113°27'2855059.5
2016-May-04 15:15N 24°31' E 118°21'1724.0
2016-May-04 14:33N 24°25' E 118°04'461414739.1
2016-May-04 14:33N 31°30' E 121°24'3035580.2
2016-May-04 14:33N 31°00' E 121°27'641121412.7
2016-May-04 14:33N 22°56' E 113°36'66417319.5
2016-May-04 14:31N 31°38' E 121°18'8431.7
2016-May-04 14:30N 31°31' E 121°22'15501.0
2016-May-04 14:28N 31°19' E 121°34'65667520.4
2016-May-04 14:27N 23°04' E 113°29'64617629.5
2016-May-04 14:25N 31°10' E 121°28'6473099.3
2016-May-04 14:12N 23°02' E 113°32'639980.0
2016-May-04 13:33N 31°00' E 121°27'143300.9
2016-May-04 13:33N 31°14' E 121°30'269395.4
2016-May-04 13:33N 31°38' E 121°18'277975.8
2016-May-04 13:33N 31°14' E 121°30'216379.6
2016-May-04 13:33N 31°33' E 121°19'46236942.3
2016-May-04 13:32N 24°25' E 118°04'4546758.1
2016-May-04 13:28N 31°19' E 121°34'26396.7
2016-May-04 13:24N 31°39' E 121°13'65935427.1
2016-May-04 13:23N 23°04' E 113°29'65718184.7
2016-May-04 13:21N 31°21' E 121°32'6574582.4
2016-May-04 13:12N 23°02' E 113°32'64311511.9
2016-May-04 13:09N 31°05' E 121°28'1729.0
2016-May-04 12:33N 31°22' E 121°30'221360.8
2016-May-04 12:32N 31°00' E 121°27'43544706.7
2016-May-04 12:32N 24°25' E 118°04'26438029.8
2016-May-04 12:31N 23°04' E 113°29'65338561.8
2016-May-04 12:30N 31°16' E 121°33'161380.8
2016-May-04 12:30N 31°30' E 121°24'102889.0
2016-May-04 12:30N 31°38' E 121°18'244.8
2016-May-04 12:27N 31°37' E 121°16'381.9
2016-May-04 12:25N 31°39' E 121°13'66033922.3
2016-May-04 12:23N 23°02' E 113°32'368441074.4
2016-May-04 12:23N 22°35' E 120°09'53050215.4
2016-May-04 12:23N 31°19' E 121°34'15220.2
2016-May-04 12:19N 31°05' E 121°28'22101.6
2016-May-04 12:05N 31°27' E 121°29'460865.3
2016-May-04 11:34N 24°25' E 118°04'16241600.4
2016-May-04 11:33N 22°37' E 120°16'532159734.9
2016-May-04 11:33N 31°25' E 121°31'172198.5
2016-May-04 11:33N 31°38' E 121°18'381597.9
2016-May-04 11:31N 31°00' E 121°27'302313.4
2016-May-04 11:30N 31°30' E 121°24'664103938.4
2016-May-04 11:30N 22°54' E 113°35'93850.1
2016-May-04 11:30N 23°01' E 113°31'65891062.9
2016-May-04 11:29N 31°20' E 121°32'342.7
2016-May-04 11:25N 31°24' E 121°32'6597408.2
2016-May-04 11:19N 23°04' E 113°30'656854.1
2016-May-04 10:33N 31°22' E 121°30'456234366.6
2016-May-04 10:33N 24°25' E 118°04'45548162.6
2016-May-04 10:32N 31°20' E 121°33'2618362.4
2016-May-04 10:32N 31°39' E 121°13'13655.3
2016-May-04 10:31N 31°30' E 121°24'5248.4
2016-May-04 10:30N 31°27' E 121°28'585.0
2016-May-04 10:26N 31°30' E 121°23'658296131.2
2016-May-04 10:26N 23°04' E 113°29'01407.8
2016-May-04 10:26N 23°04' E 113°30'66191521.4
2016-May-04 10:26N 31°38' E 121°18'66214451.7
2016-May-04 10:23N 23°02' E 113°31'6402874.2
2016-May-04 10:10N 31°57' E 120°04'31211338.1
2016-May-04 10:08N 26°46' E 119°43'167290.3
2016-May-04 09:34N 24°25' E 118°04'461103681.2
2016-May-04 09:33N 31°30' E 121°24'028.5
2016-May-04 09:32N 31°30' E 121°24'674346478.9
2016-May-04 09:32N 22°19' E 114°10'67622942.3
2016-May-04 09:31N 31°39' E 121°13'40709.2
2016-May-04 09:27N 31°00' E 121°27'639229871.8
2016-May-04 09:27N 23°04' E 113°29'66117502.4
2016-May-04 09:25N 31°38' E 121°18'6624827.1
2016-May-04 09:16N 23°01' E 113°31'6495103.4
2016-May-04 09:09N 31°59' E 120°21'81137.0
2016-May-04 08:33N 31°00' E 121°27'30106403.7
2016-May-04 08:33N 31°30' E 121°24'0119.6
2016-May-04 08:33N 31°30' E 121°24'2522383.0
2016-May-04 08:33N 31°05' E 121°28'439112942.5
2016-May-04 08:33N 24°25' E 118°04'4657379.3
2016-May-04 08:29N 31°39' E 121°13'122006.3
2016-May-04 08:29N 31°30' E 121°23'6595789.9
2016-May-04 08:22N 23°01' E 113°31'64638101.1
2016-May-04 08:21N 31°57' E 120°17'5512339.0
2016-May-04 08:21N 31°38' E 121°18'3848.6
2016-May-04 07:33N 31°00' E 121°27'435130394.4
2016-May-04 07:33N 24°25' E 118°04'46557773.8
2016-May-04 07:33N 31°56' E 120°13'656699.0
2016-May-04 07:32N 31°30' E 121°23'1120.4
2016-May-04 07:32N 31°30' E 121°24'0228.2
2016-May-04 07:32N 31°30' E 121°24'71638.1
2016-May-04 07:31N 31°34' E 121°18'201590.7
2016-May-04 07:31N 31°19' E 121°34'549669.3
2016-May-04 07:30N 31°58' E 120°50'66258137.9
2016-May-04 07:30N 23°04' E 113°30'66136608.8
2016-May-04 07:29N 31°38' E 121°18'41012.3
2016-May-04 07:28N 31°39' E 121°13'3441339.2
2016-May-04 07:28N 32°00' E 120°41'65944776.6
2016-May-04 07:27N 23°04' E 113°29'6393490.2
2016-May-04 07:16N 31°01' E 121°27'6176.6
2016-May-04 07:14N 30°59' E 121°20'4159.6
2016-May-04 06:33N 31°39' E 121°13'131772.8
2016-May-04 06:33N 31°30' E 121°24'3110230.0
2016-May-04 06:33N 30°59' E 121°21'3928210.3
2016-May-04 06:33N 31°38' E 121°18'10239.3
2016-May-04 06:30N 31°30' E 121°24'2911691.1
2016-May-04 06:30N 31°00' E 121°26'4824054.3
2016-May-04 06:23N 23°42' E 117°40'51359557.7
2016-May-04 06:22N 31°40' E 121°12'53630.4
2016-May-04 06:17N 31°57' E 120°13'1142772.3
2016-May-04 06:15N 31°25' E 118°04'55987552.8
2016-May-04 06:14N 23°01' E 113°31'65821519.5
2016-May-04 06:13N 31°19' E 121°34'454693.0
2016-May-04 05:33N 24°25' E 118°04'43478149.2
2016-May-04 05:33N 31°00' E 121°26'201820.8
2016-May-04 05:32N 31°19' E 121°34'205104.7
2016-May-04 05:32N 31°00' E 121°26'303327.5
2016-May-04 05:32N 31°30' E 121°24'021.7
2016-May-04 05:30N 31°30' E 121°24'10102.8
2016-May-04 05:25N 31°38' E 121°18'6628485.5
2016-May-04 05:20N 23°01' E 113°31'331.2
2016-May-04 05:15N 23°04' E 113°30'264384.3
2016-May-04 04:33N 24°25' E 118°04'435782277.8
2016-May-04 04:33N 31°00' E 121°26'63825538.8
2016-May-04 04:32N 23°04' E 113°29'641128277.7
2016-May-04 04:32N 31°03' E 121°29'642256976.2
2016-May-04 04:31N 23°01' E 113°31'66037133.1
2016-May-04 04:30N 31°30' E 121°24'312373.3
2016-May-04 04:30N 30°59' E 121°22'222530.0
2016-May-04 04:29N 31°19' E 121°34'231025.7
2016-May-04 04:28N 31°38' E 121°18'10114.3
2016-May-04 04:22N 31°30' E 121°24'460559.2
2016-May-04 03:33N 24°25' E 118°04'46676243.9
2016-May-04 03:33N 31°38' E 121°18'386264.8
2016-May-04 03:32N 31°00' E 121°26'292110.7
2016-May-04 03:31N 31°30' E 121°24'66059381.5
2016-May-04 03:31N 23°02' E 113°31'65714259.0
2016-May-04 03:28N 31°19' E 121°34'6614383.3
2016-May-04 03:19N 22°57' E 113°30'6567028.2
2016-May-04 03:13N 31°15' E 121°30'449676.8
2016-May-04 02:34N 24°25' E 118°04'46662123.9
2016-May-04 02:33N 31°38' E 121°18'101531.2
2016-May-04 02:33N 31°30' E 121°24'667240174.8
2016-May-04 02:33N 22°54' E 113°29'66738738.5
2016-May-04 02:31N 31°35' E 121°18'351051.4
2016-May-04 02:29N 31°00' E 121°26'20479.6
2016-May-04 02:27N 31°19' E 121°34'13507.5
2016-May-04 02:25N 31°30' E 121°24'65911627.3
2016-May-04 02:22N 23°02' E 113°32'2612002.6
2016-May-04 02:14N 24°11' E 118°07'47733027.0
2016-May-04 02:13N 31°38' E 121°16'4694833.1
2016-May-04 02:08N 24°25' E 117°52'48013614.6
2016-May-04 02:05N 31°60' E 120°48'251707.5
2016-May-04 02:05N 31°42' E 121°09'467900.4
2016-May-04 01:33N 24°25' E 118°04'464139184.1
2016-May-04 01:33N 31°36' E 121°17'31024.2
2016-May-04 01:33N 31°35' E 121°19'63842.0
2016-May-04 01:33N 31°30' E 121°24'0221.1
2016-May-04 01:33N 31°30' E 121°24'304855.2
2016-May-04 01:32N 31°00' E 121°26'638287293.7
2016-May-04 01:32N 23°04' E 113°29'26711047.8
2016-May-04 01:31N 24°16' E 118°10'45514892.9
2016-May-04 01:29N 31°15' E 121°31'567.8
2016-May-04 01:25N 31°19' E 121°34'121.6
2016-May-04 01:22N 31°20' E 121°33'24144.0
2016-May-04 01:12N 31°39' E 121°15'30514818.2
2016-May-04 01:11N 26°45' E 119°43'1672300.3
2016-May-04 01:06N 24°25' E 118°01'267485.4
2016-May-04 00:33N 23°02' E 113°24'270161989.5
2016-May-04 00:33N 24°23' E 118°05'32244.5
2016-May-04 00:33N 24°22' E 118°08'58664.6
2016-May-04 00:33N 24°25' E 118°04'461553067.4
2016-May-04 00:33N 31°30' E 121°24'121029.0
2016-May-04 00:33N 31°38' E 121°14'12424.8
2016-May-04 00:31N 31°30' E 121°24'291099.4
2016-May-04 00:29N 31°00' E 121°26'19167.5
2016-May-04 00:22N 31°18' E 121°33'5233.2
2016-May-04 00:21N 31°22' E 121°30'6911807.7
2016-May-04 00:21N 31°59' E 120°22'732770.4
2016-May-04 00:19N 31°19' E 121°34'20402.3
2016-May-04 00:16N 31°35' E 121°19'2027.6
2016-May-03 23:33N 31°19' E 121°34'454272610.4
2016-May-03 23:33N 24°25' E 118°04'461150819.8
2016-May-03 23:33N 31°30' E 121°24'46131916.1
2016-May-03 23:32N 24°24' E 118°06'45810842.8
2016-May-03 23:30N 31°26' E 121°25'6168.0
2016-May-03 23:28N 31°32' E 121°23'131948.2
2016-May-03 23:27N 31°21' E 121°31'1036857.9
2016-May-03 23:27N 31°30' E 121°24'641794.3
2016-May-03 23:25N 31°56' E 120°15'514581.0
2016-May-03 23:24N 31°40' E 121°12'231024.8
2016-May-03 23:23N 31°24' E 121°31'54351.9
2016-May-03 23:14N 32°01' E 120°45'41110137.8
2016-May-03 23:11N 38°50' E 121°33'8841398.3
2016-May-03 22:34N 24°25' E 118°04'884795379.1
2016-May-03 22:33N 38°50' E 121°33'451124819.8
2016-May-03 22:33N 31°19' E 121°34'136761.6
2016-May-03 22:33N 31°30' E 121°24'6818750.6
2016-May-03 22:33N 31°57' E 120°11'757732.4
2016-May-03 22:32N 31°23' E 121°30'456328446.3
2016-May-03 22:32N 24°24' E 118°06'460165424.9
2016-May-03 22:32N 31°27' E 121°28'4846.4
2016-May-03 22:32N 31°30' E 121°24'8726.1
2016-May-03 22:31N 31°24' E 121°31'2321.2
2016-May-03 22:31N 31°22' E 121°30'5755106795.4
2016-May-03 22:27N 37°47' W 122°16'5764209601.9
2016-May-03 22:26N 32°01' E 120°49'4349.2
2016-May-03 21:33N 31°30' E 121°24'1323656.9
2016-May-03 21:33N 31°19' E 121°34'144947.0
2016-May-03 21:33N 31°30' E 121°23'7812.1
2016-May-03 21:33N 31°25' E 121°30'45997096.9
2016-May-03 21:32N 24°25' E 118°04'23422.7
2016-May-03 21:32N 24°24' E 118°06'61961858659.1
2016-May-03 21:32N 37°48' W 122°20'5788315725.7
2016-May-03 21:31N 31°58' E 120°17'6457289.9
2016-May-03 21:31N 31°30' E 121°24'358.2
2016-May-03 21:28N 31°26' E 121°25'65717775.9
2016-May-03 21:25N 23°02' E 113°32'6397008.8
2016-May-03 21:20N 31°00' E 121°26'435559.8
2016-May-03 20:33N 24°25' E 118°04'460184163.9
2016-May-03 20:33N 31°30' E 121°24'46129090.9
2016-May-03 20:32N 24°24' E 118°06'45496246.9
2016-May-03 20:32N 31°19' E 121°34'131433.7
2016-May-03 20:31N 31°30' E 121°24'65976560.3
2016-May-03 20:31N 23°02' E 113°32'65991211.8
2016-May-03 20:30N 31°33' E 121°20'20386.6
2016-May-03 20:27N 31°17' E 121°34'5750154484.7
2016-May-03 20:25N 37°47' W 122°22'5751900180.7
2016-May-03 20:25N 31°30' E 121°23'4181.7
2016-May-03 20:23N 31°26' E 121°25'41168.5
2016-May-03 20:09N 31°56' E 120°52'5186.1
2016-May-03 19:33N 31°19' E 121°34'22311.4
2016-May-03 19:33N 31°17' E 121°34'453543209.8
2016-May-03 19:33N 24°25' E 118°04'461331787.7
2016-May-03 19:33N 31°30' E 121°24'46126768.5
2016-May-03 19:32N 24°24' E 118°06'6194929137.6
2016-May-03 19:32N 37°48' W 122°21'5750899970.4
2016-May-03 19:31N 31°30' E 121°24'102010.8
2016-May-03 19:31N 31°37' E 121°16'37518.7
2016-May-03 19:27N 31°00' E 121°26'6807505.2
2016-May-03 19:21N 22°10' E 113°31'69881037.0
2016-May-03 19:21N 31°19' E 121°34'6872855.1
2016-May-03 19:06N 22°15' E 113°43'489587.5
2016-May-03 19:06N 23°02' E 113°32'497027.2
2016-May-03 19:06N 22°14' E 113°43'2 4.0
2016-May-03 18:33N 22°13' E 113°41'6932496450.2
2016-May-03 18:33N 31°30' E 121°24'460138123.0
2016-May-03 18:33N 24°25' E 118°04'274197629.6
2016-May-03 18:33N 22°13' E 113°41'69480627.4
2016-May-03 18:33N 31°39' E 121°13'13911.8
2016-May-03 18:32N 31°30' E 121°24'301144.8
2016-May-03 18:30N 31°00' E 121°26'639104495.2
2016-May-03 18:30N 23°02' E 113°32'655235916.4
2016-May-03 18:30N 31°17' E 121°34'5753249547.7
2016-May-03 18:28N 37°48' W 122°18'575863002.5
2016-May-03 18:23N 31°41' E 121°10'19783.6
2016-May-03 18:21N 31°26' E 121°25'45748368.6
2016-May-03 18:21N 24°27' E 117°59'460584.5
2016-May-03 17:33N 31°30' E 121°24'697418417.9
2016-May-03 17:33N 22°10' E 113°38'050.2
2016-May-03 17:33N 22°11' E 113°38'35774.9
2016-May-03 17:33N 22°13' E 113°40'672806873.9
2016-May-03 17:33N 31°00' E 121°26'435142232.3
2016-May-03 17:33N 24°25' E 118°04'45410904.5
2016-May-03 17:30N 31°19' E 121°34'2775.2
2016-May-03 17:30N 31°17' E 121°34'574203.1
2016-May-03 17:29N 31°60' E 120°48'45896.6
2016-May-03 17:26N 31°26' E 121°25'24321.2
2016-May-03 17:22N 31°44' E 121°05'46725864.1
2016-May-03 17:21N 24°27' E 117°59'459127166.4
2016-May-03 17:20N 31°30' E 121°23'2937.3
2016-May-03 16:33N 31°00' E 121°26'6781220645.5
2016-May-03 16:33N 22°11' E 113°33'7002519445.4
2016-May-03 16:33N 31°30' E 121°24'6992518173.1
2016-May-03 16:33N 22°11' E 113°33'68387874.1
2016-May-03 16:33N 31°57' E 120°08'717705.1
2016-May-03 16:32N 31°30' E 121°24'3189.9
2016-May-03 16:31N 31°26' E 121°25'12657.0
2016-May-03 16:30N 31°17' E 121°34'741760.4
2016-May-03 16:28N 32°01' E 120°23'193064.4
2016-May-03 16:27N 32°01' E 120°45'5911117.8
2016-May-03 16:27N 31°19' E 121°34'45367999.6
2016-May-03 16:27N 24°27' E 117°59'46716654.4
2016-May-03 16:25N 31°45' E 121°04'36207.8
2016-May-03 16:14N 31°19' E 121°34'0 0.0
2016-May-03 15:33N 31°19' E 121°34'1311752.5
2016-May-03 15:33N 31°30' E 121°24'460331520.1
2016-May-03 15:33N 24°25' E 118°04'454102159.1
2016-May-03 15:33N 31°19' E 121°34'2216.4
2016-May-03 15:33N 31°17' E 121°34'154896.0
2016-May-03 15:32N 31°30' E 121°24'30556.4
2016-May-03 15:29N 31°00' E 121°26'821403.6
2016-May-03 15:26N 31°56' E 120°16'4655436.2
2016-May-03 15:21N 24°27' E 117°59'4574909.0
2016-May-03 15:15N 31°26' E 121°25'3 4.8
2016-May-03 14:33N 31°30' E 121°24'460276283.3
2016-May-03 14:33N 24°25' E 118°04'46136067.6
2016-May-03 14:33N 31°30' E 121°24'51077.6
2016-May-03 14:32N 31°33' E 121°20'18522.6
2016-May-03 14:30N 31°19' E 121°34'261.5
2016-May-03 14:28N 31°17' E 121°34'421.0
2016-May-03 14:18N 31°15' E 121°31'12574.8
2016-May-03 14:17N 31°26' E 121°25'11357.6
2016-May-03 14:15N 31°19' E 121°34'0 0.5
2016-May-03 13:33N 31°19' E 121°34'2372.3
2016-May-03 13:33N 31°17' E 121°34'151965.3
2016-May-03 13:32N 31°30' E 121°24'059.4
2016-May-03 13:32N 31°30' E 121°24'461184345.4
2016-May-03 13:32N 24°25' E 118°04'4591171.5
2016-May-03 13:08N 31°27' E 121°29'3 6.0
2016-May-03 12:33N 31°24' E 121°31'81158.7
2016-May-03 12:33N 31°30' E 121°24'0410.8
2016-May-03 12:33N 31°30' E 121°24'46166365.7
2016-May-03 12:32N 24°25' E 118°04'453101838.4
2016-May-03 12:32N 31°17' E 121°34'3616359.1
2016-May-03 12:32N 31°44' E 121°05'3517920.1
2016-May-03 12:32N 31°19' E 121°34'6577364.0
2016-May-03 12:26N 23°02' E 113°32'6396163.3
2016-May-03 12:20N 31°00' E 121°26'1751189.5
2016-May-03 12:11N 31°25' E 118°04'179283.6
2016-May-03 11:33N 31°19' E 121°34'1311741.3
2016-May-03 11:33N 31°30' E 121°24'2926369.6
2016-May-03 11:33N 31°00' E 121°26'303676.5
2016-May-03 11:33N 31°30' E 121°24'461276519.5
2016-May-03 11:33N 24°25' E 118°04'4548938.4
2016-May-03 11:30N 31°19' E 121°33'4 4.5
2016-May-03 10:34N 31°22' E 121°30'91514.0
2016-May-03 10:33N 31°30' E 121°24'461103688.6
2016-May-03 10:33N 24°25' E 118°04'26310167.6
2016-May-03 10:31N 23°02' E 113°32'659197666.4
2016-May-03 10:31N 31°30' E 121°24'358.5
2016-May-03 10:28N 31°26' E 121°25'321.2
2016-May-03 10:19N 31°30' E 121°25'6533214.4
2016-May-03 10:06N 23°06' E 113°37'6521186.0
2016-May-03 09:33N 31°26' E 121°29'45968810.1
2016-May-03 09:33N 24°25' E 118°04'461414732.4
2016-May-03 09:33N 31°31' E 121°22'3159.4
2016-May-03 09:32N 31°30' E 121°24'497.7
2016-May-03 09:30N 31°26' E 121°25'360.2
2016-May-03 09:27N 31°30' E 121°25'6557811.0
2016-May-03 09:22N 23°05' E 113°34'6592637.3
2016-May-03 09:07N 31°60' E 120°48'211134.7
2016-May-03 09:05N 32°00' E 120°23'233352.8
2016-May-03 09:05N 31°58' E 120°50'2649.7
2016-May-03 08:33N 31°58' E 120°19'6173165.1
2016-May-03 08:33N 31°30' E 121°23'46078913.5
2016-May-03 08:33N 24°25' E 118°04'46197585.8
2016-May-03 08:33N 31°30' E 121°24'433421.2
2016-May-03 08:32N 31°60' E 120°48'684774.9
2016-May-03 08:31N 31°00' E 121°27'63871741.4
2016-May-03 08:31N 23°03' E 113°32'65815095.3
2016-May-03 08:28N 31°35' E 121°17'11281.2
2016-May-03 08:26N 31°26' E 121°25'45721640.1
2016-May-03 08:24N 24°27' E 117°59'2592476.2
2016-May-03 08:18N 23°02' E 113°32'659883.6
2016-May-03 07:33N 31°30' E 121°24'66067901.2
2016-May-03 07:33N 23°05' E 113°26'26647927.8
2016-May-03 07:33N 24°25' E 118°04'47868769.6
2016-May-03 07:32N 32°00' E 120°45'6922734.7
2016-May-03 07:32N 31°00' E 121°27'4118269.5
2016-May-03 07:32N 31°39' E 121°13'6629.7
2016-May-03 07:31N 31°35' E 121°18'6592015.8
2016-May-03 07:12N 23°02' E 113°32'65717910.3
2016-May-03 07:09N 31°26' E 121°25'29512802.0
2016-May-03 07:08N 26°45' E 119°43'271470.5
2016-May-03 06:33N 31°00' E 121°27'435782327.1
2016-May-03 06:33N 24°25' E 118°04'466279349.8
2016-May-03 06:33N 31°39' E 121°13'161778.8
2016-May-03 06:33N 31°26' E 121°25'4914.2
2016-May-03 06:32N 31°30' E 121°24'66595784.8
2016-May-03 06:32N 23°02' E 113°21'1027.7
2016-May-03 06:11N 23°02' E 113°32'263418.2
2016-May-03 05:33N 24°25' E 118°04'461552986.1
2016-May-03 05:33N 31°30' E 121°24'17129297.7
2016-May-03 05:33N 31°25' E 118°04'15620104.1
2016-May-03 05:32N 31°44' E 121°06'4683447.0
2016-May-03 05:32N 31°00' E 121°27'856525.1
2016-May-03 05:32N 31°56' E 120°11'67635.3
2016-May-03 05:25N 31°30' E 121°23'2933.9
2016-May-03 04:34N 31°00' E 121°27'303227.3
2016-May-03 04:33N 31°30' E 121°24'293207.9
2016-May-03 04:32N 31°01' E 121°27'435260962.2
2016-May-03 04:32N 24°25' E 118°04'45410096.7
2016-May-03 04:30N 31°19' E 121°34'13568.8
2016-May-03 04:28N 31°30' E 121°23'3299.5
2016-May-03 04:28N 31°26' E 121°25'301246.7
2016-May-03 04:26N 30°58' E 121°14'3635263.8
2016-May-03 04:22N 36°55' E 122°27'3181227.3
2016-May-03 04:06N 31°57' E 120°13'313565.9
2016-May-03 03:33N 36°48' E 122°28'778215448.9
2016-May-03 03:33N 24°25' E 118°04'454272613.6
2016-May-03 03:33N 31°19' E 121°34'2035786.7
2016-May-03 03:33N 31°00' E 121°27'304632.8
2016-May-03 03:33N 31°30' E 121°24'6417860.7
2016-May-03 03:32N 31°57' E 120°15'8218481.0
2016-May-03 03:32N 30°60' E 121°25'6446.3
2016-May-03 03:31N 30°58' E 121°18'658700.0
2016-May-03 03:31N 31°59' E 120°49'2494.3
2016-May-03 03:15N 31°59' E 120°20'6476621.4
2016-May-03 03:09N 23°02' E 113°32'6361063.0
2016-May-03 02:33N 30°59' E 121°23'310440.1
2016-May-03 02:33N 31°00' E 121°27'435260775.7
2016-May-03 02:33N 24°25' E 118°04'45436348.0
2016-May-03 02:33N 31°19' E 121°34'657394318.5
2016-May-03 02:33N 23°02' E 113°31'660395893.1
2016-May-03 02:32N 31°30' E 121°24'1 5.2
2016-May-03 02:21N 31°30' E 121°23'331862.8
2016-May-03 02:20N 30°57' E 121°17'30512.5
2016-May-03 02:16N 31°26' E 121°25'674857.0
2016-May-03 02:15N 31°56' E 120°13'6694.1
2016-May-03 01:33N 31°30' E 121°24'29105273.6
2016-May-03 01:33N 31°01' E 121°28'384382.5
2016-May-03 01:33N 31°37' E 121°16'234899.0
2016-May-03 01:33N 31°19' E 121°34'454136305.2
2016-May-03 01:32N 24°25' E 118°04'4609906.4
2016-May-03 01:30N 31°28' E 121°25'28821.4
2016-May-03 01:28N 31°00' E 121°27'266246.9
2016-May-03 01:27N 31°26' E 121°25'4 4.0
2016-May-03 00:33N 31°30' E 121°24'30106576.1
2016-May-03 00:33N 31°00' E 121°27'43565193.9
2016-May-03 00:33N 24°25' E 118°04'46340616.4
2016-May-03 00:32N 31°33' E 121°20'9323.6
2016-May-03 00:31N 31°28' E 121°28'981.4
2016-May-03 00:24N 31°19' E 121°34'11141.4
2016-May-03 00:19N 31°28' E 121°25'2 2.5
2016-May-02 23:33N 31°30' E 121°24'461552988.2
2016-May-02 23:33N 24°25' E 118°04'45490870.1
2016-May-02 23:33N 31°19' E 121°34'134028.9
2016-May-02 23:33N 31°30' E 121°23'2952629.6
2016-May-02 23:33N 31°00' E 121°27'64082229.7
2016-May-02 23:32N 23°01' E 113°32'65840130.6
2016-May-02 23:31N 31°26' E 121°25'4229.0
2016-May-02 23:30N 31°31' E 121°25'13172.7
2016-May-02 23:26N 31°19' E 121°33'1148.5
2016-May-02 23:12N 31°28' E 121°25'4625422.4
2016-May-02 23:07N 24°24' E 117°57'4497089.7
2016-May-02 23:03N 31°18' E 121°12'1531.2
2016-May-02 22:33N 31°30' E 121°24'461331784.9
2016-May-02 22:33N 24°25' E 118°04'454109042.8
2016-May-02 22:33N 31°19' E 121°34'134834.6
2016-May-02 22:33N 31°30' E 121°23'2913157.4
2016-May-02 22:33N 31°00' E 121°27'64274506.1
2016-May-02 22:32N 22°58' E 113°32'64586057.0
2016-May-02 22:32N 31°56' E 120°14'1476020.6
2016-May-02 22:30N 29°58' E 121°57'9313901.9
2016-May-02 22:30N 31°28' E 121°28'4643421.8
2016-May-02 22:22N 24°25' E 117°52'4582064.6
2016-May-02 22:08N 31°19' E 121°33'2034.1
2016-May-02 21:33N 31°00' E 121°27'739094.4
2016-May-02 21:33N 29°55' E 122°06'10190881.6
2016-May-02 21:33N 31°30' E 121°24'1728.7
2016-May-02 21:33N 31°30' E 121°23'89361.8
2016-May-02 21:33N 31°25' E 121°31'459150164.9
2016-May-02 21:32N 24°25' E 118°04'45896911.2
2016-May-02 21:32N 31°26' E 121°25'353.1
2016-May-02 21:29N 31°29' E 121°24'66663062.3
2016-May-02 21:28N 22°51' E 113°35'66422324.4
2016-May-02 21:27N 31°19' E 121°34'458518.5
2016-May-02 20:34N 24°25' E 117°52'1119795.2
2016-May-02 20:34N 24°25' E 118°04'4351564654.1
2016-May-02 20:33N 31°00' E 121°27'204770.2
2016-May-02 20:33N 31°19' E 121°34'133387.4
2016-May-02 20:33N 31°30' E 121°24'10742984.6
2016-May-02 20:33N 29°48' E 122°05'10764307.0
2016-May-02 20:33N 31°30' E 121°24'2511289.4
2016-May-02 20:33N 31°20' E 120°57'3013628.0
2016-May-02 20:32N 30°59' E 121°23'64455170.9
2016-May-02 20:32N 22°47' E 113°38'6677848.1
2016-May-02 20:27N 31°30' E 121°23'9285.2
2016-May-02 20:25N 31°24' E 121°31'6121.7
2016-May-02 20:22N 31°26' E 121°25'1012.8
2016-May-02 19:33N 31°19' E 121°34'454136303.5
2016-May-02 19:33N 24°25' E 118°04'4351564634.3
2016-May-02 19:33N 31°00' E 121°27'305072.0
2016-May-02 19:33N 31°30' E 121°24'11411432.7
2016-May-02 19:32N 29°41' E 122°06'641109919.8
2016-May-02 19:32N 22°11' E 113°38'2693855.2
2016-May-02 19:28N 24°25' E 117°52'46434777.7
2016-May-02 19:27N 31°30' E 121°23'101074.2
2016-May-02 19:26N 31°21' E 121°31'220.1
2016-May-02 19:20N 31°23' E 121°31'581363.9
2016-May-02 19:17N 32°00' E 120°38'478660.5
2016-May-02 18:34N 24°25' E 117°52'439789492.4
2016-May-02 18:33N 31°00' E 121°27'43552155.1
2016-May-02 18:33N 24°25' E 118°04'27827819.3
2016-May-02 18:32N 22°11' E 113°38'69734357.5
2016-May-02 18:31N 31°30' E 121°24'133032.9
2016-May-02 18:31N 31°19' E 121°34'13194.2
2016-May-02 18:27N 31°30' E 121°23'1145464.3
2016-May-02 18:26N 29°42' E 122°05'8698.8
2016-May-02 17:33N 31°00' E 121°27'185985.5
2016-May-02 17:33N 31°18' E 121°34'151567.7
2016-May-02 17:33N 31°30' E 121°24'461165876.9
2016-May-02 17:33N 24°25' E 118°04'45421242.4
2016-May-02 17:31N 31°19' E 121°34'694178343.0
2016-May-02 17:31N 22°11' E 113°38'6969636.2
2016-May-02 17:27N 31°30' E 121°23'1144555.2
2016-May-02 17:25N 29°42' E 122°05'15610575.7
2016-May-02 17:24N 32°01' E 120°44'431314.5
2016-May-02 17:22N 31°31' E 121°21'4654040.6
2016-May-02 17:15N 24°25' E 117°52'78318542.7
2016-May-02 17:13N 36°49' E 122°34'7831190.2
2016-May-02 16:33N 24°25' E 117°52'112083.7
2016-May-02 16:33N 24°25' E 118°04'4351564654.1
2016-May-02 16:33N 31°00' E 121°27'303451.1
2016-May-02 16:33N 31°30' E 121°24'11316974.3
2016-May-02 16:32N 29°42' E 122°04'641230595.7
2016-May-02 16:32N 22°11' E 113°38'69423118.5
2016-May-02 16:30N 31°19' E 121°34'10353.7
2016-May-02 16:29N 31°11' E 121°28'59620.3
2016-May-02 16:23N 32°00' E 120°49'421200.6
2016-May-02 16:21N 31°30' E 121°23'791526.5
2016-May-02 16:18N 32°01' E 119°58'946536.2
2016-May-02 16:17N 31°05' E 121°28'241080.7
2016-May-02 16:15N 31°30' E 121°24'3230.8
2016-May-02 16:15N 31°26' E 121°25'1015.2
2016-May-02 15:33N 31°19' E 121°34'454817831.1
2016-May-02 15:33N 24°25' E 118°04'43592038.5
2016-May-02 15:33N 31°00' E 121°27'3010700.7
2016-May-02 15:33N 31°30' E 121°24'2421529.4
2016-May-02 15:33N 31°06' E 121°27'3131.0
2016-May-02 15:32N 31°04' E 121°28'8124400.6
2016-May-02 15:31N 29°49' E 122°06'6234456.3
2016-May-02 15:23N 22°40' E 113°42'2529438.4
2016-May-02 15:21N 24°25' E 117°52'46115236.6
2016-May-02 15:20N 31°26' E 121°25'12681.3
2016-May-02 15:19N 31°18' E 121°34'881335.7
2016-May-02 15:15N 31°59' E 120°02'64689489.2
2016-May-02 15:14N 22°52' E 113°32'624921.2
2016-May-02 14:34N 29°55' E 122°05'39474617.5
2016-May-02 14:33N 24°25' E 118°04'454272613.6
2016-May-02 14:33N 31°19' E 121°34'14688.7
2016-May-02 14:32N 31°30' E 121°24'3015331.7
2016-May-02 14:32N 31°00' E 121°27'261464.4
2016-May-02 14:31N 31°26' E 121°25'66599712.9
2016-May-02 14:30N 22°48' E 113°36'65064985.7
2016-May-02 14:30N 31°04' E 121°28'316.0
2016-May-02 14:20N 31°01' E 121°29'29212.5
2016-May-02 14:12N 31°30' E 121°23'460722.3
2016-May-02 13:34N 24°25' E 118°04'466186240.2
2016-May-02 13:33N 31°57' E 120°09'8613530.1
2016-May-02 13:33N 31°04' E 121°28'266753.3
2016-May-02 13:33N 31°30' E 121°23'298771.6
2016-May-02 13:33N 31°00' E 121°27'2011925.5
2016-May-02 13:32N 31°19' E 121°34'848641.1
2016-May-02 13:32N 29°58' E 121°56'96353.9
2016-May-02 13:16N 31°30' E 121°24'17386.1
2016-May-02 13:13N 31°14' E 121°30'448681.6
2016-May-02 12:34N 24°25' E 118°04'46148793.3
2016-May-02 12:33N 31°30' E 121°24'142445.7
2016-May-02 12:33N 31°19' E 121°34'690130775.4
2016-May-02 12:32N 22°08' E 113°49'67583824.4
2016-May-02 12:32N 31°04' E 121°28'6469979.2
2016-May-02 12:28N 23°03' E 113°25'6602238.3
2016-May-02 12:10N 31°26' E 121°25'26761.8
2016-May-02 12:08N 31°00' E 121°27'29697.1
2016-May-02 12:06N 31°30' E 121°23'460856.4
2016-May-02 11:33N 24°25' E 118°04'435782317.2
2016-May-02 11:33N 31°00' E 121°27'6751214509.4
2016-May-02 11:33N 22°11' E 113°38'696835649.5
2016-May-02 11:33N 31°30' E 121°24'122074.0
2016-May-02 11:33N 31°20' E 121°32'288.6
2016-May-02 11:32N 31°19' E 121°34'204694.7
2016-May-02 11:32N 31°01' E 121°27'29861.1
2016-May-02 11:30N 31°30' E 121°23'390.8
2016-May-02 11:27N 31°26' E 121°25'662270.8
2016-May-02 11:26N 31°57' E 120°17'50134.1
2016-May-02 11:03N 31°40' E 121°12'1428.9
2016-May-02 10:33N 31°30' E 121°24'629667.8
2016-May-02 10:33N 31°60' E 120°20'5820943.3
2016-May-02 10:33N 31°17' E 121°06'28153159.5
2016-May-02 10:33N 26°45' E 119°43'16731656.6
2016-May-02 10:32N 24°25' E 118°04'43562585.4
2016-May-02 10:32N 31°00' E 121°27'395465.6
2016-May-02 10:31N 31°39' E 121°14'25438.0
2016-May-02 10:28N 31°19' E 121°34'66162629.0
2016-May-02 10:27N 22°54' E 113°35'63616601.3
2016-May-02 10:25N 30°58' E 121°18'2466.5
2016-May-02 10:04N 31°18' E 121°34'453899.6
2016-May-02 09:34N 24°25' E 118°04'435223519.2
2016-May-02 09:33N 31°00' E 121°27'439263164.1
2016-May-02 09:33N 24°25' E 117°52'46443996.5
2016-May-02 09:33N 31°30' E 121°24'71779.6
2016-May-02 09:32N 31°35' E 121°18'65926372.2
2016-May-02 09:31N 23°04' E 113°30'65615242.2
2016-May-02 09:28N 31°26' E 121°25'458499.5
2016-May-02 08:33N 24°25' E 118°04'435391163.5
2016-May-02 08:33N 31°00' E 121°27'314075.5
2016-May-02 08:33N 31°31' E 121°22'2913.6
2016-May-02 08:33N 31°30' E 121°24'133236.3
2016-May-02 08:32N 31°19' E 121°34'6565146.8
2016-May-02 08:25N 23°04' E 113°30'6393624.6
2016-May-02 08:14N 31°17' E 121°07'4475359.8
2016-May-02 08:09N 24°25' E 117°52'458768.4
2016-May-02 07:33N 31°19' E 121°34'2017888.2
2016-May-02 07:33N 31°00' E 121°27'435223522.0
2016-May-02 07:33N 24°25' E 118°04'46043620.7
2016-May-02 07:33N 31°30' E 121°25'1655.3
2016-May-02 07:33N 31°30' E 121°24'191160.3
2016-May-02 07:32N 31°17' E 121°07'19102.3
2016-May-02 07:21N 31°30' E 121°23'6583326.2
2016-May-02 07:09N 23°04' E 113°30'6569885.1
2016-May-02 07:05N 31°26' E 121°25'2649.1
2016-May-02 06:33N 31°00' E 121°27'435195581.8
2016-May-02 06:33N 24°25' E 118°04'460331505.1
2016-May-02 06:33N 31°30' E 121°25'11843.9
2016-May-02 06:33N 31°30' E 121°23'1249.9
2016-May-02 06:33N 31°30' E 121°24'1917378.0
2016-May-02 06:33N 31°17' E 121°07'2327037.7
2016-May-02 06:32N 31°19' E 121°34'4585204.4
2016-May-02 06:27N 24°25' E 117°52'2539306.0
2016-May-02 06:26N 23°04' E 113°30'65855109.0
2016-May-02 06:25N 31°24' E 121°31'5 5.8
2016-May-02 05:33N 31°19' E 121°34'178321251.1
2016-May-02 05:33N 31°25' E 118°05'17143879.7
2016-May-02 05:33N 31°26' E 121°25'45865898.8
2016-May-02 05:33N 24°25' E 118°04'46124039.0
2016-May-02 05:32N 31°30' E 121°24'14331.0
2016-May-02 05:29N 31°40' E 121°13'162155.3
2016-May-02 05:29N 31°28' E 121°25'210.9
2016-May-02 05:18N 31°30' E 121°23'1318.2
2016-May-02 04:34N 31°19' E 121°34'133031.9
2016-May-02 04:33N 31°30' E 121°24'461127594.6
2016-May-02 04:33N 24°25' E 118°04'46522932.5
2016-May-02 04:32N 31°38' E 121°16'384744.7
2016-May-02 04:31N 31°01' E 121°26'29380.0
2016-May-02 04:27N 31°30' E 121°23'169.2
2016-May-02 04:26N 31°30' E 121°24'361.7
2016-May-02 04:23N 31°26' E 121°25'26120.9
2016-May-02 04:10N 31°00' E 121°27'2032.6
2016-May-02 03:33N 31°19' E 121°34'454148696.6
2016-May-02 03:33N 24°25' E 118°04'4371572877.7
2016-May-02 03:33N 31°02' E 121°29'2834002.2
2016-May-02 03:33N 31°30' E 121°24'464238860.5
2016-May-02 03:33N 24°25' E 117°52'439789502.2
2016-May-02 03:33N 31°00' E 121°27'291814.4
2016-May-02 03:32N 31°30' E 121°23'61144.3
2016-May-02 03:32N 31°35' E 121°19'1084.5
2016-May-02 03:25N 31°26' E 121°25'35315143.2
2016-May-02 03:24N 25°45' E 119°39'80543907.3
2016-May-02 03:22N 39°05' E 117°46'9856592.5
2016-May-02 03:14N 23°04' E 113°29'64126217.8
2016-May-02 03:12N 31°02' E 121°29'2 3.8
2016-May-02 02:33N 31°00' E 121°27'312605.2
2016-May-02 02:33N 31°31' E 121°23'301320.9
2016-May-02 02:31N 31°02' E 121°29'29827.9
2016-May-02 02:29N 31°30' E 121°24'142574.4
2016-May-02 02:29N 31°19' E 121°34'45815712.3
2016-May-02 02:27N 24°25' E 117°52'2542095.9
2016-May-02 02:20N 23°04' E 113°29'98586483.2
2016-May-02 02:19N 39°04' E 117°48'103513358.6
2016-May-02 02:14N 22°11' E 113°38'6971018.1
2016-May-02 01:33N 31°28' E 121°28'42605.1
2016-May-02 01:33N 31°30' E 121°24'461331788.0
2016-May-02 01:33N 24°25' E 118°04'437393049.9
2016-May-02 01:33N 31°02' E 121°29'183094.0
2016-May-02 01:33N 31°19' E 121°34'65628819.2
2016-May-02 01:31N 23°04' E 113°29'64145232.9
2016-May-02 01:31N 31°02' E 121°29'64810853.6
2016-May-02 01:27N 23°03' E 113°18'66433183.0
2016-May-02 01:26N 31°26' E 121°25'31150.8
2016-May-02 01:13N 30°57' E 121°11'426638.2
2016-May-02 00:33N 24°25' E 118°04'447804558.0
2016-May-02 00:33N 31°13' E 121°30'74423.4
2016-May-02 00:33N 31°19' E 121°34'458206223.4
2016-May-02 00:33N 24°25' E 117°52'44484142.5
2016-May-02 00:33N 31°06' E 121°27'64975315.4
2016-May-02 00:32N 23°02' E 113°23'66474713.1
2016-May-02 00:32N 31°30' E 121°24'3430172.8
2016-May-02 00:32N 30°58' E 121°14'26436494.1
2016-May-02 00:31N 26°46' E 119°43'29210108.7
2016-May-02 00:29N 31°23' E 121°30'226546.8
2016-May-02 00:29N 31°01' E 121°30'64122194.5
2016-May-02 00:27N 23°04' E 113°29'6563319.3
2016-May-02 00:16N 31°26' E 121°25'4927735.3
2016-May-02 00:12N 39°05' E 117°45'471734.9
2016-May-01 23:33N 31°44' E 121°07'2017610.9
2016-May-01 23:33N 31°30' E 121°24'461276483.4
2016-May-01 23:33N 24°25' E 118°04'43738331.1
2016-May-01 23:33N 31°01' E 121°30'641256548.6
2016-May-01 23:32N 23°05' E 113°28'6572364585.6
2016-May-01 23:32N 31°19' E 121°34'17945972.3
2016-May-01 23:32N 31°25' E 118°04'16814081.4
2016-May-01 23:31N 30°58' E 121°18'31815.2
2016-May-01 23:29N 31°30' E 121°23'46413354.8
2016-May-01 23:27N 24°25' E 117°52'44920440.7
2016-May-01 23:26N 31°11' E 121°28'11520.4
2016-May-01 23:24N 31°22' E 121°30'4504937.4
2016-May-01 23:19N 38°52' E 121°32'4422693.8
2016-May-01 23:09N 31°30' E 121°24'1 0.9
2016-May-01 22:34N 31°30' E 121°24'46159247.1
2016-May-01 22:33N 24°25' E 118°04'9538054.0
2016-May-01 22:33N 25°24' E 119°26'387348548.3
2016-May-01 22:33N 31°40' E 121°13'69462457.6
2016-May-01 22:32N 22°14' E 113°42'691355560.4
2016-May-01 22:32N 31°30' E 121°23'141404.7
2016-May-01 22:31N 31°18' E 121°34'1666.5
2016-May-01 22:31N 31°19' E 121°34'171269.4
2016-May-01 22:31N 31°03' E 121°29'46717713.1
2016-May-01 22:29N 38°50' E 121°34'85435748.4
2016-May-01 22:28N 24°46' E 119°01'40950809.7
2016-May-01 22:27N 31°14' E 121°29'452406816.2
2016-May-01 22:27N 24°25' E 117°52'2542744.2
2016-May-01 22:21N 23°04' E 113°29'65650261.3
2016-May-01 22:21N 31°22' E 121°30'1761923.1
2016-May-01 22:15N 31°25' E 118°04'404582.9
2016-May-01 21:34N 24°43' E 118°53'41567872.5
2016-May-01 21:33N 31°15' E 121°29'175157944.9
2016-May-01 21:33N 31°25' E 118°04'179128722.5
2016-May-01 21:33N 31°19' E 121°34'204141.2
2016-May-01 21:33N 31°01' E 121°27'30106786.2
2016-May-01 21:33N 31°30' E 121°24'46157205.8
2016-May-01 21:32N 24°25' E 118°04'45095376.9
2016-May-01 21:32N 31°15' E 121°33'24695.3
2016-May-01 21:30N 31°36' E 121°17'43427931.7
2016-May-01 21:29N 38°50' E 121°33'1033743938.1
2016-May-01 21:29N 23°04' E 113°29'6569642.0
2016-May-01 21:25N 31°22' E 121°30'7181.4
2016-May-01 21:22N 31°28' E 121°25'46320847.3
2016-May-01 21:21N 24°25' E 117°52'2735923.7
2016-May-01 21:18N 22°11' E 113°33'652239928.0
2016-May-01 21:08N 37°47' W 122°16'57549761.5
2016-May-01 20:33N 31°19' E 121°34'172207.9
2016-May-01 20:33N 31°03' E 121°28'276472.4
2016-May-01 20:32N 31°30' E 121°24'4611658868.1
2016-May-01 20:32N 24°25' E 118°04'26459436.1
2016-May-01 20:32N 23°04' E 113°29'659215657.4
2016-May-01 20:32N 31°32' E 121°21'51704.6
2016-May-01 20:32N 31°28' E 121°25'57531294347.8
2016-May-01 20:31N 37°48' W 122°19'575288875.6
2016-May-01 20:28N 31°19' E 121°33'5250.2
2016-May-01 20:26N 31°22' E 121°30'14226.3
2016-May-01 20:23N 31°08' E 121°28'44615287.4
2016-May-01 20:21N 24°25' E 117°52'1061152.4
2016-May-01 20:15N 25°33' E 119°21'366522.7
2016-May-01 19:33N 31°21' E 121°32'455204740.2
2016-May-01 19:33N 24°25' E 118°04'2831020226.8
2016-May-01 19:33N 22°11' E 113°32'700229193.2
2016-May-01 19:33N 31°30' E 121°24'57474137595.6
2016-May-01 19:33N 37°52' W 122°23'5746356627.2
2016-May-01 19:32N 31°19' E 121°34'36513157.9
2016-May-01 19:30N 25°33' E 119°21'3739865.7
2016-May-01 19:28N 31°30' E 121°24'053.4
2016-May-01 19:28N 31°30' E 121°24'26313.6
2016-May-01 19:23N 31°04' E 121°28'64227520.2
2016-May-01 19:22N 23°04' E 113°29'264328.7
2016-May-01 18:33N 24°25' E 118°04'98117489.8
2016-May-01 18:33N 25°33' E 119°21'373671597.6
2016-May-01 18:33N 31°30' E 121°24'659338825.5
2016-May-01 18:33N 23°04' E 113°29'65678771.6
2016-May-01 18:33N 31°19' E 121°34'69389137.5
2016-May-01 18:32N 22°11' E 113°38'69423131.7
2016-May-01 18:30N 31°23' E 121°30'196777.0
2016-May-01 18:30N 31°04' E 121°28'19650.5
2016-May-01 18:28N 31°20' E 121°40'16264.5
2016-May-01 18:25N 31°30' E 121°24'93361.4
2016-May-01 18:09N 29°59' E 121°48'85856.5
2016-May-01 18:03N 31°22' E 121°30'1836.7
2016-May-01 17:33N 31°04' E 121°28'349251633.2
2016-May-01 17:33N 25°33' E 119°21'373223876.2
2016-May-01 17:33N 31°30' E 121°24'461110588.6
2016-May-01 17:33N 24°25' E 118°04'454125820.2
2016-May-01 17:33N 31°19' E 121°34'8311503.4
2016-May-01 17:32N 29°58' E 121°53'908264.0
2016-May-01 17:32N 31°25' E 121°30'172.2
2016-May-01 17:31N 31°24' E 121°31'8295.5
2016-May-01 17:29N 31°30' E 121°24'3363379.0
2016-May-01 17:23N 26°08' E 119°34'33214555.4
2016-May-01 17:22N 31°21' E 121°39'3013712.7
2016-May-01 17:21N 30°58' E 121°16'43238889.8
2016-May-01 17:21N 24°25' E 117°52'4649944.5
2016-May-01 17:18N 31°30' E 121°24'6593698.9
2016-May-01 17:07N 23°04' E 113°29'6561164.1
2016-May-01 16:34N 31°19' E 121°34'454817831.1
2016-May-01 16:33N 24°25' E 118°04'46159245.3
2016-May-01 16:33N 31°30' E 121°24'0574.9
2016-May-01 16:33N 31°30' E 121°24'9927344.3
2016-May-01 16:33N 29°56' E 122°01'7286723.1
2016-May-01 16:33N 30°58' E 121°19'10683.0
2016-May-01 16:32N 31°04' E 121°28'253803.7
2016-May-01 16:31N 31°29' E 121°25'0 2.2
2016-May-01 16:29N 31°29' E 121°25'1 5.2
2016-May-01 16:14N 31°30' E 121°23'1 1.2
2016-May-01 15:33N 31°30' E 121°24'519131.1
2016-May-01 15:33N 31°33' E 121°19'108390057.0
2016-May-01 15:33N 29°54' E 122°09'395473706.6
2016-May-01 15:33N 24°25' E 118°04'46087234.1
2016-May-01 15:33N 31°30' E 121°24'348653.5
2016-May-01 15:33N 30°57' E 121°13'355023.8
2016-May-01 15:32N 31°32' E 121°21'353.4
2016-May-01 15:29N 31°30' E 121°23'26729.1
2016-May-01 15:27N 31°04' E 121°28'4422182.0
2016-May-01 15:15N 24°25' E 117°52'46116947.0
2016-May-01 15:13N 31°20' E 121°40'165864.9
2016-May-01 15:13N 31°30' E 121°24'460700.0
2016-May-01 14:34N 24°25' E 118°04'43091103.9
2016-May-01 14:33N 30°59' E 121°19'3228656.0
2016-May-01 14:33N 31°30' E 121°24'10877927.8
2016-May-01 14:33N 29°48' E 122°05'1143867.9
2016-May-01 14:31N 31°34' E 121°18'201470.8
2016-May-01 14:30N 31°19' E 121°34'13604.3
2016-May-01 14:29N 31°30' E 121°23'26533.2
2016-May-01 14:26N 31°04' E 121°28'371069.6
2016-May-01 14:24N 31°39' E 121°13'1 0.8
2016-May-01 13:34N 31°39' E 121°13'465558510.9
2016-May-01 13:33N 24°25' E 118°04'461414725.0
2016-May-01 13:33N 31°30' E 121°24'308385.6
2016-May-01 13:33N 30°60' E 121°25'301670.0
2016-May-01 13:32N 31°30' E 121°23'1137032.7
2016-May-01 13:31N 29°42' E 122°05'1124529.8
2016-May-01 13:30N 31°29' E 121°25'65817819.2
2016-May-01 13:27N 23°04' E 113°29'65630690.0
2016-May-01 13:26N 31°19' E 121°34'161406.5
2016-May-01 13:25N 31°04' E 121°28'352968.9
2016-May-01 13:25N 31°37' E 121°16'256087.8
2016-May-01 13:25N 31°21' E 121°39'14236.9
2016-May-01 13:21N 31°28' E 121°25'2 2.8
2016-May-01 12:33N 31°30' E 121°24'373671666.6
2016-May-01 12:33N 25°33' E 119°21'28854596.8
2016-May-01 12:33N 29°41' E 122°06'126227308.0
2016-May-01 12:33N 31°39' E 121°13'465558517.7
2016-May-01 12:33N 24°25' E 118°04'4619703.9
2016-May-01 12:30N 31°31' E 121°21'9771.4
2016-May-01 12:29N 31°38' E 121°14'37822.0
2016-May-01 12:27N 31°04' E 121°28'19650.0
2016-May-01 12:25N 31°21' E 121°39'5383.0
2016-May-01 12:24N 31°19' E 121°34'1416.1
2016-May-01 11:33N 31°30' E 121°24'461414715.2
2016-May-01 11:33N 24°25' E 118°04'9835246.9
2016-May-01 11:33N 25°33' E 119°21'29116365.9
2016-May-01 11:32N 29°46' E 122°04'8425145.0
2016-May-01 11:32N 31°04' E 121°28'385417.7
2016-May-01 11:32N 31°39' E 121°13'161.5
2016-May-01 11:31N 31°40' E 121°12'14248.9
2016-May-01 11:27N 31°30' E 121°23'6585778.1
2016-May-01 11:21N 23°04' E 113°29'112812607.3
2016-May-01 11:15N 40°21' E 122°09'54315758.7
2016-May-01 11:13N 31°19' E 121°34'454684.4
2016-May-01 10:33N 24°25' E 118°04'461414696.9
2016-May-01 10:33N 31°30' E 121°24'171450.5
2016-May-01 10:33N 31°41' E 121°10'303004.6
2016-May-01 10:32N 31°19' E 121°34'222226.2
2016-May-01 10:31N 31°36' E 121°17'11431450.0
2016-May-01 10:31N 29°51' E 122°08'803946.8
2016-May-01 10:30N 31°04' E 121°28'381934.9
2016-May-01 10:29N 31°39' E 121°13'13108.4
2016-May-01 10:21N 31°30' E 121°23'282160.5
2016-May-01 10:21N 31°02' E 121°29'135012.7
2016-May-01 10:21N 31°14' E 121°29'144139.3
2016-May-01 10:20N 31°01' E 121°27'4602.3
2016-May-01 10:20N 30°59' E 121°23'34312119.1
2016-May-01 10:18N 25°33' E 119°21'3541437.4
2016-May-01 10:03N 23°04' E 113°29'6181235.6
2016-May-01 09:33N 29°55' E 122°05'7466909.1
2016-May-01 09:33N 31°03' E 121°29'437314965.7
2016-May-01 09:33N 24°25' E 118°04'44293664.9
2016-May-01 09:33N 31°15' E 121°09'2125658.0
2016-May-01 09:33N 31°19' E 121°34'142723.2
2016-May-01 09:33N 31°30' E 121°24'1243589.9
2016-May-01 09:33N 31°39' E 121°14'242272.8
2016-May-01 09:32N 31°16' E 121°04'24416.7
2016-May-01 09:29N 31°04' E 121°28'44214750.0
2016-May-01 09:27N 24°25' E 117°52'4645266.2
2016-May-01 09:21N 31°30' E 121°23'580.5
2016-May-01 09:17N 31°31' E 121°17'9894.6
2016-May-01 09:17N 31°39' E 121°13'382820.0
2016-May-01 09:16N 31°04' E 121°28'2637.2
2016-May-01 08:34N 31°30' E 121°24'9715942.3
2016-May-01 08:33N 29°57' E 121°58'8530518.4
2016-May-01 08:33N 31°19' E 121°34'1220858.9
2016-May-01 08:33N 31°29' E 121°27'461184349.7
2016-May-01 08:33N 24°25' E 118°04'46593085.1
2016-May-01 08:32N 31°39' E 121°13'371160.3
2016-May-01 08:31N 31°05' E 121°28'25488.3
2016-May-01 08:27N 31°30' E 121°23'191620.5
2016-May-01 08:27N 31°17' E 121°06'23884.4
2016-May-01 08:25N 31°04' E 121°28'467.6
2016-May-01 08:22N 31°01' E 121°27'21359.0
2016-May-01 08:19N 31°21' E 121°31'3666496.4
2016-May-01 08:15N 25°33' E 119°21'3542664.3
2016-May-01 08:07N 23°04' E 113°29'541230.2
2016-May-01 08:05N 22°10' E 113°32'6811313.0
2016-May-01 07:33N 31°15' E 121°09'1967192.5
2016-May-01 07:33N 31°30' E 121°23'4601656238.6
2016-May-01 07:33N 24°25' E 118°04'438121427.5
2016-May-01 07:33N 31°04' E 121°28'44274.4
2016-May-01 07:33N 31°01' E 121°27'304627.6
2016-May-01 07:33N 31°30' E 121°24'659592911.1
2016-May-01 07:33N 23°04' E 113°29'985295535.1
2016-May-01 07:33N 39°04' E 117°47'58223288.1
2016-May-01 07:31N 29°58' E 121°50'7019283.4
2016-May-01 07:31N 31°05' E 121°28'355961.6
2016-May-01 07:30N 31°37' E 121°15'11173.1
2016-May-01 07:27N 31°30' E 121°24'814941.6
2016-May-01 07:27N 31°24' E 121°31'69120558.3
2016-May-01 07:25N 22°14' E 113°42'6896260.8
2016-May-01 07:18N 31°19' E 121°34'26130.3
2016-May-01 07:06N 31°39' E 121°13'31743945.3
2016-May-01 07:06N 36°49' E 122°37'349653.8
2016-May-01 06:34N 31°05' E 121°28'439263351.6
2016-May-01 06:33N 24°24' E 118°05'438526181.4
2016-May-01 06:33N 31°04' E 121°28'6742424908.0
2016-May-01 06:33N 22°15' E 113°42'36894586.8
2016-May-01 06:33N 25°33' E 119°21'9825176.4
2016-May-01 06:33N 24°25' E 118°04'454109045.5
2016-May-01 06:33N 31°19' E 121°34'692118560.3
2016-May-01 06:32N 22°12' E 113°40'99878095.0
2016-May-01 06:32N 36°52' E 122°41'328393871.5
2016-May-01 06:31N 31°30' E 121°24'13390.6
2016-May-01 06:30N 31°39' E 121°13'6593662.8
2016-May-01 06:19N 23°04' E 113°29'6584253.1
2016-May-01 06:09N 31°30' E 121°23'4898837.4
2016-May-01 06:06N 39°05' E 117°46'8801615.1
2016-May-01 05:33N 24°25' E 118°04'4611658616.2
2016-May-01 05:33N 31°30' E 121°24'262263.8
2016-May-01 05:33N 31°05' E 121°28'283472.4
2016-May-01 05:32N 31°32' E 121°21'172061.1
2016-May-01 05:32N 31°19' E 121°34'1316115.5
2016-May-01 05:32N 31°30' E 121°23'261944.5
2016-May-01 05:31N 31°04' E 121°28'17666.2
2016-May-01 05:29N 31°21' E 121°27'4589749.0
2016-May-01 05:27N 24°25' E 117°52'2534321.1
2016-May-01 05:23N 22°49' E 113°36'667806.6
2016-May-01 04:33N 31°30' E 121°24'46169109.0
2016-May-01 04:33N 24°25' E 118°04'454125821.7
2016-May-01 04:33N 31°19' E 121°34'65662189.0
2016-May-01 04:32N 23°04' E 113°29'64230836.9
2016-May-01 04:31N 31°05' E 121°28'46738237.5
2016-May-01 04:30N 38°52' E 121°32'44217500.6
2016-May-01 04:29N 31°30' E 121°23'66140358.9
2016-May-01 04:28N 22°55' E 113°36'3169.5
2016-May-01 04:27N 22°53' E 113°34'254130442.5
2016-May-01 04:27N 24°25' E 117°52'44266372.2
2016-May-01 04:26N 31°04' E 121°28'17146.7
2016-May-01 04:19N 31°21' E 121°27'454585.2
2016-May-01 03:32N 24°25' E 118°04'46157194.4
2016-May-01 03:32N 31°30' E 121°24'261546.9
2016-May-01 03:31N 31°05' E 121°28'35021353.9
2016-May-01 03:30N 25°33' E 119°21'36639873.1
2016-May-01 03:29N 31°19' E 121°34'66051621.7
2016-May-01 03:29N 22°55' E 113°36'64522332.6
2016-May-01 03:27N 31°04' E 121°28'261193.4
2016-May-01 03:26N 31°30' E 121°24'9757.1
2016-May-01 03:25N 31°21' E 121°27'657591006.1
2016-May-01 03:25N 22°59' E 113°31'66118016.9
2016-May-01 03:23N 31°30' E 121°23'46412551.1
2016-May-01 03:20N 24°25' E 117°52'2542140.6
2016-May-01 03:13N 23°04' E 113°29'633939.9
2016-May-01 02:33N 30°59' E 121°20'248502.6
2016-May-01 02:33N 31°19' E 121°34'142432.0
2016-May-01 02:32N 31°30' E 121°24'46150262.9
2016-May-01 02:32N 24°25' E 118°04'43915333.2
2016-May-01 02:30N 31°04' E 121°28'194.4
2016-May-01 02:29N 31°05' E 121°28'1759801.5
2016-May-01 02:29N 31°22' E 121°29'656236022.8
2016-May-01 02:29N 23°05' E 113°28'65876430.6
2016-May-01 02:29N 31°30' E 121°23'164.4
2016-May-01 02:28N 31°30' E 121°24'2121.5
2016-May-01 02:27N 31°28' E 121°25'46338783.3
2016-May-01 02:26N 24°25' E 117°52'4701767.2
2016-May-01 02:11N 31°40' E 121°13'69913977.7
2016-May-01 02:08N 22°11' E 113°38'5432492.3
2016-May-01 02:07N 23°04' E 113°29'6341122.3
2016-May-01 01:33N 30°59' E 121°22'431110933.3
2016-May-01 01:33N 24°25' E 118°04'461165882.8
2016-May-01 01:33N 31°30' E 121°24'132557.7
2016-May-01 01:33N 31°19' E 121°34'13743.8
2016-May-01 01:32N 31°30' E 121°23'261929.2
2016-May-01 01:31N 31°04' E 121°28'2753946.4
2016-May-01 01:27N 26°45' E 119°43'40519700.5
2016-May-01 01:25N 23°04' E 113°29'65827878.9
2016-May-01 01:24N 31°28' E 121°25'18131.7
2016-May-01 01:16N 31°10' E 121°28'6789073.6
2016-May-01 01:11N 22°14' E 113°42'6944967.5
2016-May-01 01:03N 31°45' E 121°06'469957.2
2016-May-01 00:33N 24°25' E 118°04'467420671.1
2016-May-01 00:33N 31°43' E 121°08'2011947.7
2016-May-01 00:33N 31°29' E 121°25'21086.5
2016-May-01 00:33N 31°30' E 121°24'1416341.8
2016-May-01 00:33N 31°19' E 121°34'201686.9
2016-May-01 00:32N 31°01' E 121°27'63952270.6
2016-May-01 00:32N 23°06' E 113°27'103327755.5
2016-May-01 00:29N 38°51' E 121°34'441793613.0
2016-May-01 00:29N 31°30' E 121°24'188104.2
2016-May-01 00:29N 31°12' E 121°30'6243.9
2016-May-01 00:28N 31°07' E 121°28'1611876.0
2016-May-01 00:28N 30°57' E 121°12'26316344.1
2016-May-01 00:27N 26°46' E 119°42'75833.9
2016-May-01 00:21N 25°33' E 119°21'3667205.6
2016-May-01 00:18N 31°21' E 121°32'1823.6
2016-Apr-30 23:33N 31°03' E 121°28'274258.0
2016-Apr-30 23:33N 31°30' E 121°24'461331784.0
2016-Apr-30 23:33N 24°25' E 118°04'454109044.1
2016-Apr-30 23:33N 31°19' E 121°34'45868740.3
2016-Apr-30 23:32N 24°25' E 117°52'43217103.3
2016-Apr-30 23:31N 30°57' E 121°17'33819.9
2016-Apr-30 23:28N 31°30' E 121°24'022.0
2016-Apr-30 23:28N 31°30' E 121°24'11507.9
2016-Apr-30 23:26N 31°38' E 121°15'66028971.7
2016-Apr-30 23:25N 23°06' E 113°27'103322811.9
2016-Apr-30 23:22N 38°51' E 121°33'4321823.5
2016-Apr-30 23:08N 31°39' E 121°13'29501.2
2016-Apr-30 23:05N 31°17' E 121°34'452870.5
2016-Apr-30 22:34N 24°25' E 118°04'461184324.5
2016-Apr-30 22:33N 31°30' E 121°24'59146.1
2016-Apr-30 22:33N 31°34' E 121°20'54899.5
2016-Apr-30 22:33N 31°30' E 121°24'132122.6
2016-Apr-30 22:33N 31°20' E 121°33'163501.8
2016-Apr-30 22:33N 31°31' E 121°21'3238638.3
2016-Apr-30 22:33N 30°59' E 121°22'238207.4
2016-Apr-30 22:32N 31°19' E 121°34'65720200.3
2016-Apr-30 22:30N 23°06' E 113°27'6584156.4
2016-Apr-30 22:21N 31°30' E 121°23'14141.5
2016-Apr-30 22:15N 31°40' E 121°13'1522.1
2016-Apr-30 21:33N 31°30' E 121°26'113628.5
2016-Apr-30 21:33N 31°20' E 121°33'1214946.9
2016-Apr-30 21:33N 31°30' E 121°24'461127609.2
2016-Apr-30 21:33N 24°25' E 118°04'462831696.1
2016-Apr-30 21:33N 31°33' E 121°19'5989.6
2016-Apr-30 21:33N 31°37' E 121°16'46899188.4
2016-Apr-30 21:32N 24°25' E 117°52'46163831.6
2016-Apr-30 21:32N 31°24' E 121°31'44732827.8
2016-Apr-30 21:31N 38°50' E 121°33'470153768.3
2016-Apr-30 21:31N 31°01' E 121°27'291873.8
2016-Apr-30 21:30N 31°30' E 121°23'381183.8
2016-Apr-30 21:28N 31°57' E 120°52'382125.8
2016-Apr-30 21:27N 31°30' E 121°24'65912955.0
2016-Apr-30 21:24N 23°06' E 113°27'64026475.0
2016-Apr-30 21:22N 31°56' E 120°11'113802.4
2016-Apr-30 21:14N 31°25' E 118°03'1771406.7
2016-Apr-30 21:06N 31°13' E 121°30'814.9
2016-Apr-30 20:33N 31°20' E 121°33'173135.8
2016-Apr-30 20:33N 31°33' E 121°20'57472068806.6
2016-Apr-30 20:33N 37°53' W 122°24'57481217188.6
2016-Apr-30 20:33N 31°36' E 121°17'84236.8
2016-Apr-30 20:33N 31°30' E 121°24'0236.0
2016-Apr-30 20:32N 31°30' E 121°24'8681.2
2016-Apr-30 20:32N 31°24' E 121°31'41368.5
2016-Apr-30 20:32N 31°27' E 121°28'69326276.3
2016-Apr-30 20:30N 22°13' E 113°40'547197.2
2016-Apr-30 20:29N 23°06' E 113°27'65987829.2
2016-Apr-30 20:29N 31°25' E 121°31'65923713.0
2016-Apr-30 20:27N 23°04' E 113°29'122003.9
2016-Apr-30 20:27N 22°54' E 113°35'25221627.8
2016-Apr-30 20:26N 24°25' E 117°52'480108039.5
2016-Apr-30 20:26N 32°00' E 120°45'45534.7
2016-Apr-30 20:21N 31°30' E 121°23'1 1.0
2016-Apr-30 19:33N 31°30' E 121°24'46139495.4
2016-Apr-30 19:33N 24°25' E 118°04'619311147513.8
2016-Apr-30 19:32N 37°51' W 122°23'5746985010.0
2016-Apr-30 19:32N 31°30' E 121°26'2208.6
2016-Apr-30 19:31N 31°30' E 121°23'124.1
2016-Apr-30 19:29N 31°30' E 121°24'299.8
2016-Apr-30 19:28N 31°28' E 121°26'46418141.4
2016-Apr-30 19:26N 24°25' E 117°52'2551613.4
2016-Apr-30 19:17N 23°06' E 113°27'56770.5
2016-Apr-30 19:12N 22°13' E 113°48'269414.9
2016-Apr-30 18:34N 24°25' E 118°04'461150795.4
2016-Apr-30 18:33N 31°30' E 121°24'659338825.8
2016-Apr-30 18:33N 23°04' E 113°29'65667519.0
2016-Apr-30 18:33N 31°19' E 121°34'84887.0
2016-Apr-30 18:33N 31°27' E 121°29'5750169681.1
2016-Apr-30 18:31N 37°48' W 122°19'575310354727.6
2016-Apr-30 18:30N 31°30' E 121°24'3318.6
2016-Apr-30 18:30N 31°32' E 121°21'711407.6
2016-Apr-30 18:27N 31°58' E 120°03'6388569.3
2016-Apr-30 18:22N 23°06' E 113°27'2551086.4
2016-Apr-30 18:08N 24°25' E 117°52'458785.6
2016-Apr-30 17:33N 31°19' E 121°34'454109044.1
2016-Apr-30 17:33N 24°25' E 118°04'461331749.8
2016-Apr-30 17:33N 31°30' E 121°24'91522.2
2016-Apr-30 17:33N 31°23' E 121°30'69249738.0
2016-Apr-30 17:33N 31°59' E 120°20'101191.2
2016-Apr-30 17:32N 31°57' E 120°08'64053563.3
2016-Apr-30 17:31N 23°04' E 113°29'65934898.8
2016-Apr-30 17:30N 31°36' E 121°17'69292246.4
2016-Apr-30 17:30N 22°15' E 113°43'531659.0
2016-Apr-30 17:28N 23°06' E 113°27'2559563.0
2016-Apr-30 17:26N 24°25' E 117°52'46445117.0
2016-Apr-30 17:26N 31°30' E 121°23'1229.2
2016-Apr-30 17:25N 31°30' E 121°24'460530.9
2016-Apr-30 16:33N 24°25' E 118°04'276497421.9
2016-Apr-30 16:33N 22°12' E 113°40'69592644.2
2016-Apr-30 16:33N 31°30' E 121°24'1324263.4
2016-Apr-30 16:33N 31°19' E 121°34'13612.0
2016-Apr-30 16:32N 31°30' E 121°23'15579.7
2016-Apr-30 16:30N 31°41' E 121°11'15762.1
2016-Apr-30 16:29N 31°30' E 121°24'46410640.3
2016-Apr-30 16:26N 24°25' E 117°52'2562192.8
2016-Apr-30 16:19N 23°06' E 113°26'659148307.7
2016-Apr-30 16:19N 31°29' E 121°25'6595377.1
2016-Apr-30 16:12N 23°04' E 113°29'5485.3
2016-Apr-30 15:33N 22°11' E 113°38'697313558.5
2016-Apr-30 15:33N 31°30' E 121°24'46063745.4
2016-Apr-30 15:33N 24°25' E 118°04'454116834.4
2016-Apr-30 15:33N 31°19' E 121°34'132110.6
2016-Apr-30 15:32N 31°30' E 121°24'65912756.9
2016-Apr-30 15:29N 23°04' E 113°29'41869.8
2016-Apr-30 15:29N 23°00' E 113°31'797.8
2016-Apr-30 15:25N 23°06' E 113°26'6345097.1
2016-Apr-30 15:17N 30°59' E 121°21'64970748.6
2016-Apr-30 15:17N 22°19' E 114°07'6698626.4
2016-Apr-30 15:12N 31°59' E 120°20'611218.7
2016-Apr-30 15:09N 31°30' E 121°23'460777.0
2016-Apr-30 14:34N 24°25' E 118°04'46192156.0
2016-Apr-30 14:33N 31°30' E 121°24'66445079.2
2016-Apr-30 14:32N 23°02' E 113°24'66199196.6
2016-Apr-30 14:32N 31°19' E 121°34'13717.5
2016-Apr-30 14:31N 31°30' E 121°24'65962433.2
2016-Apr-30 14:30N 23°06' E 113°26'601673.3
2016-Apr-30 14:28N 22°19' E 114°08'67427562.7
2016-Apr-30 14:27N 31°30' E 121°23'607438.5
2016-Apr-30 14:26N 32°01' E 120°23'7126.7
2016-Apr-30 14:23N 31°57' E 120°17'631114.0
2016-Apr-30 14:20N 31°30' E 121°23'37337.0
2016-Apr-30 14:13N 31°55' E 120°52'475715.6
2016-Apr-30 13:33N 24°25' E 118°04'4618463.0
2016-Apr-30 13:30N 31°30' E 121°24'1416235.8
2016-Apr-30 13:30N 31°19' E 121°34'671172540.8
2016-Apr-30 13:30N 22°19' E 114°08'6469537.4
2016-Apr-30 13:26N 30°58' E 121°18'32326.0
2016-Apr-30 13:20N 31°30' E 121°23'130.0
2016-Apr-30 13:18N 31°30' E 121°24'42205.2
2016-Apr-30 13:06N 31°59' E 120°50'412036.6
2016-Apr-30 13:05N 31°30' E 121°23'1 1.5
2016-Apr-30 12:33N 31°30' E 121°24'46129624.2
2016-Apr-30 12:33N 24°25' E 118°04'43267683.3
2016-Apr-30 12:32N 30°59' E 121°23'22181.8
2016-Apr-30 12:25N 31°19' E 121°34'65720214.2
2016-Apr-30 12:23N 23°06' E 113°26'659103074.0
2016-Apr-30 12:23N 31°30' E 121°23'9538.7
2016-Apr-30 12:22N 31°22' E 121°28'10235.3
2016-Apr-30 12:19N 31°30' E 121°22'43898.0
2016-Apr-30 12:16N 32°00' E 120°46'478666.6
2016-Apr-30 11:33N 24°25' E 118°04'45560713.0
2016-Apr-30 11:33N 31°22' E 121°29'36750808.8
2016-Apr-30 11:32N 25°33' E 119°21'3951420850.9
2016-Apr-30 11:32N 32°00' E 120°48'4377225.6
2016-Apr-30 11:32N 31°30' E 121°24'475787.9
2016-Apr-30 11:32N 32°00' E 120°42'4712922.2
2016-Apr-30 11:32N 31°30' E 121°23'158.7
2016-Apr-30 11:31N 31°30' E 121°22'141285.6
2016-Apr-30 11:30N 31°19' E 121°34'193557.3
2016-Apr-30 11:30N 31°01' E 121°29'64130764.2
2016-Apr-30 11:28N 23°06' E 113°26'6605359.5
2016-Apr-30 11:21N 31°36' E 121°17'8414.0
2016-Apr-30 11:20N 31°30' E 121°24'29554.0
2016-Apr-30 11:17N 31°01' E 121°29'201484.3
2016-Apr-30 11:16N 31°12' E 121°09'439621.5
2016-Apr-30 10:33N 24°25' E 118°04'454204457.8
2016-Apr-30 10:33N 31°19' E 121°34'235629.4
2016-Apr-30 10:33N 31°37' E 121°16'102095.5
2016-Apr-30 10:33N 31°30' E 121°24'1334.5
2016-Apr-30 10:33N 31°31' E 121°23'15408.4
2016-Apr-30 10:30N 31°22' E 121°37'66116177.3
2016-Apr-30 10:28N 23°06' E 113°26'65937068.6
2016-Apr-30 10:27N 31°30' E 121°24'127.4
2016-Apr-30 10:26N 31°30' E 121°23'134.5
2016-Apr-30 10:24N 31°30' E 121°22'6926537.2
2016-Apr-30 10:18N 22°14' E 113°41'3692421.9
2016-Apr-30 10:08N 25°33' E 119°21'98168.1
2016-Apr-30 09:34N 24°25' E 118°04'46532216.4
2016-Apr-30 09:33N 31°39' E 121°14'12231.4
2016-Apr-30 09:29N 31°30' E 121°24'37537539.7
2016-Apr-30 09:29N 25°30' E 119°23'36820365.9
2016-Apr-30 09:28N 31°19' E 121°34'65781558.2
2016-Apr-30 09:27N 23°06' E 113°26'25612445.3
2016-Apr-30 09:26N 24°25' E 117°52'46466773.2
2016-Apr-30 09:26N 31°30' E 121°23'117.9
2016-Apr-30 09:24N 31°30' E 121°24'1148.3
2016-Apr-30 09:23N 31°30' E 121°22'16252.5
2016-Apr-30 09:19N 31°21' E 121°38'1698.2
2016-Apr-30 09:10N 31°31' E 121°23'2 2.5
2016-Apr-30 08:33N 31°30' E 121°24'091.8
2016-Apr-30 08:33N 31°30' E 121°24'461331770.8
2016-Apr-30 08:33N 24°25' E 118°04'454102227.6
2016-Apr-30 08:33N 31°19' E 121°34'6572365188.2
2016-Apr-30 08:33N 23°06' E 113°26'6601187685.0
2016-Apr-30 08:33N 31°41' E 121°10'47042275.7
2016-Apr-30 08:32N 24°25' E 117°52'46466773.2
2016-Apr-30 08:32N 31°30' E 121°23'161225.2
2016-Apr-30 08:31N 31°15' E 121°30'16762.3
2016-Apr-30 08:30N 31°30' E 121°22'1691289.4
2016-Apr-30 08:22N 31°25' E 118°04'1242164.0
2016-Apr-30 08:18N 32°01' E 120°24'591368.8
2016-Apr-30 08:16N 31°31' E 121°23'4862734.4
2016-Apr-30 08:05N 39°04' E 117°48'8801663.0
2016-Apr-30 07:33N 24°25' E 118°04'27281587.6
2016-Apr-30 07:33N 22°15' E 113°43'68760332.2
2016-Apr-30 07:32N 31°19' E 121°34'118275.5
2016-Apr-30 07:32N 31°29' E 121°26'29671010.4
2016-Apr-30 07:32N 26°47' E 119°43'29636714.5
2016-Apr-30 07:32N 31°30' E 121°23'190.3
2016-Apr-30 07:31N 31°30' E 121°22'1674.3
2016-Apr-30 07:31N 31°30' E 121°24'666581.0
2016-Apr-30 07:30N 31°56' E 120°13'484.2
2016-Apr-30 07:27N 31°57' E 120°18'133.6
2016-Apr-30 07:26N 31°57' E 120°17'470281703.5
2016-Apr-30 07:26N 24°25' E 117°52'2557652.1
2016-Apr-30 07:24N 23°06' E 113°27'6404123.2
2016-Apr-30 07:15N 31°17' E 121°09'1725.4
2016-Apr-30 06:33N 31°30' E 121°22'460551999.6
2016-Apr-30 06:33N 24°25' E 118°04'45432071.8
2016-Apr-30 06:32N 31°19' E 121°34'253301.4
2016-Apr-30 06:32N 31°17' E 121°05'63815309.6
2016-Apr-30 06:30N 23°06' E 113°27'61031810.4
2016-Apr-30 06:28N 29°58' E 121°49'844326.3
2016-Apr-30 06:27N 31°21' E 121°31'4350.2
2016-Apr-30 06:27N 31°25' E 121°32'459517.3
2016-Apr-30 05:33N 24°25' E 118°04'45778393.8
2016-Apr-30 05:33N 31°24' E 121°31'51465.9
2016-Apr-30 05:33N 31°19' E 121°34'152.8
2016-Apr-30 05:31N 31°20' E 121°33'855043.1
2016-Apr-30 05:30N 29°58' E 121°59'9611577.9
2016-Apr-30 05:30N 31°30' E 121°24'119.1
2016-Apr-30 05:28N 31°30' E 121°23'141.9
2016-Apr-30 05:27N 31°30' E 121°22'1736.0
2016-Apr-30 05:27N 31°31' E 121°23'4644190.4
2016-Apr-30 05:20N 24°25' E 117°52'1114.2
2016-Apr-30 04:34N 24°25' E 118°04'454181740.2
2016-Apr-30 04:33N 31°19' E 121°34'518515.2
2016-Apr-30 04:33N 31°15' E 121°30'224124.9
2016-Apr-30 04:33N 31°34' E 121°18'8442.9
2016-Apr-30 04:32N 31°29' E 121°26'10119173.9
2016-Apr-30 04:32N 29°54' E 122°08'1034019.7
2016-Apr-30 04:30N 31°30' E 121°24'115.4
2016-Apr-30 04:25N 31°31' E 121°23'6717197.7
2016-Apr-30 04:24N 31°57' E 120°10'3933350.6
2016-Apr-30 04:17N 25°26' E 119°25'355639149.2
2016-Apr-30 04:17N 23°06' E 113°27'2551642.7
2016-Apr-30 04:08N 24°25' E 117°52'4647987.2
2016-Apr-30 04:04N 31°30' E 121°23'1425.6
2016-Apr-30 03:32N 31°40' E 121°12'466279432.8
2016-Apr-30 03:32N 24°25' E 118°04'46740986.0
2016-Apr-30 03:32N 31°57' E 120°15'6432860.5
2016-Apr-30 03:31N 31°30' E 121°23'1092722.5
2016-Apr-30 03:29N 29°46' E 122°04'10955965.6
2016-Apr-30 03:29N 31°30' E 121°24'1269.2
2016-Apr-30 03:29N 31°31' E 121°23'221355.7
2016-Apr-30 03:28N 31°09' E 121°27'4471944.4
2016-Apr-30 03:14N 24°25' E 117°52'441654.0
2016-Apr-30 02:33N 31°03' E 121°29'437314965.9
2016-Apr-30 02:33N 24°25' E 118°04'11465.8
2016-Apr-30 02:32N 24°25' E 117°52'46413692.9
2016-Apr-30 02:30N 31°30' E 121°24'133156.8
2016-Apr-30 02:30N 31°19' E 121°34'1510478.0
2016-Apr-30 02:30N 31°31' E 121°23'116.9
2016-Apr-30 02:25N 31°30' E 121°23'21458.5
2016-Apr-30 02:23N 31°44' E 121°05'65924980.3
2016-Apr-30 02:21N 23°06' E 113°27'55701.6
2016-Apr-30 02:16N 22°11' E 113°38'6422834.8
2016-Apr-30 02:03N 29°42' E 122°07'6371301.0
2016-Apr-30 01:33N 22°14' E 113°42'274986222.1
2016-Apr-30 01:33N 24°25' E 118°04'46061384.5
2016-Apr-30 01:33N 31°30' E 121°24'425218476.2
2016-Apr-30 01:33N 24°47' E 118°49'311124552.8
2016-Apr-30 01:33N 23°06' E 113°27'25520405.6
2016-Apr-30 01:32N 24°25' E 117°52'43898549.2
2016-Apr-30 01:32N 31°00' E 121°26'3017718.8
2016-Apr-30 01:31N 31°30' E 121°23'11381587.7
2016-Apr-30 01:31N 29°42' E 122°04'1144162.5
2016-Apr-30 01:30N 31°31' E 121°23'37956860.8
2016-Apr-30 01:29N 25°26' E 119°25'35412869.7
2016-Apr-30 01:28N 22°42' E 113°41'32177.2
2016-Apr-30 01:17N 22°10' E 113°38'279383.0
2016-Apr-30 00:33N 24°25' E 118°04'4601655180.9
2016-Apr-30 00:33N 31°29' E 121°23'291946.2
2016-Apr-30 00:32N 31°00' E 121°26'301833.0
2016-Apr-30 00:31N 31°30' E 121°23'666399663.6
2016-Apr-30 00:31N 22°49' E 113°36'667149977.0
2016-Apr-30 00:31N 31°30' E 121°24'10742907.6
2016-Apr-30 00:31N 29°48' E 122°05'29910537.4
2016-Apr-30 00:29N 25°26' E 119°25'1041834.3
2016-Apr-30 00:26N 24°25' E 117°52'2552579.4
2016-Apr-30 00:20N 23°06' E 113°27'265343.3
2016-Apr-29 23:33N 24°25' E 118°04'43443402.6
2016-Apr-29 23:33N 31°00' E 121°26'7413266.9
2016-Apr-29 23:33N 29°55' E 122°06'755084.6
2016-Apr-29 23:32N 31°03' E 121°29'46811549.2
2016-Apr-29 23:29N 38°51' E 121°33'45242786.2
2016-Apr-29 23:29N 31°19' E 121°34'3719088.6
2016-Apr-29 23:26N 25°26' E 119°25'10416269.5
2016-Apr-29 23:26N 24°25' E 117°52'46479491.9
2016-Apr-29 23:25N 31°30' E 121°23'6586420.8
2016-Apr-29 23:19N 23°06' E 113°27'65927571.4
2016-Apr-29 23:18N 31°30' E 121°24'700938.7
2016-Apr-29 22:33N 22°11' E 113°32'28328345.1
2016-Apr-29 22:32N 24°25' E 118°04'9613777.0
2016-Apr-29 22:32N 25°26' E 119°25'37920338.8
2016-Apr-29 22:31N 31°30' E 121°24'307632.0
2016-Apr-29 22:31N 31°00' E 121°26'68929.5
2016-Apr-29 22:26N 29°57' E 121°55'965674.5
2016-Apr-29 22:25N 31°30' E 121°23'65862348.6
2016-Apr-29 22:25N 23°06' E 113°27'6577749.4
2016-Apr-29 22:20N 31°19' E 121°34'4584660.3
2016-Apr-29 22:14N 24°25' E 117°52'88613011.9
2016-Apr-29 22:10N 38°50' E 121°33'54017038.9
2016-Apr-29 22:08N 29°52' E 122°15'539922.8
2016-Apr-29 21:33N 38°50' E 121°34'8841060818.8
2016-Apr-29 21:33N 24°25' E 118°04'10425.8
2016-Apr-29 21:31N 24°25' E 117°53'45891656.5
2016-Apr-29 21:31N 31°19' E 121°34'65752523.8
2016-Apr-29 21:30N 23°06' E 113°27'6238565.2
2016-Apr-29 21:26N 29°52' E 122°15'1071891.1
2016-Apr-29 21:22N 31°30' E 121°23'9342.2
2016-Apr-29 21:21N 31°21' E 121°28'69223485.5
2016-Apr-29 21:19N 22°11' E 113°39'69615563.3
2016-Apr-29 21:16N 31°30' E 121°24'29160.3
2016-Apr-29 21:05N 31°00' E 121°26'435816.9
2016-Apr-29 20:34N 24°25' E 118°04'3582.4
2016-Apr-29 20:33N 24°25' E 118°01'2729059.5
2016-Apr-29 20:31N 22°14' E 113°42'67060297.1
2016-Apr-29 20:31N 31°00' E 121°26'30743.6
2016-Apr-29 20:28N 31°30' E 121°23'131726.7
2016-Apr-29 20:28N 31°19' E 121°34'65710189.3
2016-Apr-29 20:24N 23°05' E 113°27'65919436.8
2016-Apr-29 20:22N 31°30' E 121°24'1 3.2
2016-Apr-29 20:09N 31°29' E 121°23'461767.6
2016-Apr-29 19:33N 24°22' E 118°09'54564.3
2016-Apr-29 19:33N 24°25' E 118°04'43417959.7
2016-Apr-29 19:32N 31°00' E 121°26'202451.5
2016-Apr-29 19:31N 31°19' E 121°34'132077.6
2016-Apr-29 19:31N 31°30' E 121°24'66091398.5
2016-Apr-29 19:30N 23°01' E 113°31'6248350.1
2016-Apr-29 19:26N 29°52' E 122°15'107986.6
2016-Apr-29 19:19N 31°30' E 121°23'16143.9
2016-Apr-29 19:13N 31°41' E 121°11'1624.6
2016-Apr-29 18:34N 31°29' E 121°23'1614484.4
2016-Apr-29 18:33N 31°41' E 121°11'467210180.3
2016-Apr-29 18:33N 24°25' E 118°04'105346.7
2016-Apr-29 18:33N 24°15' E 118°09'26510716.4
2016-Apr-29 18:32N 22°54' E 113°34'66276839.5
2016-Apr-29 18:31N 31°19' E 121°34'20623.1
2016-Apr-29 18:29N 31°00' E 121°26'30286.0
2016-Apr-29 18:23N 31°30' E 121°24'460546.1
2016-Apr-29 17:32N 24°25' E 118°04'145209.0
2016-Apr-29 17:32N 24°10' E 118°03'481247366.2
2016-Apr-29 17:32N 31°41' E 121°11'43909.4
2016-Apr-29 17:29N 31°00' E 121°26'305331.1
2016-Apr-29 17:29N 31°30' E 121°24'66719856.1
2016-Apr-29 17:27N 22°47' E 113°38'64911505.4
2016-Apr-29 17:24N 31°58' E 120°03'863099.8
2016-Apr-29 17:22N 31°19' E 121°34'13172.1
2016-Apr-29 17:17N 31°29' E 121°23'3571983.3
2016-Apr-29 17:07N 25°44' E 119°39'117213.2
2016-Apr-29 16:34N 24°25' E 118°04'45413980.0
2016-Apr-29 16:32N 31°19' E 121°34'201793.3
2016-Apr-29 16:31N 31°00' E 121°26'433239.2
2016-Apr-29 16:30N 31°41' E 121°11'1228011.1
2016-Apr-29 16:29N 29°52' E 122°15'1072071.4
2016-Apr-29 16:26N 31°30' E 121°24'713061.0
2016-Apr-29 16:25N 31°57' E 120°08'701769.3
2016-Apr-29 16:22N 31°29' E 121°23'65920273.0
2016-Apr-29 16:20N 22°57' E 113°37'651334768.3
2016-Apr-29 16:20N 31°14' E 121°30'448574.7
2016-Apr-29 15:33N 24°25' E 118°04'46044797.1
2016-Apr-29 15:33N 31°30' E 121°24'167256.3
2016-Apr-29 15:33N 31°41' E 121°11'2911692.4
2016-Apr-29 15:33N 31°19' E 121°34'20570.0
2016-Apr-29 15:30N 31°00' E 121°26'304253.4
2016-Apr-29 15:30N 31°30' E 121°23'6747887.8
2016-Apr-29 15:30N 31°57' E 120°12'671257.1
2016-Apr-29 15:27N 31°29' E 121°23'6943298.6
2016-Apr-29 15:14N 22°12' E 113°40'6963983.0
2016-Apr-29 15:04N 31°41' E 121°09'466924.7
2016-Apr-29 14:33N 24°25' E 118°04'45433380.9
2016-Apr-29 14:33N 31°19' E 121°34'135257.1
2016-Apr-29 14:32N 31°29' E 121°23'116.7
2016-Apr-29 14:30N 31°30' E 121°24'5116849.2
2016-Apr-29 14:30N 31°60' E 120°35'362015.1
2016-Apr-29 14:29N 31°41' E 121°11'3876302.2
2016-Apr-29 14:25N 25°26' E 119°25'39432996.2
2016-Apr-29 14:24N 31°57' E 120°17'68818615.9
2016-Apr-29 14:22N 22°11' E 113°34'70111210.8
2016-Apr-29 14:18N 31°44' E 121°06'203481.6
2016-Apr-29 14:18N 31°30' E 121°23'15516.1
2016-Apr-29 14:16N 31°21' E 121°38'4948756.4
2016-Apr-29 14:13N 23°52' E 117°45'4714867.6
2016-Apr-29 14:07N 31°00' E 121°26'32616.1
2016-Apr-29 14:04N 31°31' E 121°19'6581287.9
2016-Apr-29 13:33N 22°57' E 113°37'259466965.0
2016-Apr-29 13:33N 24°25' E 118°04'467240203.2
2016-Apr-29 13:33N 31°41' E 121°11'47168145.1
2016-Apr-29 13:33N 31°60' E 120°21'7415703.4
2016-Apr-29 13:33N 31°19' E 121°34'494593301.2
2016-Apr-29 13:33N 23°50' E 117°41'47423705.6
2016-Apr-29 13:32N 31°00' E 121°26'342201.4
2016-Apr-29 13:31N 31°33' E 121°19'5155.3
2016-Apr-29 13:29N 31°29' E 121°23'13522.4
2016-Apr-29 13:27N 31°20' E 121°33'37110954.3
2016-Apr-29 13:25N 25°26' E 119°25'3784493.6
2016-Apr-29 13:20N 31°30' E 121°23'1 3.3
2016-Apr-29 13:09N 31°30' E 121°24'460783.3
2016-Apr-29 12:33N 24°25' E 118°04'43450402.4
2016-Apr-29 12:33N 31°00' E 121°26'201267.7
2016-Apr-29 12:32N 31°19' E 121°34'298772.0
2016-Apr-29 12:32N 31°41' E 121°11'38733971.2
2016-Apr-29 12:31N 25°26' E 119°25'1407219.8
2016-Apr-29 12:30N 23°44' E 117°38'52042513.9
2016-Apr-29 12:29N 32°03' E 120°25'603771.9
2016-Apr-29 12:28N 31°30' E 121°23'131610.7
2016-Apr-29 12:28N 31°39' E 121°13'239232.7
2016-Apr-29 12:28N 31°21' E 121°31'1056.2
2016-Apr-29 12:17N 31°29' E 121°23'1 9.5
2016-Apr-29 12:12N 31°30' E 121°24'27678.5
2016-Apr-29 12:10N 31°03' E 121°29'437724.6
2016-Apr-29 11:33N 24°25' E 118°04'43758317.6
2016-Apr-29 11:33N 31°03' E 121°29'4851.7
2016-Apr-29 11:33N 31°00' E 121°26'2915016.4
2016-Apr-29 11:33N 31°29' E 121°23'131245.1
2016-Apr-29 11:32N 31°19' E 121°34'202521.8
2016-Apr-29 11:31N 31°01' E 121°27'29722.8
2016-Apr-29 11:29N 31°30' E 121°23'1259.5
2016-Apr-29 11:29N 31°30' E 121°24'37825233.1
2016-Apr-29 11:28N 25°26' E 119°25'38777345.4
2016-Apr-29 11:28N 31°41' E 121°11'241181.6
2016-Apr-29 11:26N 31°24' E 121°31'1922.0
2016-Apr-29 10:34N 31°38' E 121°15'3923365.9
2016-Apr-29 10:33N 31°00' E 121°26'67177878.3
2016-Apr-29 10:33N 22°14' E 113°41'690124160.0
2016-Apr-29 10:33N 31°19' E 121°34'4541635662.2
2016-Apr-29 10:33N 24°25' E 118°04'46048712.3
2016-Apr-29 10:32N 31°30' E 121°23'140.8
2016-Apr-29 10:31N 31°30' E 121°24'37990841.2
2016-Apr-29 10:31N 25°26' E 119°25'35419906.1
2016-Apr-29 10:30N 31°03' E 121°29'27455.6
2016-Apr-29 10:26N 31°29' E 121°23'460522.0
2016-Apr-29 09:33N 24°25' E 118°04'463277567.0
2016-Apr-29 09:33N 31°33' E 121°20'3417336.4
2016-Apr-29 09:33N 31°00' E 121°26'203342.0
2016-Apr-29 09:33N 31°19' E 121°34'1917476.3
2016-Apr-29 09:33N 31°17' E 121°11'212775.5
2016-Apr-29 09:32N 31°03' E 121°29'85875.2
2016-Apr-29 09:32N 30°59' E 121°20'316556.8
2016-Apr-29 09:32N 31°30' E 121°23'3785512.4
2016-Apr-29 09:28N 25°26' E 119°25'81371.7
2016-Apr-29 09:15N 26°45' E 119°43'29821862.3
2016-Apr-29 09:14N 31°30' E 121°24'3043.8
2016-Apr-29 08:33N 31°00' E 121°26'43424037.8
2016-Apr-29 08:32N 24°25' E 118°04'46092011.0
2016-Apr-29 08:32N 31°30' E 121°23'1483.0
2016-Apr-29 08:32N 31°30' E 121°24'1323809.7
2016-Apr-29 08:32N 31°19' E 121°34'243399.1
2016-Apr-29 08:31N 30°59' E 121°20'63361620.1
2016-Apr-29 08:31N 23°04' E 113°30'66019793.1
2016-Apr-29 08:29N 31°21' E 121°38'12614.1
2016-Apr-29 08:28N 31°29' E 121°27'18736.6
2016-Apr-29 08:26N 31°17' E 121°11'3632109.5
2016-Apr-29 08:16N 25°26' E 119°25'351497.1
2016-Apr-29 07:34N 31°00' E 121°26'203502.1
2016-Apr-29 07:33N 31°19' E 121°34'45486086.4
2016-Apr-29 07:33N 24°25' E 118°04'4317602.1
2016-Apr-29 07:29N 30°59' E 121°20'271365.2
2016-Apr-29 07:28N 31°24' E 121°31'5146212.6
2016-Apr-29 07:28N 32°00' E 120°49'40160185.7
2016-Apr-29 07:28N 25°26' E 119°25'4003943.4
2016-Apr-29 07:22N 32°02' E 120°28'572005.9
2016-Apr-29 07:20N 31°30' E 121°23'129.6
2016-Apr-29 07:19N 31°30' E 121°24'6605117.4
2016-Apr-29 07:11N 22°57' E 113°37'1082.3
2016-Apr-29 07:04N 23°04' E 113°30'264517.8
2016-Apr-29 06:33N 24°25' E 118°04'434120187.4
2016-Apr-29 06:33N 31°00' E 121°26'173813.3
2016-Apr-29 06:33N 31°10' E 121°09'181397.0
2016-Apr-29 06:32N 31°03' E 121°29'2719655.4
2016-Apr-29 06:32N 31°30' E 121°24'132962.7
2016-Apr-29 06:32N 31°19' E 121°34'7318873.5
2016-Apr-29 06:32N 31°59' E 120°21'39629713.3
2016-Apr-29 06:31N 25°26' E 119°25'348125237.3
2016-Apr-29 06:31N 30°59' E 121°20'31453.1
2016-Apr-29 06:27N 31°30' E 121°23'832.1
2016-Apr-29 06:11N 31°24' E 121°31'2439.2
2016-Apr-29 05:34N 31°00' E 121°26'301871.5
2016-Apr-29 05:33N 31°30' E 121°24'214140.4
2016-Apr-29 05:32N 31°13' E 121°09'44054669.3
2016-Apr-29 05:32N 24°25' E 118°04'43129823.3
2016-Apr-29 05:31N 30°59' E 121°20'241287.8
2016-Apr-29 05:30N 31°19' E 121°34'5310.8
2016-Apr-29 05:29N 31°24' E 121°31'101430.4
2016-Apr-29 05:28N 31°15' E 121°29'771602.5
2016-Apr-29 05:26N 31°56' E 120°12'661500.2
2016-Apr-29 05:23N 31°30' E 121°23'27376.0
2016-Apr-29 05:19N 31°03' E 121°29'1925.2
2016-Apr-29 04:33N 31°21' E 121°30'11013.9
2016-Apr-29 04:33N 31°23' E 121°30'2313649.7
2016-Apr-29 04:33N 31°00' E 121°26'434156245.6
2016-Apr-29 04:33N 24°25' E 118°04'431103388.8
2016-Apr-29 04:33N 30°59' E 121°20'64192338.3
2016-Apr-29 04:32N 22°54' E 113°30'66763142.2
2016-Apr-29 04:32N 31°30' E 121°24'87244.5
2016-Apr-29 04:32N 31°24' E 121°31'2211062.3
2016-Apr-29 04:32N 31°03' E 121°29'902779.4
2016-Apr-29 04:30N 31°57' E 120°04'42114290.8
2016-Apr-29 04:28N 38°52' E 121°32'47327917.2
2016-Apr-29 04:27N 30°59' E 121°20'2428956.4
2016-Apr-29 04:27N 31°22' E 121°28'5220.3
2016-Apr-29 04:26N 31°19' E 121°34'37127829.2
2016-Apr-29 04:25N 25°26' E 119°25'3782303.5
2016-Apr-29 04:15N 31°30' E 121°23'3043.6
2016-Apr-29 03:33N 30°59' E 121°23'53792.5
2016-Apr-29 03:33N 31°02' E 121°29'3769.6
2016-Apr-29 03:33N 31°00' E 121°26'3021340.0
2016-Apr-29 03:33N 31°30' E 121°24'312243.4
2016-Apr-29 03:32N 30°59' E 121°20'431221547.4
2016-Apr-29 03:32N 24°25' E 118°04'964151.2
2016-Apr-29 03:31N 25°26' E 119°25'81388695.6
2016-Apr-29 03:30N 38°52' E 121°32'9668218.4
2016-Apr-29 03:23N 23°16' E 116°53'54924086.2
2016-Apr-29 03:22N 31°30' E 121°23'213.2
2016-Apr-29 03:11N 31°28' E 121°26'442705.6
2016-Apr-29 02:34N 38°50' E 121°33'470563944.2
2016-Apr-29 02:33N 31°00' E 121°27'239030.0
2016-Apr-29 02:33N 31°17' E 121°08'2240173.1
2016-Apr-29 02:33N 31°00' E 121°26'314075.2
2016-Apr-29 02:33N 31°30' E 121°22'336647.9
2016-Apr-29 02:33N 30°58' E 121°15'428385396.5
2016-Apr-29 02:32N 24°25' E 118°04'431119294.8
2016-Apr-29 02:32N 30°59' E 121°20'31408.4
2016-Apr-29 02:28N 31°30' E 121°23'6594635.7
2016-Apr-29 02:19N 23°01' E 113°31'658147965.2
2016-Apr-29 02:19N 31°20' E 121°32'117.5
2016-Apr-29 02:14N 31°19' E 121°34'203715.3
2016-Apr-29 02:14N 31°01' E 121°27'291050.3
2016-Apr-29 02:12N 31°30' E 121°24'3794381.6
2016-Apr-29 02:07N 25°26' E 119°25'37417474.2
2016-Apr-29 02:05N 31°21' E 121°38'457856.9
2016-Apr-29 01:33N 24°25' E 118°04'455409326.7
2016-Apr-29 01:33N 31°20' E 121°32'2175827.3
2016-Apr-29 01:33N 31°00' E 121°26'351126245.5
2016-Apr-29 01:33N 25°26' E 119°25'81278999.4
2016-Apr-29 01:33N 38°51' E 121°34'470153852.3
2016-Apr-29 01:32N 31°00' E 121°27'6408.8
2016-Apr-29 01:31N 30°59' E 121°20'221429.6
2016-Apr-29 01:31N 31°17' E 121°05'2825599.1
2016-Apr-29 01:30N 31°21' E 121°38'14572.9
2016-Apr-29 01:29N 31°30' E 121°24'1 8.7
2016-Apr-29 01:25N 31°30' E 121°23'6583162.0
2016-Apr-29 01:12N 23°04' E 113°30'6596362.1
2016-Apr-29 01:06N 31°37' E 121°16'23796.1
2016-Apr-29 01:04N 31°19' E 121°34'454887.5
2016-Apr-29 00:33N 24°25' E 118°04'434260409.3
2016-Apr-29 00:33N 31°00' E 121°26'161.5
2016-Apr-29 00:33N 31°00' E 121°27'73263038.6
2016-Apr-29 00:33N 29°56' E 122°06'30923641.9
2016-Apr-29 00:32N 25°22' E 119°24'352316362.7
2016-Apr-29 00:32N 30°59' E 121°20'412802.6
2016-Apr-29 00:31N 31°40' E 121°14'137793.9
2016-Apr-29 00:31N 31°30' E 121°23'1 6.0
2016-Apr-29 00:24N 31°30' E 121°24'14643.4
2016-Apr-29 00:23N 31°21' E 121°38'5134.2
2016-Apr-29 00:21N 31°20' E 121°32'6573705.2
2016-Apr-29 00:10N 23°02' E 113°32'6381033.0
2016-Apr-28 23:33N 31°00' E 121°26'27046344.0
2016-Apr-28 23:33N 26°45' E 119°43'271243856.7
2016-Apr-28 23:33N 31°00' E 121°27'435142259.2
2016-Apr-28 23:33N 24°25' E 118°04'460103587.5
2016-Apr-28 23:32N 31°30' E 121°24'132368.5
2016-Apr-28 23:32N 31°19' E 121°34'321482.1
2016-Apr-28 23:31N 31°43' E 121°08'454279.1
2016-Apr-28 23:30N 30°59' E 121°20'4198.2
2016-Apr-28 23:29N 30°58' E 121°16'63251722.4
2016-Apr-28 23:28N 22°56' E 113°37'81816.8
2016-Apr-28 23:28N 23°02' E 113°32'3519090.2
2016-Apr-28 23:26N 25°22' E 119°24'37710611.7
2016-Apr-28 23:24N 31°21' E 121°38'66010282.2
2016-Apr-28 23:20N 23°04' E 113°30'545098.8
2016-Apr-28 23:19N 22°11' E 113°38'6966508.0
2016-Apr-28 23:13N 31°30' E 121°23'6911057.1
2016-Apr-28 22:33N 22°14' E 113°42'670482513.8
2016-Apr-28 22:33N 31°00' E 121°27'1341.5
2016-Apr-28 22:33N 31°00' E 121°26'434781227.9
2016-Apr-28 22:33N 24°25' E 118°04'454545220.7
2016-Apr-28 22:33N 31°19' E 121°34'17832069.6
2016-Apr-28 22:33N 31°25' E 118°05'1619187.1
2016-Apr-28 22:32N 31°39' E 121°13'389199838.9
2016-Apr-28 22:32N 25°22' E 119°24'35223876.4
2016-Apr-28 22:31N 30°59' E 121°20'472849749.3
2016-Apr-28 22:31N 38°51' E 121°33'450405259.3
2016-Apr-28 22:31N 31°20' E 121°32'23286.2
2016-Apr-28 22:26N 30°59' E 121°22'311840.8
2016-Apr-28 22:25N 31°30' E 121°24'1594.6
2016-Apr-28 22:16N 31°21' E 121°38'6606237.6
2016-Apr-28 22:09N 23°02' E 113°32'6391066.5
2016-Apr-28 21:33N 31°00' E 121°27'11024.6
2016-Apr-28 21:33N 31°00' E 121°26'434260409.3
2016-Apr-28 21:33N 24°25' E 118°04'460276247.6
2016-Apr-28 21:33N 31°30' E 121°24'659263509.7
2016-Apr-28 21:33N 23°02' E 113°32'516602.7
2016-Apr-28 21:32N 22°11' E 113°38'542585.9
2016-Apr-28 21:31N 23°04' E 113°29'65656268.3
2016-Apr-28 21:31N 31°20' E 121°32'37511647.5
2016-Apr-28 21:29N 25°22' E 119°24'81517063.3
2016-Apr-28 21:26N 38°50' E 121°32'4516938.9
2016-Apr-28 21:22N 31°19' E 121°34'83900.1
2016-Apr-28 21:16N 31°57' E 120°07'592649.5
2016-Apr-28 21:15N 31°39' E 121°13'411900.6
2016-Apr-28 21:14N 30°59' E 121°20'63567188.1
2016-Apr-28 21:13N 22°57' E 113°37'638965.5
2016-Apr-28 20:34N 30°60' E 121°24'4331558769.9
2016-Apr-28 20:33N 24°25' E 118°04'273981244.3
2016-Apr-28 20:33N 22°15' E 113°43'67715419.5
2016-Apr-28 20:31N 31°57' E 120°11'6428715.6
2016-Apr-28 20:26N 23°02' E 113°32'65916024.2
2016-Apr-28 20:24N 31°30' E 121°24'38216982.8
2016-Apr-28 20:23N 25°22' E 119°24'3557341.5
2016-Apr-28 20:20N 31°00' E 121°27'40151.9
2016-Apr-28 20:04N 31°39' E 121°13'1325.5
2016-Apr-28 19:33N 31°30' E 121°24'46040427.5
2016-Apr-28 19:32N 24°25' E 118°04'26326261.1
2016-Apr-28 19:32N 23°02' E 113°32'639328452.1
2016-Apr-28 19:32N 31°00' E 121°27'355182488.8
2016-Apr-28 19:32N 25°22' E 119°24'3889139.6
2016-Apr-28 19:29N 31°39' E 121°13'26216.2
2016-Apr-28 19:22N 31°19' E 121°34'762595.4
2016-Apr-28 19:20N 31°57' E 120°17'741716.4
2016-Apr-28 19:17N 31°21' E 121°33'422.8
2016-Apr-28 19:06N 31°21' E 121°38'2341.4
2016-Apr-28 18:34N 31°00' E 121°27'435223538.9
2016-Apr-28 18:33N 24°25' E 118°04'43333173.2
2016-Apr-28 18:33N 30°60' E 121°25'4207.7
2016-Apr-28 18:32N 30°59' E 121°20'6341140354.6
2016-Apr-28 18:32N 23°04' E 113°29'65925769.2
2016-Apr-28 18:30N 31°30' E 121°24'147.4
2016-Apr-28 18:29N 31°30' E 121°23'3823393.4
2016-Apr-28 18:23N 25°22' E 119°24'38814874.1
2016-Apr-28 18:21N 31°39' E 121°13'66022208.9
2016-Apr-28 18:19N 23°05' E 113°27'6572965.4
2016-Apr-28 18:06N 31°20' E 121°32'6611207.2
2016-Apr-28 17:33N 23°02' E 113°24'269193519.1
2016-Apr-28 17:33N 24°25' E 118°04'435104316.8
2016-Apr-28 17:33N 31°00' E 121°27'8248937.8
2016-Apr-28 17:33N 32°02' E 120°24'8197338.7
2016-Apr-28 17:33N 30°60' E 121°25'2115322.0
2016-Apr-28 17:32N 31°19' E 121°34'136906.6
2016-Apr-28 17:32N 31°30' E 121°23'164.9
2016-Apr-28 17:32N 31°30' E 121°24'3111212.9
2016-Apr-28 17:32N 30°59' E 121°20'24468.4
2016-Apr-28 17:29N 31°20' E 121°32'25272.8
2016-Apr-28 17:23N 31°39' E 121°13'465559.9
2016-Apr-28 16:33N 24°25' E 118°04'43586930.7
2016-Apr-28 16:33N 31°00' E 121°27'2272.3
2016-Apr-28 16:33N 30°60' E 121°25'637286570.7
2016-Apr-28 16:32N 23°04' E 113°29'65754999.8
2016-Apr-28 16:32N 31°21' E 121°33'121077.9
2016-Apr-28 16:31N 31°30' E 121°24'133376.6
2016-Apr-28 16:31N 31°19' E 121°34'34929.5
2016-Apr-28 16:31N 31°21' E 121°31'3219.7
2016-Apr-28 16:30N 31°24' E 121°31'248554.9
2016-Apr-28 16:30N 31°41' E 121°12'151641.3
2016-Apr-28 16:29N 31°30' E 121°23'6582161.5
2016-Apr-28 16:11N 23°04' E 113°29'264421.7
2016-Apr-28 15:33N 24°25' E 118°04'431387707.9
2016-Apr-28 15:33N 30°59' E 121°20'6584.0
2016-Apr-28 15:33N 31°00' E 121°27'2262.2
2016-Apr-28 15:32N 30°60' E 121°25'431021.4
2016-Apr-28 15:30N 31°41' E 121°12'151463.8
2016-Apr-28 15:29N 31°30' E 121°23'15466.4
2016-Apr-28 15:27N 31°21' E 121°38'14620.4
2016-Apr-28 15:26N 31°30' E 121°24'6594781.7
2016-Apr-28 15:18N 23°02' E 113°32'65732831.3
2016-Apr-28 15:16N 31°19' E 121°34'1294.7
2016-Apr-28 15:09N 31°29' E 121°25'2949.0
2016-Apr-28 14:33N 30°60' E 121°25'4331559161.8
2016-Apr-28 14:33N 24°25' E 118°04'43539118.8
2016-Apr-28 14:33N 31°00' E 121°27'61135.5
2016-Apr-28 14:32N 30°59' E 121°20'321222.2
2016-Apr-28 14:31N 31°31' E 121°22'276.6
2016-Apr-28 14:29N 31°30' E 121°23'1205.1
2016-Apr-28 14:29N 31°30' E 121°24'6595539.4
2016-Apr-28 14:22N 23°04' E 113°29'6605055.1
2016-Apr-28 14:14N 31°21' E 121°38'431.5
2016-Apr-28 14:07N 31°19' E 121°34'454811.7
2016-Apr-28 13:33N 24°25' E 118°04'435195596.5
2016-Apr-28 13:33N 31°00' E 121°27'64089.2
2016-Apr-28 13:33N 30°59' E 121°20'4421.9
2016-Apr-28 13:32N 30°60' E 121°25'367575.4
2016-Apr-28 13:32N 31°35' E 121°18'211763.4
2016-Apr-28 13:31N 31°19' E 121°34'13350.3
2016-Apr-28 13:29N 31°30' E 121°23'1 7.1
2016-Apr-28 13:24N 31°30' E 121°24'2934.9
2016-Apr-28 12:34N 31°00' E 121°26'2035918.6
2016-Apr-28 12:33N 31°19' E 121°34'45445435.1
2016-Apr-28 12:33N 24°25' E 118°04'43565198.0
2016-Apr-28 12:32N 31°00' E 121°27'38933337.3
2016-Apr-28 12:32N 24°53' E 119°02'38618770.2
2016-Apr-28 12:31N 30°59' E 121°21'185.3
2016-Apr-28 12:30N 30°59' E 121°20'246251.0
2016-Apr-28 12:30N 31°21' E 121°33'65715259.8
2016-Apr-28 12:27N 23°02' E 113°32'65910050.6
2016-Apr-28 12:23N 31°30' E 121°24'837.0
2016-Apr-28 12:10N 31°25' E 121°32'8263.4
2016-Apr-28 12:08N 31°30' E 121°23'297484.7
2016-Apr-28 12:08N 31°01' E 121°27'435758.6
2016-Apr-28 11:34N 24°25' E 118°04'435173997.0
2016-Apr-28 11:33N 31°01' E 121°27'27405.6
2016-Apr-28 11:33N 31°02' E 121°29'184259.9
2016-Apr-28 11:33N 31°19' E 121°34'2238878.3
2016-Apr-28 11:33N 30°59' E 121°24'39361514.7
2016-Apr-28 11:33N 24°48' E 118°58'41641560.4
2016-Apr-28 11:32N 31°22' E 121°30'68710226.8
2016-Apr-28 11:28N 22°15' E 113°43'69021792.7
2016-Apr-28 11:26N 31°30' E 121°23'315867.8
2016-Apr-28 11:26N 30°59' E 121°20'6888.7
2016-Apr-28 11:25N 31°00' E 121°27'63974150.1
2016-Apr-28 11:25N 23°04' E 113°29'65728833.9
2016-Apr-28 11:24N 31°21' E 121°33'4154.3
2016-Apr-28 11:22N 31°21' E 121°38'6605259.0
2016-Apr-28 11:14N 23°02' E 113°32'6594198.1
2016-Apr-28 11:05N 31°30' E 121°24'460874.7
2016-Apr-28 10:33N 24°25' E 118°04'454116831.6
2016-Apr-28 10:33N 31°19' E 121°34'229957.8
2016-Apr-28 10:33N 30°59' E 121°23'39865180.7
2016-Apr-28 10:33N 24°44' E 118°53'40463173.4
2016-Apr-28 10:32N 31°03' E 121°29'3945.9
2016-Apr-28 10:32N 31°06' E 121°27'6682.9
2016-Apr-28 10:32N 31°01' E 121°29'214620.7
2016-Apr-28 10:31N 31°16' E 121°12'198484.0
2016-Apr-28 10:31N 31°24' E 121°32'24867.3
2016-Apr-28 10:29N 31°00' E 121°27'291318.6
2016-Apr-28 10:28N 31°30' E 121°24'1673.2
2016-Apr-28 10:15N 31°16' E 121°33'5675.1
2016-Apr-28 10:15N 31°21' E 121°33'5289.6
2016-Apr-28 10:14N 31°21' E 121°39'457683.9
2016-Apr-28 09:33N 24°25' E 118°04'455136526.8
2016-Apr-28 09:33N 31°21' E 121°33'2110681.5
2016-Apr-28 09:33N 31°00' E 121°27'235273.3
2016-Apr-28 09:33N 31°23' E 121°34'2327128.3
2016-Apr-28 09:33N 31°01' E 121°28'303196.6
2016-Apr-28 09:32N 31°31' E 121°22'21350.7
2016-Apr-28 09:32N 31°30' E 121°23'2295.8
2016-Apr-28 09:32N 31°29' E 121°26'67997734.1
2016-Apr-28 09:31N 22°27' E 113°47'66637445.3
2016-Apr-28 09:30N 31°10' E 121°28'1552352.4
2016-Apr-28 09:30N 31°16' E 121°12'19139.4
2016-Apr-28 09:22N 31°19' E 121°34'65713906.3
2016-Apr-28 09:19N 23°02' E 113°32'342.0
2016-Apr-28 09:15N 23°04' E 113°29'639930.3
2016-Apr-28 08:34N 31°00' E 121°27'435104316.8
2016-Apr-28 08:33N 24°25' E 118°04'461184456.7
2016-Apr-28 08:33N 31°32' E 121°21'131821.2
2016-Apr-28 08:33N 31°21' E 121°30'172128.1
2016-Apr-28 08:32N 31°16' E 121°12'67339097.6
2016-Apr-28 08:31N 22°15' E 113°43'674105532.1
2016-Apr-28 08:31N 31°06' E 121°28'281790.5
2016-Apr-28 08:30N 31°33' E 121°19'172593.4
2016-Apr-28 08:29N 31°21' E 121°33'122695.8
2016-Apr-28 08:29N 31°30' E 121°23'6588003.3
2016-Apr-28 08:24N 23°04' E 113°29'251817.3
2016-Apr-28 08:23N 22°42' E 113°41'66112861.9
2016-Apr-28 08:20N 31°14' E 121°29'6502.5
2016-Apr-28 08:20N 31°08' E 121°28'64545524.8
2016-Apr-28 08:19N 23°02' E 113°32'54738.1
2016-Apr-28 08:14N 22°19' E 114°07'66412380.7
2016-Apr-28 08:11N 31°12' E 121°30'6861094.1
2016-Apr-28 07:34N 22°10' E 113°41'3928196.3
2016-Apr-28 07:33N 22°49' E 113°36'668480789.6
2016-Apr-28 07:33N 31°36' E 121°17'693623464.1
2016-Apr-28 07:33N 22°14' E 113°42'274140677.4
2016-Apr-28 07:33N 24°25' E 118°04'444114297.5
2016-Apr-28 07:33N 31°11' E 121°28'2716186.0
2016-Apr-28 07:33N 31°36' E 121°17'1047481.3
2016-Apr-28 07:32N 29°58' E 121°57'709388.5
2016-Apr-28 07:32N 31°04' E 121°28'64230833.1
2016-Apr-28 07:30N 23°02' E 113°32'64217496.0
2016-Apr-28 07:28N 31°16' E 121°12'16320.3
2016-Apr-28 07:25N 31°15' E 121°30'16134.1
2016-Apr-28 07:18N 31°30' E 121°23'13294.7
2016-Apr-28 07:15N 31°19' E 121°34'6565613.5
2016-Apr-28 07:08N 23°04' E 113°29'6191059.8
2016-Apr-28 06:33N 29°55' E 122°06'8530608.5
2016-Apr-28 06:33N 31°14' E 121°29'1425573.1
2016-Apr-28 06:33N 31°00' E 121°26'42149409.0
2016-Apr-28 06:33N 31°40' E 121°12'4213600.4
2016-Apr-28 06:33N 31°00' E 121°27'64074339.8
2016-Apr-28 06:32N 22°56' E 113°37'2609184.0
2016-Apr-28 06:31N 24°25' E 118°04'44340936.4
2016-Apr-28 06:30N 31°16' E 121°12'245322.1
2016-Apr-28 06:30N 31°39' E 121°13'660791799.0
2016-Apr-28 06:30N 23°02' E 113°32'65713136.3
2016-Apr-28 06:27N 31°21' E 121°32'12957.8
2016-Apr-28 06:26N 31°30' E 121°23'65810345.3
2016-Apr-28 06:22N 23°04' E 113°29'54699.2
2016-Apr-28 06:18N 22°11' E 113°33'30625069.2
2016-Apr-28 06:17N 24°25' E 118°33'442227514.8
2016-Apr-28 06:17N 31°18' E 121°34'453627.7
2016-Apr-28 05:33N 24°25' E 118°04'435312954.4
2016-Apr-28 05:33N 31°00' E 121°27'241764.2
2016-Apr-28 05:33N 31°24' E 121°31'10051594.9
2016-Apr-28 05:32N 29°48' E 122°05'967819.2
2016-Apr-28 05:32N 31°19' E 121°34'66040952.3
2016-Apr-28 05:31N 23°03' E 113°25'617046.1
2016-Apr-28 05:30N 22°19' E 114°10'65631493.6
2016-Apr-28 05:29N 31°16' E 121°12'191717.5
2016-Apr-28 05:28N 31°20' E 121°33'118.0
2016-Apr-28 05:25N 31°21' E 121°32'12660.1
2016-Apr-28 05:24N 31°30' E 121°23'1068.1
2016-Apr-28 05:15N 31°21' E 121°30'455658.8
2016-Apr-28 04:33N 24°25' E 118°04'435195601.4
2016-Apr-28 04:33N 31°00' E 121°27'2176387.4
2016-Apr-28 04:33N 31°21' E 121°30'17429.3
2016-Apr-28 04:31N 31°16' E 121°12'1922488.5
2016-Apr-28 04:31N 31°19' E 121°33'41779.6
2016-Apr-28 04:31N 31°23' E 121°30'44836690.0
2016-Apr-28 04:30N 38°51' E 121°33'4441597076.9
2016-Apr-28 04:30N 31°28' E 121°27'7128.5
2016-Apr-28 04:27N 31°21' E 121°30'25359.5
2016-Apr-28 04:23N 31°41' E 121°12'467563.5
2016-Apr-28 03:33N 24°25' E 118°04'443319307.9
2016-Apr-28 03:33N 31°16' E 121°12'181471.8
2016-Apr-28 03:32N 31°31' E 121°22'312090.4
2016-Apr-28 03:31N 31°00' E 121°27'202745.9
2016-Apr-28 03:31N 31°19' E 121°34'45181243.1
2016-Apr-28 03:31N 38°51' E 121°33'45011900.2
2016-Apr-28 03:28N 31°21' E 121°31'4331.3
2016-Apr-28 03:28N 31°25' E 121°30'6654392.3
2016-Apr-28 03:18N 23°02' E 113°21'615110720.7
2016-Apr-28 03:18N 29°42' E 122°03'1121645.1
2016-Apr-28 03:14N 31°30' E 121°23'61884.4
2016-Apr-28 03:10N 32°00' E 120°21'723522.9
2016-Apr-28 03:09N 31°21' E 121°33'97165.9
2016-Apr-28 02:34N 29°47' E 122°04'8032066.1
2016-Apr-28 02:33N 31°00' E 121°27'470105760.0
2016-Apr-28 02:33N 38°50' E 121°32'884176778.3
2016-Apr-28 02:33N 24°25' E 118°04'455117101.5
2016-Apr-28 02:33N 31°22' E 121°30'171656.7
2016-Apr-28 02:32N 31°16' E 121°12'181153.0
2016-Apr-28 02:31N 31°31' E 121°22'151164.5
2016-Apr-28 02:30N 31°19' E 121°34'659197786.7
2016-Apr-28 02:30N 23°04' E 113°25'66140323.7
2016-Apr-28 02:29N 31°30' E 121°23'65824435.6
2016-Apr-28 02:27N 23°02' E 113°32'6617100.0
2016-Apr-28 02:22N 31°41' E 121°12'241155.4
2016-Apr-28 02:21N 31°24' E 121°31'975.2
2016-Apr-28 02:13N 31°30' E 121°23'39872.2
2016-Apr-28 02:11N 31°58' E 120°51'6976652.2
2016-Apr-28 02:04N 22°15' E 113°43'6701291.1
2016-Apr-28 01:33N 31°00' E 121°27'435260801.9
2016-Apr-28 01:33N 24°25' E 118°04'395710178.1
2016-Apr-28 01:33N 29°54' E 122°09'5381936335.0
2016-Apr-28 01:33N 38°51' E 121°33'44051075.0
2016-Apr-28 01:33N 31°31' E 121°22'2213.2
2016-Apr-28 01:32N 31°30' E 121°23'69359422.6
2016-Apr-28 01:31N 22°13' E 113°40'691276345.4
2016-Apr-28 01:31N 31°19' E 121°34'149977.1
2016-Apr-28 01:31N 31°30' E 121°23'172608.0
2016-Apr-28 01:31N 31°16' E 121°12'18743.7
2016-Apr-28 01:29N 31°26' E 121°29'67524527.8
2016-Apr-28 01:28N 22°19' E 114°07'67167143.6
2016-Apr-28 01:27N 31°21' E 121°30'210.8
2016-Apr-28 01:15N 31°21' E 121°33'2130.2
2016-Apr-28 00:33N 31°00' E 121°27'294157.9
2016-Apr-28 00:33N 31°29' E 121°24'460165653.2
2016-Apr-28 00:33N 24°25' E 118°04'46125122.2
2016-Apr-28 00:32N 31°30' E 121°23'1245.3
2016-Apr-28 00:31N 31°31' E 121°22'1527357.1
2016-Apr-28 00:31N 31°19' E 121°34'8510936.3
2016-Apr-28 00:31N 29°57' E 121°59'884817.8
2016-Apr-28 00:30N 31°16' E 121°12'17279.5
2016-Apr-28 00:26N 31°30' E 121°23'6983475.8
2016-Apr-28 00:14N 22°11' E 113°35'541525.6
2016-Apr-28 00:12N 23°04' E 113°29'58622.5
2016-Apr-28 00:06N 22°18' E 114°08'6531189.1
2016-Apr-27 23:33N 31°00' E 121°26'653293861.4
2016-Apr-27 23:33N 22°18' E 114°08'675220872.6
2016-Apr-27 23:33N 31°30' E 121°23'46144813.1
2016-Apr-27 23:32N 24°25' E 118°04'461237084.1
2016-Apr-27 23:32N 31°31' E 121°22'65964102.0
2016-Apr-27 23:32N 23°02' E 113°32'642769868.3
2016-Apr-27 23:32N 31°16' E 121°12'6418071.6
2016-Apr-27 23:27N 23°04' E 113°29'65845559.9
2016-Apr-27 23:26N 31°30' E 121°23'10124.8
2016-Apr-27 23:21N 31°21' E 121°30'2175.6
2016-Apr-27 23:20N 31°21' E 121°33'12491.3
2016-Apr-27 23:19N 31°30' E 121°24'1215.8
2016-Apr-27 22:33N 31°21' E 121°33'2174968.1
2016-Apr-27 22:33N 31°00' E 121°26'653293863.6
2016-Apr-27 22:33N 22°18' E 114°08'6722418132.2
2016-Apr-27 22:33N 31°19' E 121°34'454181740.2
2016-Apr-27 22:33N 24°25' E 118°04'461110639.2
2016-Apr-27 22:33N 31°31' E 121°22'2130.9
2016-Apr-27 22:32N 31°30' E 121°23'65845581.8
2016-Apr-27 22:31N 23°02' E 113°32'64257740.1
2016-Apr-27 22:31N 31°16' E 121°12'17304.0
2016-Apr-27 22:27N 31°21' E 121°30'10271.8
2016-Apr-27 22:25N 31°30' E 121°24'6593931.5
2016-Apr-27 22:15N 23°04' E 113°29'264381.4
2016-Apr-27 21:33N 24°25' E 118°04'435782277.8
2016-Apr-27 21:33N 31°00' E 121°26'653261212.1
2016-Apr-27 21:33N 22°18' E 114°08'10631275893.2
2016-Apr-27 21:33N 38°50' E 121°33'45541980.6
2016-Apr-27 21:33N 31°16' E 121°12'172031.7
2016-Apr-27 21:32N 31°30' E 121°23'163.2
2016-Apr-27 21:31N 31°30' E 121°23'14984.7
2016-Apr-27 21:31N 31°19' E 121°34'151409.3
2016-Apr-27 21:30N 31°31' E 121°22'65911622.3
2016-Apr-27 21:27N 23°04' E 113°29'65974091.2
2016-Apr-27 21:26N 31°30' E 121°24'65927580.4
2016-Apr-27 21:25N 23°02' E 113°32'6415152.7
2016-Apr-27 21:17N 31°01' E 121°30'19213.6
2016-Apr-27 21:12N 31°21' E 121°33'271737.9
2016-Apr-27 21:11N 31°41' E 121°12'28530.1
2016-Apr-27 21:08N 31°20' E 121°34'2035.6
2016-Apr-27 20:33N 31°00' E 121°26'435120350.4
2016-Apr-27 20:33N 24°25' E 118°04'261156784.1
2016-Apr-27 20:33N 22°55' E 113°36'644463506.3
2016-Apr-27 20:33N 31°01' E 121°29'3136604.0
2016-Apr-27 20:33N 31°31' E 121°22'224357.8
2016-Apr-27 20:33N 31°16' E 121°03'637109160.0
2016-Apr-27 20:32N 23°04' E 113°29'64147112.6
2016-Apr-27 20:32N 31°16' E 121°12'64227171.4
2016-Apr-27 20:30N 23°02' E 113°32'65840866.4
2016-Apr-27 20:29N 31°30' E 121°23'1 5.1
2016-Apr-27 20:22N 31°30' E 121°23'016.4
2016-Apr-27 20:20N 31°30' E 121°24'66835367.6
2016-Apr-27 20:19N 22°55' E 113°25'45425.2
2016-Apr-27 20:13N 22°10' E 113°31'6831049.0
2016-Apr-27 19:34N 31°16' E 121°12'206422.3
2016-Apr-27 19:33N 31°00' E 121°26'435111754.0
2016-Apr-27 19:33N 24°25' E 118°04'4611659721.8
2016-Apr-27 19:33N 31°31' E 121°22'313138.1
2016-Apr-27 19:32N 31°01' E 121°29'294504.4
2016-Apr-27 19:32N 31°30' E 121°23'118.9
2016-Apr-27 19:30N 31°30' E 121°23'66720695.3
2016-Apr-27 19:28N 22°49' E 113°36'422307.9
2016-Apr-27 19:27N 22°18' E 114°08'675202461.9
2016-Apr-27 19:27N 31°30' E 121°24'65911799.9
2016-Apr-27 19:23N 23°02' E 113°32'52589.5
2016-Apr-27 19:18N 22°10' E 113°31'54476.6
2016-Apr-27 19:11N 23°04' E 113°29'541167.3
2016-Apr-27 19:09N 22°11' E 113°38'69545460.0
2016-Apr-27 19:08N 31°20' E 121°34'2035.5
2016-Apr-27 18:33N 31°00' E 121°26'31111239.9
2016-Apr-27 18:33N 31°31' E 121°22'1819.9
2016-Apr-27 18:33N 31°30' E 121°23'171181.9
2016-Apr-27 18:32N 31°16' E 121°12'6412308502.6
2016-Apr-27 18:32N 23°04' E 113°29'264237646.4
2016-Apr-27 18:32N 24°25' E 118°04'45546770.7
2016-Apr-27 18:32N 31°20' E 121°34'1812905.9
2016-Apr-27 18:32N 31°02' E 121°29'281004.8
2016-Apr-27 18:30N 31°30' E 121°24'028.1
2016-Apr-27 18:29N 31°30' E 121°23'658592567.5
2016-Apr-27 18:29N 23°02' E 113°32'554936.7
2016-Apr-27 18:28N 22°18' E 114°08'2498.2
2016-Apr-27 18:14N 22°14' E 113°42'68911377.7
2016-Apr-27 18:10N 31°19' E 121°34'6946157.1
2016-Apr-27 18:03N 22°10' E 113°37'6801370.3
2016-Apr-27 17:33N 31°16' E 121°12'177809.7
2016-Apr-27 17:33N 31°30' E 121°23'4611657997.7
2016-Apr-27 17:33N 24°25' E 118°04'4351564536.1
2016-Apr-27 17:33N 31°00' E 121°26'3155480.6
2016-Apr-27 17:33N 31°31' E 121°22'6941249437.1
2016-Apr-27 17:33N 22°12' E 113°40'264946.2
2016-Apr-27 17:33N 22°18' E 114°08'67237218.9
2016-Apr-27 17:32N 31°20' E 121°34'014.0
2016-Apr-27 17:30N 31°19' E 121°34'14424.4
2016-Apr-27 17:28N 31°30' E 121°24'013.8
2016-Apr-27 17:26N 31°30' E 121°23'65814186.5
2016-Apr-27 17:24N 23°04' E 113°29'6577100.5
2016-Apr-27 17:18N 31°21' E 121°33'6575075.9
2016-Apr-27 17:10N 23°02' E 113°32'6391044.1
2016-Apr-27 16:34N 31°00' E 121°26'435521518.5
2016-Apr-27 16:33N 24°25' E 118°04'46197620.5
2016-Apr-27 16:33N 31°31' E 121°22'65857818.9
2016-Apr-27 16:33N 23°04' E 113°29'641164891.5
2016-Apr-27 16:32N 31°16' E 121°12'192716.5
2016-Apr-27 16:32N 31°20' E 121°34'13135.1
2016-Apr-27 16:26N 31°30' E 121°24'13745.4
2016-Apr-27 16:25N 31°19' E 121°34'141467.2
2016-Apr-27 16:24N 31°30' E 121°23'132.4
2016-Apr-27 16:23N 31°30' E 121°23'15510.8
2016-Apr-27 16:22N 31°41' E 121°12'67856753.1
2016-Apr-27 16:21N 22°18' E 114°08'55768.4
2016-Apr-27 16:17N 23°02' E 113°32'22131.3
2016-Apr-27 16:06N 22°42' E 113°41'2240.2
2016-Apr-27 15:33N 23°02' E 113°32'6391149610.9
2016-Apr-27 15:33N 31°00' E 121°26'3017881.0
2016-Apr-27 15:33N 31°30' E 121°23'461184231.6
2016-Apr-27 15:33N 24°25' E 118°04'46044762.7
2016-Apr-27 15:32N 31°30' E 121°23'2177.6
2016-Apr-27 15:32N 31°31' E 121°22'66430272.2
2016-Apr-27 15:31N 22°53' E 113°34'474548.0
2016-Apr-27 15:30N 22°18' E 114°08'523006.6
2016-Apr-27 15:29N 22°55' E 113°27'65057056.2
2016-Apr-27 15:28N 31°16' E 121°12'19599.8
2016-Apr-27 15:26N 31°19' E 121°34'1 5.6
2016-Apr-27 15:11N 31°21' E 121°33'1422.2
2016-Apr-27 14:33N 31°31' E 121°22'3113859.2
2016-Apr-27 14:33N 31°00' E 121°26'2017661.3
2016-Apr-27 14:33N 31°16' E 121°12'4431596519.7
2016-Apr-27 14:33N 24°25' E 118°04'26332609.4
2016-Apr-27 14:33N 23°02' E 113°32'658139426.6
2016-Apr-27 14:32N 31°30' E 121°23'67432373.0
2016-Apr-27 14:31N 22°18' E 114°08'5810394.8
2016-Apr-27 14:31N 23°04' E 113°29'65915393.9
2016-Apr-27 14:28N 31°30' E 121°24'12389.5
2016-Apr-27 14:26N 31°21' E 121°33'6594125.6
2016-Apr-27 14:17N 22°59' E 113°33'65920439.7
2016-Apr-27 14:15N 31°19' E 121°34'14504.1
2016-Apr-27 14:13N 31°30' E 121°23'3365906.0
2016-Apr-27 14:10N 26°08' E 119°34'309509.9
2016-Apr-27 13:34N 31°00' E 121°26'43550468.9
2016-Apr-27 13:33N 24°25' E 118°04'46051756.2
2016-Apr-27 13:32N 31°30' E 121°23'172770.6
2016-Apr-27 13:32N 31°16' E 121°12'181056.9
2016-Apr-27 13:31N 31°31' E 121°22'15364.8
2016-Apr-27 13:29N 31°19' E 121°34'65628134.9
2016-Apr-27 13:27N 23°04' E 113°29'58743.1
2016-Apr-27 13:23N 22°18' E 114°08'67213079.5
2016-Apr-27 13:19N 31°21' E 121°33'121729.5
2016-Apr-27 13:19N 31°30' E 121°24'014.9
2016-Apr-27 13:17N 31°30' E 121°23'3040.5
2016-Apr-27 12:33N 31°00' E 121°26'435111754.0
2016-Apr-27 12:33N 24°25' E 118°04'25130125.0
2016-Apr-27 12:33N 22°18' E 114°08'674303496.6
2016-Apr-27 12:32N 31°30' E 121°23'2849502.6
2016-Apr-27 12:32N 31°02' E 121°29'294990.9
2016-Apr-27 12:32N 31°31' E 121°22'66139646.8
2016-Apr-27 12:31N 22°59' E 113°33'6599643.2
2016-Apr-27 12:27N 31°21' E 121°33'65740062.1
2016-Apr-27 12:26N 23°04' E 113°30'65831598.6
2016-Apr-27 12:25N 31°30' E 121°23'15104.4
2016-Apr-27 12:16N 31°41' E 121°12'153605.2
2016-Apr-27 12:16N 31°30' E 121°24'1392.1
2016-Apr-27 12:07N 31°19' E 121°34'6721183.6
2016-Apr-27 11:33N 22°18' E 114°08'6752429928.3
2016-Apr-27 11:33N 31°31' E 121°22'461276591.4
2016-Apr-27 11:33N 24°25' E 118°04'45456401.5
2016-Apr-27 11:33N 31°19' E 121°34'1656.3
2016-Apr-27 11:33N 31°21' E 121°33'212143.1
2016-Apr-27 11:32N 31°00' E 121°26'24263.7
2016-Apr-27 11:27N 31°17' E 121°06'233827.5
2016-Apr-27 11:26N 31°20' E 121°34'13153.1
2016-Apr-27 11:21N 31°30' E 121°24'049.8
2016-Apr-27 11:21N 31°30' E 121°23'196.7
2016-Apr-27 11:20N 31°30' E 121°23'65810442.9
2016-Apr-27 11:16N 23°04' E 113°29'66011212.3
2016-Apr-27 11:13N 31°41' E 121°12'1320.1
2016-Apr-27 10:33N 31°31' E 121°22'31110894.9
2016-Apr-27 10:33N 31°00' E 121°26'43544701.0
2016-Apr-27 10:33N 24°25' E 118°04'46092012.2
2016-Apr-27 10:32N 31°30' E 121°23'67433721.6
2016-Apr-27 10:31N 22°18' E 114°08'513563.0
2016-Apr-27 10:30N 22°59' E 113°33'66112017.1
2016-Apr-27 10:27N 31°30' E 121°24'12491.3
2016-Apr-27 10:26N 31°21' E 121°33'65715253.9
2016-Apr-27 10:23N 23°04' E 113°29'318.3
2016-Apr-27 10:12N 23°02' E 113°32'657118196.9
2016-Apr-27 10:12N 31°19' E 121°34'14215.1
2016-Apr-27 10:08N 31°30' E 121°23'10304.0
2016-Apr-27 10:06N 31°38' E 121°16'6771232.3
2016-Apr-27 09:33N 22°18' E 114°08'25175312.4
2016-Apr-27 09:33N 24°25' E 118°04'43528445.8
2016-Apr-27 09:32N 31°00' E 121°26'203256.8
2016-Apr-27 09:32N 31°19' E 121°34'151562.8
2016-Apr-27 09:31N 31°31' E 121°22'66144893.2
2016-Apr-27 09:30N 22°59' E 113°33'66144864.9
2016-Apr-27 09:29N 31°30' E 121°23'69549084.7
2016-Apr-27 09:29N 22°12' E 113°38'69732179.6
2016-Apr-27 09:27N 31°35' E 121°18'7509.8
2016-Apr-27 09:26N 31°30' E 121°23'65817177.7
2016-Apr-27 09:24N 23°04' E 113°29'110.3
2016-Apr-27 09:20N 23°04' E 113°30'6402613.3
2016-Apr-27 09:06N 31°57' E 120°08'6621224.5
2016-Apr-27 08:33N 22°18' E 114°08'676173751.8
2016-Apr-27 08:33N 31°32' E 121°23'46259383.8
2016-Apr-27 08:33N 24°25' E 118°04'43512222.6
2016-Apr-27 08:30N 31°00' E 121°26'3113878.0
2016-Apr-27 08:30N 31°31' E 121°22'232.3
2016-Apr-27 08:27N 31°30' E 121°24'143254.5
2016-Apr-27 08:27N 31°19' E 121°34'132102.0
2016-Apr-27 08:26N 31°30' E 121°23'65812665.1
2016-Apr-27 08:23N 23°04' E 113°30'660107951.5
2016-Apr-27 08:23N 31°40' E 121°12'54410.1
2016-Apr-27 08:15N 31°57' E 120°12'64185485.8
2016-Apr-27 08:15N 23°04' E 113°29'658959.1
2016-Apr-27 07:33N 31°30' E 121°23'46048746.0
2016-Apr-27 07:33N 24°25' E 118°04'46133870.7
2016-Apr-27 07:32N 31°31' E 121°22'632670.0
2016-Apr-27 07:31N 31°57' E 120°14'831298.8
2016-Apr-27 07:27N 31°00' E 121°26'37266.7
2016-Apr-27 07:18N 31°36' E 121°17'650.5
2016-Apr-27 07:12N 31°40' E 121°13'6936578.4
2016-Apr-27 07:06N 22°16' E 113°43'69016339.1
2016-Apr-27 07:03N 31°30' E 121°23'3059.3
2016-Apr-27 06:33N 31°00' E 121°26'294578.6
2016-Apr-27 06:32N 31°30' E 121°23'41031.6
2016-Apr-27 06:32N 31°33' E 121°21'46221902.1
2016-Apr-27 06:31N 24°25' E 118°04'46728963.2
2016-Apr-27 06:30N 31°40' E 121°13'14882.8
2016-Apr-27 06:29N 31°30' E 121°23'230.2
2016-Apr-27 06:26N 31°31' E 121°22'1 5.4
2016-Apr-27 06:10N 31°30' E 121°23'1219.1
2016-Apr-27 05:33N 31°39' E 121°13'4071525.3
2016-Apr-27 05:33N 31°00' E 121°26'302591.5
2016-Apr-27 05:32N 31°30' E 121°24'0 7.4
2016-Apr-27 05:29N 31°30' E 121°23'6116873.8
2016-Apr-27 05:29N 32°00' E 120°21'69317949.9
2016-Apr-27 05:27N 22°11' E 113°32'283339959.1
2016-Apr-27 05:27N 24°25' E 118°04'81733062.3
2016-Apr-27 05:25N 37°32' E 122°19'4569956.0
2016-Apr-27 05:23N 29°56' E 122°16'105128.1
2016-Apr-27 04:33N 31°30' E 121°23'308247.4
2016-Apr-27 04:33N 31°00' E 121°26'3112333.6
2016-Apr-27 04:33N 31°31' E 121°22'46179032.8
2016-Apr-27 04:33N 24°25' E 118°04'27210890.9
2016-Apr-27 04:31N 22°15' E 113°43'69016021.3
2016-Apr-27 04:29N 31°30' E 121°23'1691289.1
2016-Apr-27 04:21N 31°25' E 118°05'1613897.2
2016-Apr-27 04:18N 31°39' E 121°13'48709.9
2016-Apr-27 04:14N 32°02' E 120°25'1494249.3
2016-Apr-27 04:12N 29°58' E 121°60'972111.8
2016-Apr-27 04:09N 31°30' E 121°23'44117430.2
2016-Apr-27 04:08N 38°51' E 121°33'103325476.2
2016-Apr-27 04:05N 23°04' E 113°29'65698464.8
2016-Apr-27 04:05N 31°19' E 121°34'2037.7
2016-Apr-27 03:33N 31°00' E 121°26'3118500.4
2016-Apr-27 03:33N 31°31' E 121°22'41301.6
2016-Apr-27 03:33N 31°34' E 121°19'72374.2
2016-Apr-27 03:33N 31°39' E 121°13'11216842.5
2016-Apr-27 03:32N 29°56' E 122°06'9313337.0
2016-Apr-27 03:32N 31°23' E 121°30'457821760.5
2016-Apr-27 03:32N 24°25' E 118°04'26413781.5
2016-Apr-27 03:31N 23°04' E 113°29'65518864.6
2016-Apr-27 03:29N 32°04' E 120°28'58761.1
2016-Apr-27 03:24N 31°30' E 121°23'14200.2
2016-Apr-27 03:20N 31°19' E 121°34'29901.9
2016-Apr-27 03:18N 31°40' E 121°11'15413.3
2016-Apr-27 03:16N 31°30' E 121°23'6619511.4
2016-Apr-27 03:12N 22°59' E 113°33'6276469.7
2016-Apr-27 03:06N 29°56' E 122°15'76140.7
2016-Apr-27 02:33N 31°00' E 121°26'203774.3
2016-Apr-27 02:33N 31°19' E 121°34'2716419.9
2016-Apr-27 02:33N 31°40' E 121°13'12120708.6
2016-Apr-27 02:33N 29°48' E 122°06'10914050.6
2016-Apr-27 02:32N 31°31' E 121°22'101459.8
2016-Apr-27 02:32N 31°38' E 121°14'66219376.7
2016-Apr-27 02:30N 22°59' E 113°33'66115862.4
2016-Apr-27 02:27N 31°30' E 121°23'12743.5
2016-Apr-27 02:26N 31°21' E 121°33'45514124.1
2016-Apr-27 02:24N 24°25' E 118°04'46011915.2
2016-Apr-27 02:22N 31°30' E 121°23'6697644.3
2016-Apr-27 02:17N 22°42' E 113°41'6703210.5
2016-Apr-27 02:04N 32°03' E 120°33'53103.1
2016-Apr-27 01:33N 31°31' E 121°22'152106.3
2016-Apr-27 01:33N 31°19' E 121°34'45425164.6
2016-Apr-27 01:32N 24°25' E 118°04'43544700.5
2016-Apr-27 01:31N 31°00' E 121°26'30825.6
2016-Apr-27 01:29N 31°30' E 121°23'65894822.5
2016-Apr-27 01:29N 23°04' E 113°29'66023309.8
2016-Apr-27 01:27N 31°40' E 121°13'382035.0
2016-Apr-27 01:26N 32°02' E 120°35'16124078.0
2016-Apr-27 01:26N 29°42' E 122°07'61673964.7
2016-Apr-27 01:25N 22°49' E 113°36'14144.8
2016-Apr-27 01:19N 23°02' E 113°32'65811909.2
2016-Apr-27 01:16N 31°30' E 121°23'744758.9
2016-Apr-27 01:15N 31°58' E 120°03'92132.2
2016-Apr-27 00:33N 31°00' E 121°26'317928.7
2016-Apr-27 00:33N 31°31' E 121°22'4613472.1
2016-Apr-27 00:25N 24°25' E 118°04'27465661.0
2016-Apr-27 00:25N 23°07' E 113°17'144951.3
2016-Apr-27 00:25N 23°02' E 113°32'103479213.3
2016-Apr-27 00:24N 38°50' E 121°33'419150776.3
2016-Apr-27 00:24N 31°57' E 120°08'8212885.1
2016-Apr-27 00:23N 31°19' E 121°34'827564.3
2016-Apr-27 00:23N 31°57' E 120°08'1674241.4
2016-Apr-27 00:20N 29°42' E 122°04'102972.4
2016-Apr-27 00:14N 31°21' E 121°33'69426294.6
2016-Apr-27 00:13N 22°11' E 113°38'65715883.0
2016-Apr-27 00:10N 29°56' E 122°15'1032901.8
2016-Apr-27 00:08N 31°30' E 121°23'441765.9
2016-Apr-26 23:33N 38°50' E 121°33'470338168.6
2016-Apr-26 23:33N 31°00' E 121°26'435223502.4
2016-Apr-26 23:33N 24°25' E 118°04'455327680.0
2016-Apr-26 23:33N 31°21' E 121°33'148257.1
2016-Apr-26 23:33N 31°31' E 121°22'642747.3
2016-Apr-26 23:32N 31°57' E 120°13'16013433.8
2016-Apr-26 23:31N 29°48' E 122°05'9720481.9
2016-Apr-26 23:31N 31°21' E 121°33'657112621.4
2016-Apr-26 23:30N 23°02' E 113°32'40427472.3
2016-Apr-26 23:29N 26°45' E 119°43'298107233.1
2016-Apr-26 23:29N 31°30' E 121°23'14615.9
2016-Apr-26 23:28N 31°40' E 121°13'11716818.6
2016-Apr-26 23:28N 29°56' E 122°15'9014129.0
2016-Apr-26 23:27N 31°19' E 121°34'13671.5
2016-Apr-26 23:26N 31°30' E 121°23'658014.1
2016-Apr-26 23:25N 31°57' E 120°14'27145.0
2016-Apr-26 23:14N 32°01' E 120°46'40390.3
2016-Apr-26 23:08N 31°31' E 121°17'105182.0
2016-Apr-26 22:34N 29°55' E 122°07'103372074.1
2016-Apr-26 22:34N 31°31' E 121°22'152740.7
2016-Apr-26 22:33N 31°19' E 121°34'201666.8
2016-Apr-26 22:32N 31°00' E 121°26'301651.2
2016-Apr-26 22:31N 31°30' E 121°23'695100109.8
2016-Apr-26 22:31N 22°12' E 113°39'107990327.7
2016-Apr-26 22:30N 38°50' E 121°34'1044341522.1
2016-Apr-26 22:30N 22°52' E 113°33'265119107.5
2016-Apr-26 22:30N 24°25' E 118°04'26378783.2
2016-Apr-26 22:30N 23°02' E 113°32'65859208.6
2016-Apr-26 22:29N 31°31' E 121°21'39055.4
2016-Apr-26 22:29N 31°30' E 121°23'12192.3
2016-Apr-26 22:25N 31°21' E 121°33'927377.1
2016-Apr-26 22:25N 29°56' E 122°15'11710298.7
2016-Apr-26 22:24N 31°40' E 121°13'66027018.0
2016-Apr-26 22:22N 23°04' E 113°29'64840205.9
2016-Apr-26 22:21N 31°60' E 120°20'112.7
2016-Apr-26 22:15N 32°00' E 120°22'3577389.5
2016-Apr-26 22:12N 37°57' E 119°54'4057545.7
2016-Apr-26 22:09N 31°21' E 121°33'1423.0
2016-Apr-26 21:33N 31°31' E 121°22'9870341.7
2016-Apr-26 21:33N 29°57' E 121°55'6401151263.5
2016-Apr-26 21:33N 22°15' E 113°42'669141716.6
2016-Apr-26 21:32N 31°00' E 121°26'271940.6
2016-Apr-26 21:31N 31°28' E 121°26'44343055.7
2016-Apr-26 21:31N 38°50' E 121°34'1079117725.3
2016-Apr-26 21:30N 22°12' E 113°39'693311758.1
2016-Apr-26 21:30N 31°21' E 121°33'26825.6
2016-Apr-26 21:28N 31°40' E 121°13'46718065.8
2016-Apr-26 21:27N 24°25' E 118°04'4008368.8
2016-Apr-26 21:24N 29°56' E 122°15'62548940.5
2016-Apr-26 21:23N 23°02' E 113°32'65957839.5
2016-Apr-26 21:22N 31°30' E 121°23'14212.2
2016-Apr-26 21:19N 31°19' E 121°34'6563352.0
2016-Apr-26 21:07N 23°04' E 113°29'6581168.3
2016-Apr-26 20:33N 31°31' E 121°22'141713.1
2016-Apr-26 20:32N 31°21' E 121°33'211414.9
2016-Apr-26 20:32N 31°00' E 121°26'252846.9
2016-Apr-26 20:31N 31°26' E 121°29'6347.2
2016-Apr-26 20:30N 31°30' E 121°23'132421.7
2016-Apr-26 20:30N 31°40' E 121°13'46767204.7
2016-Apr-26 20:29N 24°25' E 118°04'26327805.8
2016-Apr-26 20:29N 23°02' E 113°32'6572365097.9
2016-Apr-26 20:29N 31°21' E 121°33'922305.5
2016-Apr-26 20:26N 29°56' E 122°15'6272231.2
2016-Apr-26 20:09N 22°56' E 113°36'6611106.0
2016-Apr-26 19:34N 31°31' E 121°22'665265984.1
2016-Apr-26 19:33N 22°52' E 113°34'66782817.3
2016-Apr-26 19:33N 31°40' E 121°13'467210014.6
2016-Apr-26 19:33N 24°25' E 118°04'435156451.7
2016-Apr-26 19:33N 31°00' E 121°26'30409.0
2016-Apr-26 19:28N 31°30' E 121°23'659592842.1
2016-Apr-26 19:28N 23°02' E 113°32'51951.8
2016-Apr-26 19:25N 22°11' E 113°38'69469371.0
2016-Apr-26 19:24N 31°21' E 121°33'921211.6
2016-Apr-26 19:20N 29°56' E 122°15'92165965.1
2016-Apr-26 19:20N 31°21' E 121°33'636.3
2016-Apr-26 19:09N 31°26' E 121°29'0 0.0
2016-Apr-26 18:33N 31°26' E 121°29'711981.9
2016-Apr-26 18:33N 31°20' E 121°33'2647557.6
2016-Apr-26 18:33N 31°40' E 121°13'133713.0
2016-Apr-26 18:33N 31°30' E 121°23'305123.8
2016-Apr-26 18:32N 31°00' E 121°26'2115014.5
2016-Apr-26 18:32N 31°21' E 121°33'141247.9
2016-Apr-26 18:32N 31°31' E 121°22'66731597.5
2016-Apr-26 18:30N 22°55' E 113°27'441154.2
2016-Apr-26 18:28N 22°10' E 113°32'70215513.4
2016-Apr-26 18:25N 31°44' E 121°07'6602465.4
2016-Apr-26 18:09N 23°02' E 113°32'6601102.8
2016-Apr-26 17:33N 31°40' E 121°12'699139852.6
2016-Apr-26 17:33N 22°10' E 113°37'697156869.8
2016-Apr-26 17:33N 31°31' E 121°22'461184413.5
2016-Apr-26 17:33N 24°25' E 118°04'46566983.1
2016-Apr-26 17:32N 31°38' E 121°15'102457.5
2016-Apr-26 17:32N 31°30' E 121°23'658592602.2
2016-Apr-26 17:32N 23°04' E 113°29'63832370.0
2016-Apr-26 17:31N 31°00' E 121°26'21872.7
2016-Apr-26 17:29N 31°21' E 121°33'119.0
2016-Apr-26 17:25N 31°19' E 121°34'272404.1
2016-Apr-26 17:24N 31°40' E 121°13'1316.0
2016-Apr-26 16:33N 31°30' E 121°23'5787.7
2016-Apr-26 16:33N 31°34' E 121°20'111001.9
2016-Apr-26 16:32N 31°26' E 121°29'458206234.0
2016-Apr-26 16:32N 24°25' E 118°04'46151859.3
2016-Apr-26 16:32N 31°31' E 121°22'72581.3
2016-Apr-26 16:32N 31°37' E 121°17'21930.5
2016-Apr-26 16:30N 31°21' E 121°33'26639.0
2016-Apr-26 16:28N 31°40' E 121°13'66048520.8
2016-Apr-26 16:27N 23°04' E 113°29'6563202.1
2016-Apr-26 16:15N 31°19' E 121°34'1521.9
2016-Apr-26 15:33N 31°31' E 121°22'661158595.3
2016-Apr-26 15:33N 23°04' E 113°25'66174407.9
2016-Apr-26 15:32N 31°33' E 121°20'462128074.5
2016-Apr-26 15:32N 24°25' E 118°04'46124766.7
2016-Apr-26 15:31N 31°30' E 121°24'135.8
2016-Apr-26 15:30N 31°30' E 121°23'1254.5
2016-Apr-26 15:16N 31°21' E 121°33'922256.8
2016-Apr-26 15:14N 29°56' E 122°15'1178115.9
2016-Apr-26 15:13N 31°40' E 121°13'3584139.1
2016-Apr-26 15:08N 37°26' E 119°23'370641.2
2016-Apr-26 14:33N 31°30' E 121°23'1325.1
2016-Apr-26 14:33N 31°31' E 121°22'143300.7
2016-Apr-26 14:33N 31°21' E 121°33'455234051.5
2016-Apr-26 14:33N 24°25' E 118°04'46259349.2
2016-Apr-26 14:32N 31°31' E 121°24'36969928.8
2016-Apr-26 14:32N 37°26' E 119°23'371148226.4
2016-Apr-26 14:32N 31°30' E 121°25'111189.7
2016-Apr-26 14:31N 31°21' E 121°33'26333.1
2016-Apr-26 14:27N 31°40' E 121°13'66134984.1
2016-Apr-26 14:25N 23°02' E 113°32'62512370.4
2016-Apr-26 14:22N 29°56' E 122°15'911464.3
2016-Apr-26 14:19N 31°19' E 121°34'631.0
2016-Apr-26 14:07N 31°21' E 121°27'915.3
2016-Apr-26 13:33N 31°30' E 121°25'3676.9
2016-Apr-26 13:33N 31°31' E 121°22'5193.4
2016-Apr-26 13:31N 31°29' E 121°27'9198.9
2016-Apr-26 13:28N 31°21' E 121°33'121115.6
2016-Apr-26 13:28N 31°30' E 121°23'65914373.6
2016-Apr-26 13:25N 23°02' E 113°32'657168861.7
2016-Apr-26 13:25N 31°19' E 121°34'271859.2
2016-Apr-26 13:24N 31°40' E 121°13'144565.2
2016-Apr-26 13:24N 31°30' E 121°23'1043272.2
2016-Apr-26 13:22N 29°56' E 122°15'105131.2
2016-Apr-26 12:33N 31°31' E 121°22'3225.6
2016-Apr-26 12:33N 31°30' E 121°25'371333632.0
2016-Apr-26 12:33N 37°26' E 119°23'35853656.7
2016-Apr-26 12:32N 31°40' E 121°13'271642.5
2016-Apr-26 12:31N 31°19' E 121°34'8775.7
2016-Apr-26 12:31N 31°26' E 121°30'6151.1
2016-Apr-26 12:28N 31°21' E 121°33'6738.7
2016-Apr-26 12:28N 31°26' E 121°29'988039.2
2016-Apr-26 12:27N 29°56' E 122°15'1477225.7
2016-Apr-26 12:26N 32°01' E 120°46'66735305.6
2016-Apr-26 12:25N 22°56' E 113°33'66312051.7
2016-Apr-26 12:21N 31°30' E 121°23'65912350.5
2016-Apr-26 12:18N 23°02' E 113°32'6394997.2
2016-Apr-26 12:11N 31°00' E 121°26'21421.3
2016-Apr-26 12:08N 31°21' E 121°33'6571146.9
2016-Apr-26 11:33N 23°04' E 113°29'659592776.2
2016-Apr-26 11:33N 31°31' E 121°22'11960.6
2016-Apr-26 11:32N 31°23' E 121°30'2328169.2
2016-Apr-26 11:32N 31°16' E 121°04'256047.1
2016-Apr-26 11:32N 31°21' E 121°33'115781.0
2016-Apr-26 11:32N 31°30' E 121°25'295003.3
2016-Apr-26 11:32N 31°00' E 121°26'696556.0
2016-Apr-26 11:31N 32°01' E 120°47'308342.8
2016-Apr-26 11:31N 31°40' E 121°13'27735.3
2016-Apr-26 11:29N 31°19' E 121°34'8307.9
2016-Apr-26 11:27N 31°26' E 121°28'987867.0
2016-Apr-26 11:26N 29°56' E 122°15'921050.3
2016-Apr-26 11:21N 31°21' E 121°33'65876396.4
2016-Apr-26 11:21N 23°01' E 113°32'184878.7
2016-Apr-26 11:08N 23°20' E 116°50'529915.7
2016-Apr-26 10:33N 31°17' E 121°06'242231.6
2016-Apr-26 10:33N 31°00' E 121°26'525145478.2
2016-Apr-26 10:33N 23°18' E 116°47'551283124.4
2016-Apr-26 10:32N 31°31' E 121°22'1059258.1
2016-Apr-26 10:32N 29°56' E 122°15'927720.2
2016-Apr-26 10:31N 31°21' E 121°33'121116.0
2016-Apr-26 10:30N 31°30' E 121°23'9735.9
2016-Apr-26 10:30N 31°21' E 121°27'235786.3
2016-Apr-26 10:29N 31°40' E 121°13'3045212.7
2016-Apr-26 10:26N 26°47' E 119°43'4054158.9
2016-Apr-26 10:20N 23°01' E 113°32'6599307.8
2016-Apr-26 10:16N 31°26' E 121°28'549778.8
2016-Apr-26 09:34N 23°21' E 116°39'526947165.5
2016-Apr-26 09:33N 31°00' E 121°26'315837.7
2016-Apr-26 09:33N 31°31' E 121°22'11778.6
2016-Apr-26 09:32N 31°21' E 121°27'7738.2
2016-Apr-26 09:32N 31°28' E 121°25'16977.9
2016-Apr-26 09:31N 31°40' E 121°13'46752503.0
2016-Apr-26 09:30N 24°25' E 118°04'461552716.6
2016-Apr-26 09:30N 31°30' E 121°23'6196.7
2016-Apr-26 09:28N 31°26' E 121°28'65914044.3
2016-Apr-26 09:25N 23°01' E 113°32'65812139.1
2016-Apr-26 09:22N 31°19' E 121°34'13175.0
2016-Apr-26 09:18N 31°30' E 121°23'2939.8
2016-Apr-26 08:34N 31°00' E 121°26'525630400.0
2016-Apr-26 08:33N 23°25' E 116°33'1037532.4
2016-Apr-26 08:33N 24°25' E 118°04'4611658096.9
2016-Apr-26 08:33N 31°30' E 121°23'158.6
2016-Apr-26 08:31N 31°31' E 121°22'85521.2
2016-Apr-26 08:31N 31°26' E 121°28'659148342.7
2016-Apr-26 08:31N 23°01' E 113°32'65584209.9
2016-Apr-26 08:30N 31°21' E 121°27'6143.7
2016-Apr-26 08:28N 31°19' E 121°34'27237.4
2016-Apr-26 08:21N 31°40' E 121°13'26211.7
2016-Apr-26 08:14N 31°21' E 121°33'1060.2
2016-Apr-26 08:04N 31°28' E 121°25'460894.7
2016-Apr-26 07:33N 24°25' E 118°04'435195562.1
2016-Apr-26 07:33N 31°00' E 121°26'212136.8
2016-Apr-26 07:32N 31°21' E 121°27'112142.7
2016-Apr-26 07:32N 31°31' E 121°22'70126479.6
2016-Apr-26 07:32N 31°58' E 120°05'8475750.8
2016-Apr-26 07:32N 31°19' E 121°34'32673.6
2016-Apr-26 07:29N 31°43' E 121°08'571.3
2016-Apr-26 07:25N 31°40' E 121°13'13523.6
2016-Apr-26 07:23N 31°30' E 121°23'3129.2
2016-Apr-26 07:22N 31°28' E 121°25'271300.1
2016-Apr-26 07:21N 31°47' E 121°01'319345.8
2016-Apr-26 07:20N 31°26' E 121°28'6170.4
2016-Apr-26 07:18N 31°21' E 121°33'2127.7
2016-Apr-26 06:33N 31°00' E 121°26'3122252.3
2016-Apr-26 06:33N 31°31' E 121°22'983516.4
2016-Apr-26 06:31N 29°59' E 121°59'9414725.5
2016-Apr-26 06:31N 31°28' E 121°25'1017820.4
2016-Apr-26 06:31N 31°21' E 121°33'177.8
2016-Apr-26 06:30N 31°19' E 121°34'658263033.6
2016-Apr-26 06:30N 23°01' E 113°32'65984764.5
2016-Apr-26 06:29N 31°30' E 121°23'147181.0
2016-Apr-26 06:29N 31°40' E 121°13'574528.8
2016-Apr-26 06:28N 31°56' E 120°09'742567.9
2016-Apr-26 06:27N 31°26' E 121°28'51286.8
2016-Apr-26 06:26N 31°21' E 121°27'27823.7
2016-Apr-26 06:24N 31°43' E 121°08'13738.6
2016-Apr-26 06:23N 31°35' E 121°19'6295.9
2016-Apr-26 06:22N 31°30' E 121°23'1934386776.9
2016-Apr-26 06:22N 00°02' E 114°09'192681592.8
2016-Apr-26 06:20N 31°21' E 121°33'690112952.4
2016-Apr-26 06:20N 22°15' E 113°39'6947764.5
2016-Apr-26 06:15N 31°37' E 121°16'69423582.7
2016-Apr-26 06:13N 22°14' E 113°41'25208.4
2016-Apr-26 06:06N 22°39' E 113°43'26110817.4
2016-Apr-26 06:04N 24°25' E 118°04'466905.8
2016-Apr-26 05:33N 31°40' E 121°13'6712415208.2
2016-Apr-26 05:33N 22°43' E 113°41'67075359.8
2016-Apr-26 05:33N 31°34' E 121°20'112723.1
2016-Apr-26 05:33N 31°26' E 121°28'254150.2
2016-Apr-26 05:32N 31°00' E 121°26'3013466.0
2016-Apr-26 05:32N 31°30' E 121°23'2915114.3
2016-Apr-26 05:32N 31°01' E 121°29'301441.7
2016-Apr-26 05:31N 31°31' E 121°22'66024482.3
2016-Apr-26 05:29N 23°01' E 113°32'62346740.9
2016-Apr-26 05:28N 29°59' E 122°08'851703.0
2016-Apr-26 05:25N 31°19' E 121°34'45411280.7
2016-Apr-26 05:23N 24°25' E 118°04'46643012.0
2016-Apr-26 05:22N 31°56' E 120°14'7136659.4
2016-Apr-26 05:22N 31°21' E 121°27'451556.9
2016-Apr-26 04:34N 38°52' E 121°32'436523727.9
2016-Apr-26 04:33N 31°36' E 121°18'66811615.1
2016-Apr-26 04:30N 22°49' E 113°36'66739336.6
2016-Apr-26 04:29N 31°31' E 121°22'69127631.2
2016-Apr-26 04:28N 22°15' E 113°43'69063721.4
2016-Apr-26 04:27N 31°28' E 121°25'11361.4
2016-Apr-26 04:25N 31°19' E 121°34'201138.0
2016-Apr-26 04:24N 31°00' E 121°26'43515645.2
2016-Apr-26 04:22N 24°25' E 118°04'45327200.0
2016-Apr-26 04:21N 31°21' E 121°27'894049.8
2016-Apr-26 04:20N 29°59' E 122°08'11110545.8
2016-Apr-26 04:19N 31°40' E 121°13'35791852.6
2016-Apr-26 04:19N 37°35' E 122°05'3717773.0
2016-Apr-26 04:16N 31°25' E 121°32'75408.5
2016-Apr-26 04:05N 31°57' E 120°12'62116.7
2016-Apr-26 03:33N 31°32' E 121°19'3256.6
2016-Apr-26 03:33N 31°31' E 121°22'44016668.4
2016-Apr-26 03:31N 38°51' E 121°33'45038556.4
2016-Apr-26 03:30N 31°21' E 121°27'102873.8
2016-Apr-26 03:30N 31°30' E 121°23'3013434.3
2016-Apr-26 03:30N 31°00' E 121°26'712886.4
2016-Apr-26 03:29N 29°59' E 122°07'8513331.8
2016-Apr-26 03:28N 31°19' E 121°34'37510148.1
2016-Apr-26 03:26N 37°33' E 122°14'3679430.9
2016-Apr-26 03:24N 31°28' E 121°25'65979137.1
2016-Apr-26 03:23N 23°01' E 113°32'859.6
2016-Apr-26 03:16N 23°02' E 113°23'663943.1
2016-Apr-26 02:33N 31°32' E 121°19'3730.4
2016-Apr-26 02:33N 31°31' E 121°22'65940190.9
2016-Apr-26 02:32N 23°04' E 113°29'21639.7
2016-Apr-26 02:32N 23°05' E 113°26'10341861407.4
2016-Apr-26 02:32N 38°50' E 121°34'450147110.2
2016-Apr-26 02:32N 31°21' E 121°27'61064.5
2016-Apr-26 02:32N 31°19' E 121°34'142782.5
2016-Apr-26 02:31N 31°30' E 121°23'6513.4
2016-Apr-26 02:30N 31°26' E 121°28'255707.8
2016-Apr-26 02:30N 31°00' E 121°26'911320.4
2016-Apr-26 02:26N 31°58' E 120°04'15565.0
2016-Apr-26 02:25N 31°60' E 120°21'4718741.9
2016-Apr-26 02:21N 24°25' E 118°04'3919255.0
2016-Apr-26 02:19N 29°50' E 122°07'62029367.8
2016-Apr-26 02:17N 22°54' E 113°34'65911984.6
2016-Apr-26 02:14N 32°03' E 120°25'46343.5
2016-Apr-26 02:06N 31°40' E 121°13'1018.5
2016-Apr-26 01:33N 31°32' E 121°19'131612.0
2016-Apr-26 01:33N 31°21' E 121°27'11897.8
2016-Apr-26 01:32N 31°31' E 121°22'2024045.0
2016-Apr-26 01:32N 31°17' E 121°05'2529625.0
2016-Apr-26 01:32N 31°00' E 121°26'20853.5
2016-Apr-26 01:31N 31°19' E 121°34'66420612.5
2016-Apr-26 01:29N 22°49' E 113°36'26325635.4
2016-Apr-26 01:28N 24°25' E 118°04'46157179.6
2016-Apr-26 01:28N 31°30' E 121°23'692533.6
2016-Apr-26 01:26N 31°57' E 120°09'64428638.9
2016-Apr-26 01:25N 23°02' E 113°24'6636167.5
2016-Apr-26 01:18N 31°28' E 121°25'475.4
2016-Apr-26 01:15N 31°26' E 121°28'65922577.7
2016-Apr-26 01:14N 23°03' E 113°30'6394167.1
2016-Apr-26 01:04N 31°58' E 120°04'68131.6
2016-Apr-26 00:33N 31°31' E 121°18'28551.3
2016-Apr-26 00:33N 31°32' E 121°20'22324.2
2016-Apr-26 00:33N 31°31' E 121°22'112030.8
2016-Apr-26 00:33N 31°21' E 121°27'7769569.6
2016-Apr-26 00:33N 31°57' E 120°06'465837620.2
2016-Apr-26 00:33N 24°25' E 118°04'46627966.8
2016-Apr-26 00:32N 31°57' E 120°13'844316.1
2016-Apr-26 00:31N 31°00' E 121°26'63914835.3
2016-Apr-26 00:28N 23°03' E 113°30'20634.5
2016-Apr-26 00:26N 22°45' E 113°39'66819075.6
2016-Apr-26 00:24N 31°26' E 121°29'30191.5
2016-Apr-26 00:15N 30°58' E 121°17'43233.0
2016-Apr-26 00:04N 31°40' E 121°13'55109.1
2016-Apr-25 23:34N 31°57' E 120°11'231336.2
2016-Apr-25 23:32N 32°00' E 120°38'475171139.7
2016-Apr-25 23:32N 24°25' E 118°04'461414907.0
2016-Apr-25 23:32N 31°31' E 121°22'72462.9
2016-Apr-25 23:32N 31°36' E 121°17'3713469.4
2016-Apr-25 23:32N 30°59' E 121°21'5238.3
2016-Apr-25 23:31N 31°00' E 121°26'471564600.0
2016-Apr-25 23:31N 38°51' E 121°33'41793903.6
2016-Apr-25 23:30N 31°58' E 120°18'64642278.9
2016-Apr-25 23:30N 23°03' E 113°30'65712718.1
2016-Apr-25 23:26N 31°21' E 121°33'1772871.7
2016-Apr-25 23:23N 31°25' E 118°05'1728968.6
2016-Apr-25 23:22N 31°21' E 121°27'520.7
2016-Apr-25 23:07N 31°26' E 121°29'813.6
2016-Apr-25 22:33N 31°31' E 121°22'313362.4
2016-Apr-25 22:33N 31°00' E 121°26'411860.1
2016-Apr-25 22:31N 31°39' E 121°13'575810364955.1
2016-Apr-25 22:31N 37°47' W 122°16'6488382894.2
2016-Apr-25 22:30N 23°03' E 113°30'26363158.9
2016-Apr-25 22:30N 24°25' E 118°04'432259244.3
2016-Apr-25 22:30N 30°59' E 121°23'47132006.0
2016-Apr-25 22:29N 38°50' E 121°34'44058665.4
2016-Apr-25 22:29N 31°30' E 121°23'71139.1
2016-Apr-25 22:28N 31°26' E 121°29'536.8
2016-Apr-25 22:20N 31°21' E 121°27'231250.7
2016-Apr-25 22:19N 31°40' E 121°13'29113.4
2016-Apr-25 22:04N 32°01' E 120°48'69136.5
2016-Apr-25 21:33N 31°00' E 121°26'470282045.7
2016-Apr-25 21:33N 38°50' E 121°34'44052744.5
2016-Apr-25 21:33N 31°31' E 121°22'461207456.0
2016-Apr-25 21:33N 24°25' E 118°04'46737337.3
2016-Apr-25 21:32N 31°40' E 121°13'231807.8
2016-Apr-25 21:31N 31°21' E 121°27'550.2
2016-Apr-25 21:25N 31°26' E 121°29'7164.9
2016-Apr-25 21:23N 31°30' E 121°23'7 7.9
2016-Apr-25 20:32N 31°26' E 121°29'81034.0
2016-Apr-25 20:32N 31°31' E 121°22'3122226.5
2016-Apr-25 20:32N 31°00' E 121°26'201054.0
2016-Apr-25 20:31N 31°19' E 121°34'45429208.6
2016-Apr-25 20:30N 24°25' E 118°04'4535666.7
2016-Apr-25 20:25N 31°21' E 121°27'66111722.6
2016-Apr-25 20:22N 22°52' E 113°33'752.9
2016-Apr-25 20:14N 22°57' E 113°37'259381.8
2016-Apr-25 19:33N 24°25' E 118°04'45358285.6
2016-Apr-25 19:33N 31°21' E 121°27'112787.0
2016-Apr-25 19:33N 31°31' E 121°22'312782.1
2016-Apr-25 19:32N 31°00' E 121°26'20109.7
2016-Apr-25 19:21N 31°19' E 121°34'362201.9
2016-Apr-25 19:20N 31°46' E 121°04'9156.0
2016-Apr-25 19:17N 31°40' E 121°13'352349.5
2016-Apr-25 19:16N 32°00' E 120°40'542049.0
2016-Apr-25 19:14N 31°26' E 121°29'645.0
2016-Apr-25 19:06N 31°21' E 121°33'021.6
2016-Apr-25 19:06N 31°21' E 121°33'65876359.2
2016-Apr-25 19:05N 22°57' E 113°37'6611219.5
2016-Apr-25 18:33N 31°41' E 121°11'306308.3
2016-Apr-25 18:33N 31°21' E 121°38'4549.6
2016-Apr-25 18:32N 31°21' E 121°33'2631120.4
2016-Apr-25 18:32N 31°40' E 121°13'46734288.9
2016-Apr-25 18:31N 24°25' E 118°04'45342947.3
2016-Apr-25 18:31N 31°21' E 121°27'61596.7
2016-Apr-25 18:30N 31°19' E 121°34'65716779.3
2016-Apr-25 18:28N 22°57' E 113°37'6391895.0
2016-Apr-25 18:08N 31°00' E 121°26'0 0.0
2016-Apr-25 17:33N 31°00' E 121°26'318560.2
2016-Apr-25 17:33N 31°31' E 121°22'113828.3
2016-Apr-25 17:33N 31°24' E 121°31'45712281.1
2016-Apr-25 17:31N 24°25' E 118°04'259186761.6
2016-Apr-25 17:31N 22°57' E 113°37'660475482.4
2016-Apr-25 17:31N 31°38' E 121°14'201922.1
2016-Apr-25 17:30N 31°21' E 121°27'656.5
2016-Apr-25 17:23N 31°19' E 121°34'271095.8
2016-Apr-25 17:22N 31°40' E 121°13'262277.9
2016-Apr-25 17:21N 31°21' E 121°33'31192.6
2016-Apr-25 17:12N 31°02' E 121°04'361105.0
2016-Apr-25 17:10N 31°35' E 121°18'41603.3
2016-Apr-25 17:06N 32°00' E 120°40'3562.9
2016-Apr-25 16:33N 31°40' E 121°13'46780005.6
2016-Apr-25 16:32N 24°25' E 118°04'453116569.9
2016-Apr-25 16:32N 31°21' E 121°27'654112180.6
2016-Apr-25 16:32N 22°57' E 113°37'657124519.3
2016-Apr-25 16:31N 31°19' E 121°34'203411.9
2016-Apr-25 16:31N 31°00' E 121°26'315563.1
2016-Apr-25 16:31N 31°31' E 121°22'10404.1
2016-Apr-25 16:29N 31°38' E 121°14'34132.0
2016-Apr-25 16:14N 32°01' E 120°45'4460.2
2016-Apr-25 15:30N 31°31' E 121°22'152607.8
2016-Apr-25 15:30N 31°19' E 121°34'454327136.4
2016-Apr-25 15:30N 24°25' E 118°04'46131298.6
2016-Apr-25 15:29N 31°30' E 121°23'1017809.4
2016-Apr-25 15:29N 31°21' E 121°27'219253.0
2016-Apr-25 15:29N 31°00' E 121°26'396724.3
2016-Apr-25 15:28N 31°38' E 121°14'2313.1
2016-Apr-25 15:28N 31°40' E 121°13'11324032.7
2016-Apr-25 15:28N 29°55' E 122°03'617221998.0
2016-Apr-25 15:28N 23°03' E 113°30'66123111.5
2016-Apr-25 15:26N 32°01' E 120°45'66385235.4
2016-Apr-25 15:25N 22°57' E 113°37'8189.3
2016-Apr-25 15:23N 22°54' E 113°30'6665352.3
2016-Apr-25 15:15N 31°30' E 121°23'2 2.6
2016-Apr-25 14:33N 31°31' E 121°22'126258.0
2016-Apr-25 14:33N 31°40' E 121°13'4149168.1
2016-Apr-25 14:33N 31°02' E 121°29'21484.8
2016-Apr-25 14:33N 31°00' E 121°26'43517578.8
2016-Apr-25 14:32N 24°25' E 118°04'26312632.3
2016-Apr-25 14:30N 23°03' E 113°30'65894752.9
2016-Apr-25 14:30N 31°26' E 121°29'664597259.9
2016-Apr-25 14:30N 23°02' E 113°22'65918535.0
2016-Apr-25 14:28N 31°21' E 121°27'20237.2
2016-Apr-25 14:23N 31°38' E 121°14'20110.5
2016-Apr-25 14:12N 31°19' E 121°13'1522.8
2016-Apr-25 13:33N 31°31' E 121°22'65823700.2
2016-Apr-25 13:32N 23°03' E 113°30'4483.7
2016-Apr-25 13:31N 23°05' E 113°26'643462695.3
2016-Apr-25 13:31N 31°17' E 121°11'2125397.7
2016-Apr-25 13:31N 31°00' E 121°26'211233.7
2016-Apr-25 13:30N 31°21' E 121°27'23320.0
2016-Apr-25 13:26N 31°40' E 121°13'26746.5
2016-Apr-25 13:24N 31°21' E 121°33'24481.3
2016-Apr-25 13:21N 31°39' E 121°13'18751.7
2016-Apr-25 13:19N 31°26' E 121°29'303876.2
2016-Apr-25 13:19N 30°58' E 121°15'89767.4
2016-Apr-25 13:12N 29°41' E 122°07'89742.9
2016-Apr-25 13:05N 30°57' E 121°17'505974.7
2016-Apr-25 12:34N 22°36' E 120°12'539646279.1
2016-Apr-25 12:33N 31°31' E 121°22'191617.6
2016-Apr-25 12:33N 31°17' E 121°08'212322.0
2016-Apr-25 12:32N 30°58' E 121°19'24766.4
2016-Apr-25 12:30N 31°21' E 121°27'6411.3
2016-Apr-25 12:30N 31°19' E 121°33'65649225.0
2016-Apr-25 12:29N 23°04' E 113°29'63811666.8
2016-Apr-25 12:25N 31°00' E 121°26'25191.5
2016-Apr-25 12:17N 31°26' E 121°29'2432.4
2016-Apr-25 11:32N 31°17' E 121°02'223214.4
2016-Apr-25 11:32N 31°31' E 121°22'112269.7
2016-Apr-25 11:32N 31°21' E 121°27'226548.1
2016-Apr-25 11:31N 30°59' E 121°23'4018087.7
2016-Apr-25 11:31N 31°39' E 121°13'409565.7
2016-Apr-25 11:31N 31°00' E 121°26'6478382.4
2016-Apr-25 11:26N 22°55' E 113°27'67037662.9
2016-Apr-25 11:25N 31°40' E 121°13'13470.4
2016-Apr-25 11:24N 31°30' E 121°23'1151155.0
2016-Apr-25 11:18N 29°42' E 122°05'85115.5
2016-Apr-25 10:33N 31°00' E 121°26'315282.8
2016-Apr-25 10:33N 31°31' E 121°22'112414.6
2016-Apr-25 10:33N 31°39' E 121°13'12311074.9
2016-Apr-25 10:32N 29°43' E 122°02'123147569.5
2016-Apr-25 10:32N 31°39' E 121°13'67787096.7
2016-Apr-25 10:32N 22°19' E 114°06'67086150.0
2016-Apr-25 10:31N 31°21' E 121°27'61490.6
2016-Apr-25 10:31N 31°19' E 121°34'8653.9
2016-Apr-25 10:30N 31°26' E 121°29'768.4
2016-Apr-25 10:24N 31°30' E 121°23'30800.8
2016-Apr-25 10:22N 31°01' E 121°29'64856859.0
2016-Apr-25 10:21N 22°54' E 113°31'66021794.3
2016-Apr-25 10:20N 32°01' E 120°26'771613.7
2016-Apr-25 10:17N 30°58' E 121°16'6654460.3
2016-Apr-25 10:08N 22°12' E 113°40'6731178.4
2016-Apr-25 09:33N 31°00' E 121°26'  
Track history (hours):
 
Tides and Currents Weather Stations Pressure Air Temp Water Temp Dewpoint Dewpoint Depression Visibility Wind Speed Wind Dir Waves Ship Positions

Callsign 000000 (name unknown)

Last reported at 2016-May-05 09:33 UTC. Time now 2016-May-05 10:29 UTC.
Position N 24°25' E 118°04'.

Type: Fishing. MMSI: 200007452.

Date/timePositionNaut miles runAvg speedWind from/ knotsBaromVisibWave heightAir tempDewpointWater temp
2016-May-05 09:33N 24°25' E 118°04'429386327.0
2016-May-05 09:33N 30°58' E 121°18'667171445.7
2016-May-05 09:33N 22°12' E 113°40'697179219.1
2016-May-05 09:33N 31°37' E 121°18'61023.4
2016-May-05 09:33N 31°33' E 121°22'172866.3
2016-May-05 09:32N 31°19' E 121°34'232232.9
2016-May-05 09:32N 31°38' E 121°18'66259560.0
2016-May-05 09:31N 23°03' E 113°30'640767616.6
2016-May-05 09:31N 31°01' E 121°28'41305.3
2016-May-05 09:23N 31°40' E 121°14'58381.8
2016-May-05 09:14N 31°56' E 120°08'8437897.6
2016-May-05 09:14N 31°06' E 121°27'65019822.2
2016-May-05 09:12N 22°55' E 113°30'66649914.9
2016-May-05 09:11N 31°30' E 121°24'1016.1
2016-May-05 08:34N 31°38' E 121°18'46657797.2
2016-May-05 08:33N 24°25' E 118°04'440197887.8
2016-May-05 08:33N 31°06' E 121°27'326813.5
2016-May-05 08:33N 31°37' E 121°18'223840.5
2016-May-05 08:32N 31°19' E 121°34'241615.6
2016-May-05 08:31N 30°59' E 121°19'40699.9
2016-May-05 08:28N 31°39' E 121°13'241239.2
2016-May-05 08:27N 31°16' E 121°03'1011315.0
2016-May-05 08:22N 29°53' E 122°08'61912115.7
2016-May-05 08:19N 23°02' E 113°31'66126453.9
2016-May-05 08:18N 31°40' E 121°14'14109.0
2016-May-05 08:10N 31°30' E 121°24'2033.7
2016-May-05 07:33N 31°17' E 121°05'216861.1
2016-May-05 07:33N 30°57' E 121°12'40145542.2
2016-May-05 07:33N 31°37' E 121°18'465278938.1
2016-May-05 07:33N 24°25' E 118°04'46619954.0
2016-May-05 07:32N 31°38' E 121°18'232431.5
2016-May-05 07:31N 31°19' E 121°34'665104009.3
2016-May-05 07:31N 23°04' E 113°16'6689469.3
2016-May-05 07:27N 31°40' E 121°14'66110168.0
2016-May-05 07:23N 23°03' E 113°31'9463576.6
2016-May-05 07:07N 36°48' E 122°23'7761386.9
2016-May-05 06:33N 24°25' E 118°04'4541634380.4
2016-May-05 06:33N 31°19' E 121°34'2213437.5
2016-May-05 06:33N 31°37' E 121°18'223416.7
2016-May-05 06:33N 31°17' E 121°09'2327019.8
2016-May-05 06:33N 31°38' E 121°18'405764.6
2016-May-05 06:32N 30°58' E 121°18'35837871.0
2016-May-05 06:32N 36°51' E 122°27'3173066.6
2016-May-05 06:26N 31°40' E 121°14'6798786.9
2016-May-05 06:21N 22°54' E 113°12'659148342.6
2016-May-05 06:21N 31°56' E 120°14'661538.9
2016-May-05 06:18N 31°30' E 121°24'3040.6
2016-May-05 05:33N 30°59' E 121°23'51633.4
2016-May-05 05:33N 31°01' E 121°29'3719233.4
2016-May-05 05:33N 31°37' E 121°18'3214535.8
2016-May-05 05:33N 31°59' E 120°49'476428820.9
2016-May-05 05:33N 24°25' E 118°04'46097461.4
2016-May-05 05:33N 31°30' E 121°24'638737.2
2016-May-05 05:32N 31°58' E 120°18'7527024.9
2016-May-05 05:32N 31°19' E 121°34'231079.9
2016-May-05 05:31N 31°38' E 121°18'434.0
2016-May-05 05:24N 31°40' E 121°14'233863.9
2016-May-05 05:23N 31°17' E 121°11'64222658.6
2016-May-05 05:22N 23°04' E 113°30'16342.5
2016-May-05 05:19N 22°53' E 113°17'672884.1
2016-May-05 04:33N 31°19' E 121°34'1916834.9
2016-May-05 04:33N 31°01' E 121°29'43658104.0
2016-May-05 04:33N 24°25' E 118°04'46041419.3
2016-May-05 04:32N 31°30' E 121°24'2428647.7
2016-May-05 04:32N 31°06' E 121°28'334767.7
2016-May-05 04:32N 31°38' E 121°18'66623263.4
2016-May-05 04:30N 22°56' E 113°33'66461334.2
2016-May-05 04:29N 31°40' E 121°12'67296797.6
2016-May-05 04:29N 22°54' E 113°22'67317171.9
2016-May-05 04:26N 31°40' E 121°14'6601930.7
2016-May-05 04:06N 23°04' E 113°30'1018.0
2016-May-05 03:33N 22°54' E 113°28'66954742.6
2016-May-05 03:33N 31°37' E 121°18'4651674009.1
2016-May-05 03:33N 24°25' E 118°04'46369509.0
2016-May-05 03:32N 31°35' E 121°19'3314.3
2016-May-05 03:32N 31°38' E 121°18'46912229.2
2016-May-05 03:29N 24°18' E 118°15'44730924.8
2016-May-05 03:28N 31°11' E 121°28'581654.5
2016-May-05 03:26N 31°58' E 120°49'5465366.5
2016-May-05 03:26N 31°19' E 121°34'131878.9
2016-May-05 03:26N 31°30' E 121°24'6011376.7
2016-May-05 03:26N 32°03' E 120°26'653146973.5
2016-May-05 03:25N 23°04' E 113°30'4319.3
2016-May-05 03:25N 23°01' E 113°32'64510147.3
2016-May-05 03:21N 31°08' E 121°28'3240.2
2016-May-05 02:34N 31°38' E 121°18'466119768.0
2016-May-05 02:33N 24°25' E 118°04'4611660488.8
2016-May-05 02:33N 31°30' E 121°25'1729898.9
2016-May-05 02:33N 31°14' E 121°29'458205983.3
2016-May-05 02:33N 38°52' E 121°32'466186309.7
2016-May-05 02:33N 31°06' E 121°27'64957013.9
2016-May-05 02:32N 22°53' E 113°34'66539260.6
2016-May-05 02:31N 31°30' E 121°24'65926060.6
2016-May-05 02:30N 23°04' E 113°29'65621290.2
2016-May-05 02:28N 31°19' E 121°34'10373.4
2016-May-05 02:26N 31°26' E 121°25'16103.0
2016-May-05 02:17N 31°40' E 121°14'30151.0
2016-May-05 02:05N 31°13' E 121°30'2343.8
2016-May-05 01:33N 31°34' E 121°20'47354.0
2016-May-05 01:33N 31°38' E 121°18'466186212.6
2016-May-05 01:33N 24°25' E 118°04'46464314.5
2016-May-05 01:33N 31°38' E 121°14'341097.0
2016-May-05 01:31N 31°06' E 121°27'143673.5
2016-May-05 01:31N 31°19' E 121°34'5516.1
2016-May-05 01:30N 31°24' E 121°31'65967805.3
2016-May-05 01:29N 23°01' E 113°32'2872774.3
2016-May-05 01:23N 24°25' E 118°31'28564045.9
2016-May-05 01:23N 22°56' E 113°36'65743023.2
2016-May-05 01:22N 31°17' E 121°34'4556963.1
2016-May-05 01:18N 38°52' E 121°32'4425037.4
2016-May-05 01:13N 31°30' E 121°24'460702.0
2016-May-05 00:33N 24°25' E 118°04'460276170.0
2016-May-05 00:33N 31°30' E 121°24'12493.9
2016-May-05 00:32N 31°20' E 121°33'12991.0
2016-May-05 00:31N 31°30' E 121°24'13472.1
2016-May-05 00:30N 31°19' E 121°34'65748301.3
2016-May-05 00:29N 23°01' E 113°32'65732381.0
2016-May-05 00:28N 31°18' E 121°33'24725.8
2016-May-05 00:26N 31°38' E 121°18'66449780.8
2016-May-05 00:25N 22°56' E 113°36'66217781.7
2016-May-05 00:23N 31°38' E 121°14'43313669.7
2016-May-05 00:21N 38°51' E 121°34'103424485.4
2016-May-05 00:18N 23°04' E 113°29'6154056.7
2016-May-05 00:09N 29°58' E 121°57'393665.5
2016-May-04 23:34N 24°25' E 118°04'461184330.9
2016-May-04 23:33N 31°30' E 121°24'51644.2
2016-May-04 23:33N 31°33' E 121°19'141855.7
2016-May-04 23:33N 31°23' E 121°30'2137191.8
2016-May-04 23:33N 31°38' E 121°14'43344518.1
2016-May-04 23:32N 38°51' E 121°33'43345849.7
2016-May-04 23:32N 31°38' E 121°18'212965.4
2016-May-04 23:31N 31°21' E 121°31'904907.7
2016-May-04 23:30N 29°56' E 122°05'973015.7
2016-May-04 23:28N 31°26' E 121°25'13844.4
2016-May-04 23:27N 31°14' E 121°29'16429.5
2016-May-04 23:25N 31°30' E 121°23'6594410.9
2016-May-04 23:16N 23°01' E 113°32'426.4
2016-May-04 23:07N 23°04' E 113°29'6141092.2
2016-May-04 22:33N 29°48' E 122°05'3891399070.8
2016-May-04 22:33N 24°25' E 118°04'461165895.8
2016-May-04 22:33N 31°30' E 121°24'1214614.6
2016-May-04 22:33N 31°38' E 121°14'216223.0
2016-May-04 22:33N 31°24' E 121°32'44615152.8
2016-May-04 22:31N 38°50' E 121°33'43247181.6
2016-May-04 22:31N 31°38' E 121°15'3151.5
2016-May-04 22:30N 31°38' E 121°18'661793466.4
2016-May-04 22:30N 23°04' E 113°29'6569888.6
2016-May-04 22:26N 31°22' E 121°30'6589622.2
2016-May-04 22:21N 23°01' E 113°32'660826.0
2016-May-04 21:34N 31°30' E 121°24'461184326.5
2016-May-04 21:33N 24°25' E 118°04'26337862.5
2016-May-04 21:33N 23°01' E 113°32'64150186.3
2016-May-04 21:32N 31°01' E 121°29'381001.3
2016-May-04 21:30N 31°38' E 121°18'10243.3
2016-May-04 21:28N 31°30' E 121°23'6589476.7
2016-May-04 21:23N 23°04' E 113°29'65798479.1
2016-May-04 21:23N 31°26' E 121°25'423513.7
2016-May-04 20:34N 24°45' E 118°54'342246469.9
2016-May-04 20:33N 29°42' E 122°05'8627986.9
2016-May-04 20:33N 31°00' E 121°27'4351564752.6
2016-May-04 20:33N 24°25' E 118°04'461118495.6
2016-May-04 20:33N 31°30' E 121°24'66057962.4
2016-May-04 20:32N 23°01' E 113°32'66214539.5
2016-May-04 20:30N 31°38' E 121°18'6611190216.4
2016-May-04 20:30N 23°04' E 113°29'65621101.7
2016-May-04 20:28N 31°22' E 121°30'6132.6
2016-May-04 20:25N 31°26' E 121°25'313.1
2016-May-04 20:10N 31°30' E 121°23'420696.7
2016-May-04 19:33N 24°49' E 118°58'394354389.8
2016-May-04 19:33N 31°00' E 121°27'245346.4
2016-May-04 19:33N 31°23' E 121°34'95106.3
2016-May-04 19:33N 31°26' E 121°25'61114.1
2016-May-04 19:33N 31°22' E 121°30'456234345.9
2016-May-04 19:33N 24°25' E 118°04'26821008.2
2016-May-04 19:32N 22°54' E 113°28'73801.9
2016-May-04 19:32N 23°01' E 113°32'6601188270.4
2016-May-04 19:32N 31°30' E 121°24'10501.9
2016-May-04 19:30N 31°38' E 121°18'232066.8
2016-May-04 19:30N 31°19' E 121°34'101455.1
2016-May-04 19:16N 29°42' E 122°05'865985.6
2016-May-04 19:16N 30°58' E 121°18'3142.7
2016-May-04 19:14N 30°59' E 121°21'3146.1
2016-May-04 18:33N 31°30' E 121°24'415498157.9
2016-May-04 18:33N 24°54' E 119°03'3331197380.4
2016-May-04 18:33N 29°45' E 122°03'8173276.9
2016-May-04 18:33N 31°00' E 121°27'43592044.3
2016-May-04 18:33N 24°25' E 118°04'272163337.3
2016-May-04 18:33N 22°15' E 113°43'693156014.4
2016-May-04 18:33N 31°38' E 121°18'66635805.3
2016-May-04 18:32N 22°54' E 113°35'63637550.7
2016-May-04 18:31N 30°58' E 121°18'253501.2
2016-May-04 18:30N 31°19' E 121°34'142218.6
2016-May-04 18:30N 31°06' E 121°27'1689.4
2016-May-04 18:19N 31°22' E 121°30'65811326.0
2016-May-04 18:15N 23°01' E 113°32'6584994.5
2016-May-04 18:07N 31°26' E 121°25'458808.0
2016-May-04 17:34N 24°25' E 118°04'435260792.1
2016-May-04 17:33N 31°00' E 121°27'413427.2
2016-May-04 17:33N 30°59' E 121°23'2511224.3
2016-May-04 17:33N 31°23' E 121°30'1448651.1
2016-May-04 17:33N 31°33' E 121°19'10843346.1
2016-May-04 17:33N 29°53' E 122°09'10474884.7
2016-May-04 17:33N 31°30' E 121°24'3128234.8
2016-May-04 17:33N 30°59' E 121°21'238319.4
2016-May-04 17:33N 31°19' E 121°34'665239270.7
2016-May-04 17:33N 22°54' E 113°28'67013391.4
2016-May-04 17:30N 31°38' E 121°18'66217929.6
2016-May-04 17:27N 23°01' E 113°32'263292.6
2016-May-04 16:33N 24°25' E 118°04'393353638.9
2016-May-04 16:33N 29°57' E 121°59'6922725.0
2016-May-04 16:33N 31°01' E 121°27'3919823.0
2016-May-04 16:33N 31°38' E 121°15'3915443.2
2016-May-04 16:33N 31°00' E 121°27'301779.7
2016-May-04 16:32N 31°30' E 121°24'659395535.4
2016-May-04 16:32N 23°02' E 113°32'65964107.3
2016-May-04 16:31N 31°26' E 121°29'15615.0
2016-May-04 16:30N 31°38' E 121°18'1346808.7
2016-May-04 16:30N 31°26' E 121°25'10636.6
2016-May-04 16:29N 31°22' E 121°35'6756429.8
2016-May-04 16:23N 22°53' E 113°18'15237.3
2016-May-04 16:19N 23°04' E 113°29'65615445.7
2016-May-04 16:16N 31°19' E 121°34'894.3
2016-May-04 16:11N 31°12' E 121°30'1219.4
2016-May-04 15:33N 31°00' E 121°27'435521584.2
2016-May-04 15:33N 24°25' E 118°04'454204435.7
2016-May-04 15:33N 31°19' E 121°34'1510971.9
2016-May-04 15:33N 31°05' E 121°28'25952.0
2016-May-04 15:31N 31°30' E 121°24'958981.6
2016-May-04 15:31N 29°58' E 121°49'61692394.2
2016-May-04 15:30N 22°48' E 113°37'6682405613.7
2016-May-04 15:30N 31°41' E 121°10'71243.8
2016-May-04 15:30N 31°38' E 121°18'114101.4
2016-May-04 15:30N 31°29' E 121°25'14247.1
2016-May-04 15:26N 31°15' E 121°29'6594922.6
2016-May-04 15:18N 22°55' E 113°27'2855059.5
2016-May-04 15:15N 24°31' E 118°21'1724.0
2016-May-04 14:33N 24°25' E 118°04'461414739.1
2016-May-04 14:33N 31°30' E 121°24'3035580.2
2016-May-04 14:33N 31°00' E 121°27'641121412.7
2016-May-04 14:33N 22°56' E 113°36'66417319.5
2016-May-04 14:31N 31°38' E 121°18'8431.7
2016-May-04 14:30N 31°31' E 121°22'15501.0
2016-May-04 14:28N 31°19' E 121°34'65667520.4
2016-May-04 14:27N 23°04' E 113°29'64617629.5
2016-May-04 14:25N 31°10' E 121°28'6473099.3
2016-May-04 14:12N 23°02' E 113°32'639980.0
2016-May-04 13:33N 31°00' E 121°27'143300.9
2016-May-04 13:33N 31°14' E 121°30'269395.4
2016-May-04 13:33N 31°38' E 121°18'277975.8
2016-May-04 13:33N 31°14' E 121°30'216379.6
2016-May-04 13:33N 31°33' E 121°19'46236942.3
2016-May-04 13:32N 24°25' E 118°04'4546758.1
2016-May-04 13:28N 31°19' E 121°34'26396.7
2016-May-04 13:24N 31°39' E 121°13'65935427.1
2016-May-04 13:23N 23°04' E 113°29'65718184.7
2016-May-04 13:21N 31°21' E 121°32'6574582.4
2016-May-04 13:12N 23°02' E 113°32'64311511.9
2016-May-04 13:09N 31°05' E 121°28'1729.0
2016-May-04 12:33N 31°22' E 121°30'221360.8
2016-May-04 12:32N 31°00' E 121°27'43544706.7
2016-May-04 12:32N 24°25' E 118°04'26438029.8
2016-May-04 12:31N 23°04' E 113°29'65338561.8
2016-May-04 12:30N 31°16' E 121°33'161380.8
2016-May-04 12:30N 31°30' E 121°24'102889.0
2016-May-04 12:30N 31°38' E 121°18'244.8
2016-May-04 12:27N 31°37' E 121°16'381.9
2016-May-04 12:25N 31°39' E 121°13'66033922.3
2016-May-04 12:23N 23°02' E 113°32'368441074.4
2016-May-04 12:23N 22°35' E 120°09'53050215.4
2016-May-04 12:23N 31°19' E 121°34'15220.2
2016-May-04 12:19N 31°05' E 121°28'22101.6
2016-May-04 12:05N 31°27' E 121°29'460865.3
2016-May-04 11:34N 24°25' E 118°04'16241600.4
2016-May-04 11:33N 22°37' E 120°16'532159734.9
2016-May-04 11:33N 31°25' E 121°31'172198.5
2016-May-04 11:33N 31°38' E 121°18'381597.9
2016-May-04 11:31N 31°00' E 121°27'302313.4
2016-May-04 11:30N 31°30' E 121°24'664103938.4
2016-May-04 11:30N 22°54' E 113°35'93850.1
2016-May-04 11:30N 23°01' E 113°31'65891062.9
2016-May-04 11:29N 31°20' E 121°32'342.7
2016-May-04 11:25N 31°24' E 121°32'6597408.2
2016-May-04 11:19N 23°04' E 113°30'656854.1
2016-May-04 10:33N 31°22' E 121°30'456234366.6
2016-May-04 10:33N 24°25' E 118°04'45548162.6
2016-May-04 10:32N 31°20' E 121°33'2618362.4
2016-May-04 10:32N 31°39' E 121°13'13655.3
2016-May-04 10:31N 31°30' E 121°24'5248.4
2016-May-04 10:30N 31°27' E 121°28'585.0
2016-May-04 10:26N 31°30' E 121°23'658296131.2
2016-May-04 10:26N 23°04' E 113°29'01407.8
2016-May-04 10:26N 23°04' E 113°30'66191521.4
2016-May-04 10:26N 31°38' E 121°18'66214451.7
2016-May-04 10:23N 23°02' E 113°31'6402874.2
2016-May-04 10:10N 31°57' E 120°04'31211338.1
2016-May-04 10:08N 26°46' E 119°43'167290.3
2016-May-04 09:34N 24°25' E 118°04'461103681.2
2016-May-04 09:33N 31°30' E 121°24'028.5
2016-May-04 09:32N 31°30' E 121°24'674346478.9
2016-May-04 09:32N 22°19' E 114°10'67622942.3
2016-May-04 09:31N 31°39' E 121°13'40709.2
2016-May-04 09:27N 31°00' E 121°27'639229871.8
2016-May-04 09:27N 23°04' E 113°29'66117502.4
2016-May-04 09:25N 31°38' E 121°18'6624827.1
2016-May-04 09:16N 23°01' E 113°31'6495103.4
2016-May-04 09:09N 31°59' E 120°21'81137.0
2016-May-04 08:33N 31°00' E 121°27'30106403.7
2016-May-04 08:33N 31°30' E 121°24'0119.6
2016-May-04 08:33N 31°30' E 121°24'2522383.0
2016-May-04 08:33N 31°05' E 121°28'439112942.5
2016-May-04 08:33N 24°25' E 118°04'4657379.3
2016-May-04 08:29N 31°39' E 121°13'122006.3
2016-May-04 08:29N 31°30' E 121°23'6595789.9
2016-May-04 08:22N 23°01' E 113°31'64638101.1
2016-May-04 08:21N 31°57' E 120°17'5512339.0
2016-May-04 08:21N 31°38' E 121°18'3848.6
2016-May-04 07:33N 31°00' E 121°27'435130394.4
2016-May-04 07:33N 24°25' E 118°04'46557773.8
2016-May-04 07:33N 31°56' E 120°13'656699.0
2016-May-04 07:32N 31°30' E 121°23'1120.4
2016-May-04 07:32N 31°30' E 121°24'0228.2
2016-May-04 07:32N 31°30' E 121°24'71638.1
2016-May-04 07:31N 31°34' E 121°18'201590.7
2016-May-04 07:31N 31°19' E 121°34'549669.3
2016-May-04 07:30N 31°58' E 120°50'66258137.9
2016-May-04 07:30N 23°04' E 113°30'66136608.8
2016-May-04 07:29N 31°38' E 121°18'41012.3
2016-May-04 07:28N 31°39' E 121°13'3441339.2
2016-May-04 07:28N 32°00' E 120°41'65944776.6
2016-May-04 07:27N 23°04' E 113°29'6393490.2
2016-May-04 07:16N 31°01' E 121°27'6176.6
2016-May-04 07:14N 30°59' E 121°20'4159.6
2016-May-04 06:33N 31°39' E 121°13'131772.8
2016-May-04 06:33N 31°30' E 121°24'3110230.0
2016-May-04 06:33N 30°59' E 121°21'3928210.3
2016-May-04 06:33N 31°38' E 121°18'10239.3
2016-May-04 06:30N 31°30' E 121°24'2911691.1
2016-May-04 06:30N 31°00' E 121°26'4824054.3
2016-May-04 06:23N 23°42' E 117°40'51359557.7
2016-May-04 06:22N 31°40' E 121°12'53630.4
2016-May-04 06:17N 31°57' E 120°13'1142772.3
2016-May-04 06:15N 31°25' E 118°04'55987552.8
2016-May-04 06:14N 23°01' E 113°31'65821519.5
2016-May-04 06:13N 31°19' E 121°34'454693.0
2016-May-04 05:33N 24°25' E 118°04'43478149.2
2016-May-04 05:33N 31°00' E 121°26'201820.8
2016-May-04 05:32N 31°19' E 121°34'205104.7
2016-May-04 05:32N 31°00' E 121°26'303327.5
2016-May-04 05:32N 31°30' E 121°24'021.7
2016-May-04 05:30N 31°30' E 121°24'10102.8
2016-May-04 05:25N 31°38' E 121°18'6628485.5
2016-May-04 05:20N 23°01' E 113°31'331.2
2016-May-04 05:15N 23°04' E 113°30'264384.3
2016-May-04 04:33N 24°25' E 118°04'435782277.8
2016-May-04 04:33N 31°00' E 121°26'63825538.8
2016-May-04 04:32N 23°04' E 113°29'641128277.7
2016-May-04 04:32N 31°03' E 121°29'642256976.2
2016-May-04 04:31N 23°01' E 113°31'66037133.1
2016-May-04 04:30N 31°30' E 121°24'312373.3
2016-May-04 04:30N 30°59' E 121°22'222530.0
2016-May-04 04:29N 31°19' E 121°34'231025.7
2016-May-04 04:28N 31°38' E 121°18'10114.3
2016-May-04 04:22N 31°30' E 121°24'460559.2
2016-May-04 03:33N 24°25' E 118°04'46676243.9
2016-May-04 03:33N 31°38' E 121°18'386264.8
2016-May-04 03:32N 31°00' E 121°26'292110.7
2016-May-04 03:31N 31°30' E 121°24'66059381.5
2016-May-04 03:31N 23°02' E 113°31'65714259.0
2016-May-04 03:28N 31°19' E 121°34'6614383.3
2016-May-04 03:19N 22°57' E 113°30'6567028.2
2016-May-04 03:13N 31°15' E 121°30'449676.8
2016-May-04 02:34N 24°25' E 118°04'46662123.9
2016-May-04 02:33N 31°38' E 121°18'101531.2
2016-May-04 02:33N 31°30' E 121°24'667240174.8
2016-May-04 02:33N 22°54' E 113°29'66738738.5
2016-May-04 02:31N 31°35' E 121°18'351051.4
2016-May-04 02:29N 31°00' E 121°26'20479.6
2016-May-04 02:27N 31°19' E 121°34'13507.5
2016-May-04 02:25N 31°30' E 121°24'65911627.3
2016-May-04 02:22N 23°02' E 113°32'2612002.6
2016-May-04 02:14N 24°11' E 118°07'47733027.0
2016-May-04 02:13N 31°38' E 121°16'4694833.1
2016-May-04 02:08N 24°25' E 117°52'48013614.6
2016-May-04 02:05N 31°60' E 120°48'251707.5
2016-May-04 02:05N 31°42' E 121°09'467900.4
2016-May-04 01:33N 24°25' E 118°04'464139184.1
2016-May-04 01:33N 31°36' E 121°17'31024.2
2016-May-04 01:33N 31°35' E 121°19'63842.0
2016-May-04 01:33N 31°30' E 121°24'0221.1
2016-May-04 01:33N 31°30' E 121°24'304855.2
2016-May-04 01:32N 31°00' E 121°26'638287293.7
2016-May-04 01:32N 23°04' E 113°29'26711047.8
2016-May-04 01:31N 24°16' E 118°10'45514892.9
2016-May-04 01:29N 31°15' E 121°31'567.8
2016-May-04 01:25N 31°19' E 121°34'121.6
2016-May-04 01:22N 31°20' E 121°33'24144.0
2016-May-04 01:12N 31°39' E 121°15'30514818.2
2016-May-04 01:11N 26°45' E 119°43'1672300.3
2016-May-04 01:06N 24°25' E 118°01'267485.4
2016-May-04 00:33N 23°02' E 113°24'270161989.5
2016-May-04 00:33N 24°23' E 118°05'32244.5
2016-May-04 00:33N 24°22' E 118°08'58664.6
2016-May-04 00:33N 24°25' E 118°04'461553067.4
2016-May-04 00:33N 31°30' E 121°24'121029.0
2016-May-04 00:33N 31°38' E 121°14'12424.8
2016-May-04 00:31N 31°30' E 121°24'291099.4
2016-May-04 00:29N 31°00' E 121°26'19167.5
2016-May-04 00:22N 31°18' E 121°33'5233.2
2016-May-04 00:21N 31°22' E 121°30'6911807.7
2016-May-04 00:21N 31°59' E 120°22'732770.4
2016-May-04 00:19N 31°19' E 121°34'20402.3
2016-May-04 00:16N 31°35' E 121°19'2027.6
2016-May-03 23:33N 31°19' E 121°34'454272610.4
2016-May-03 23:33N 24°25' E 118°04'461150819.8
2016-May-03 23:33N 31°30' E 121°24'46131916.1
2016-May-03 23:32N 24°24' E 118°06'45810842.8
2016-May-03 23:30N 31°26' E 121°25'6168.0
2016-May-03 23:28N 31°32' E 121°23'131948.2
2016-May-03 23:27N 31°21' E 121°31'1036857.9
2016-May-03 23:27N 31°30' E 121°24'641794.3
2016-May-03 23:25N 31°56' E 120°15'514581.0
2016-May-03 23:24N 31°40' E 121°12'231024.8
2016-May-03 23:23N 31°24' E 121°31'54351.9
2016-May-03 23:14N 32°01' E 120°45'41110137.8
2016-May-03 23:11N 38°50' E 121°33'8841398.3
2016-May-03 22:34N 24°25' E 118°04'884795379.1
2016-May-03 22:33N 38°50' E 121°33'451124819.8
2016-May-03 22:33N 31°19' E 121°34'136761.6
2016-May-03 22:33N 31°30' E 121°24'6818750.6
2016-May-03 22:33N 31°57' E 120°11'757732.4
2016-May-03 22:32N 31°23' E 121°30'456328446.3
2016-May-03 22:32N 24°24' E 118°06'460165424.9
2016-May-03 22:32N 31°27' E 121°28'4846.4
2016-May-03 22:32N 31°30' E 121°24'8726.1
2016-May-03 22:31N 31°24' E 121°31'2321.2
2016-May-03 22:31N 31°22' E 121°30'5755106795.4
2016-May-03 22:27N 37°47' W 122°16'5764209601.9
2016-May-03 22:26N 32°01' E 120°49'4349.2
2016-May-03 21:33N 31°30' E 121°24'1323656.9
2016-May-03 21:33N 31°19' E 121°34'144947.0
2016-May-03 21:33N 31°30' E 121°23'7812.1
2016-May-03 21:33N 31°25' E 121°30'45997096.9
2016-May-03 21:32N 24°25' E 118°04'23422.7
2016-May-03 21:32N 24°24' E 118°06'61961858659.1
2016-May-03 21:32N 37°48' W 122°20'5788315725.7
2016-May-03 21:31N 31°58' E 120°17'6457289.9
2016-May-03 21:31N 31°30' E 121°24'358.2
2016-May-03 21:28N 31°26' E 121°25'65717775.9
2016-May-03 21:25N 23°02' E 113°32'6397008.8
2016-May-03 21:20N 31°00' E 121°26'435559.8
2016-May-03 20:33N 24°25' E 118°04'460184163.9
2016-May-03 20:33N 31°30' E 121°24'46129090.9
2016-May-03 20:32N 24°24' E 118°06'45496246.9
2016-May-03 20:32N 31°19' E 121°34'131433.7
2016-May-03 20:31N 31°30' E 121°24'65976560.3
2016-May-03 20:31N 23°02' E 113°32'65991211.8
2016-May-03 20:30N 31°33' E 121°20'20386.6
2016-May-03 20:27N 31°17' E 121°34'5750154484.7
2016-May-03 20:25N 37°47' W 122°22'5751900180.7
2016-May-03 20:25N 31°30' E 121°23'4181.7
2016-May-03 20:23N 31°26' E 121°25'41168.5
2016-May-03 20:09N 31°56' E 120°52'5186.1
2016-May-03 19:33N 31°19' E 121°34'22311.4
2016-May-03 19:33N 31°17' E 121°34'453543209.8
2016-May-03 19:33N 24°25' E 118°04'461331787.7
2016-May-03 19:33N 31°30' E 121°24'46126768.5
2016-May-03 19:32N 24°24' E 118°06'6194929137.6
2016-May-03 19:32N 37°48' W 122°21'5750899970.4
2016-May-03 19:31N 31°30' E 121°24'102010.8
2016-May-03 19:31N 31°37' E 121°16'37518.7
2016-May-03 19:27N 31°00' E 121°26'6807505.2
2016-May-03 19:21N 22°10' E 113°31'69881037.0
2016-May-03 19:21N 31°19' E 121°34'6872855.1
2016-May-03 19:06N 22°15' E 113°43'489587.5
2016-May-03 19:06N 23°02' E 113°32'497027.2
2016-May-03 19:06N 22°14' E 113°43'2 4.0
2016-May-03 18:33N 22°13' E 113°41'6932496450.2
2016-May-03 18:33N 31°30' E 121°24'460138123.0
2016-May-03 18:33N 24°25' E 118°04'274197629.6
2016-May-03 18:33N 22°13' E 113°41'69480627.4
2016-May-03 18:33N 31°39' E 121°13'13911.8
2016-May-03 18:32N 31°30' E 121°24'301144.8
2016-May-03 18:30N 31°00' E 121°26'639104495.2
2016-May-03 18:30N 23°02' E 113°32'655235916.4
2016-May-03 18:30N 31°17' E 121°34'5753249547.7
2016-May-03 18:28N 37°48' W 122°18'575863002.5
2016-May-03 18:23N 31°41' E 121°10'19783.6
2016-May-03 18:21N 31°26' E 121°25'45748368.6
2016-May-03 18:21N 24°27' E 117°59'460584.5
2016-May-03 17:33N 31°30' E 121°24'697418417.9
2016-May-03 17:33N 22°10' E 113°38'050.2
2016-May-03 17:33N 22°11' E 113°38'35774.9
2016-May-03 17:33N 22°13' E 113°40'672806873.9
2016-May-03 17:33N 31°00' E 121°26'435142232.3
2016-May-03 17:33N 24°25' E 118°04'45410904.5
2016-May-03 17:30N 31°19' E 121°34'2775.2
2016-May-03 17:30N 31°17' E 121°34'574203.1
2016-May-03 17:29N 31°60' E 120°48'45896.6
2016-May-03 17:26N 31°26' E 121°25'24321.2
2016-May-03 17:22N 31°44' E 121°05'46725864.1
2016-May-03 17:21N 24°27' E 117°59'459127166.4
2016-May-03 17:20N 31°30' E 121°23'2937.3
2016-May-03 16:33N 31°00' E 121°26'6781220645.5
2016-May-03 16:33N 22°11' E 113°33'7002519445.4
2016-May-03 16:33N 31°30' E 121°24'6992518173.1
2016-May-03 16:33N 22°11' E 113°33'68387874.1
2016-May-03 16:33N 31°57' E 120°08'717705.1
2016-May-03 16:32N 31°30' E 121°24'3189.9
2016-May-03 16:31N 31°26' E 121°25'12657.0
2016-May-03 16:30N 31°17' E 121°34'741760.4
2016-May-03 16:28N 32°01' E 120°23'193064.4
2016-May-03 16:27N 32°01' E 120°45'5911117.8
2016-May-03 16:27N 31°19' E 121°34'45367999.6
2016-May-03 16:27N 24°27' E 117°59'46716654.4
2016-May-03 16:25N 31°45' E 121°04'36207.8
2016-May-03 16:14N 31°19' E 121°34'0 0.0
2016-May-03 15:33N 31°19' E 121°34'1311752.5
2016-May-03 15:33N 31°30' E 121°24'460331520.1
2016-May-03 15:33N 24°25' E 118°04'454102159.1
2016-May-03 15:33N 31°19' E 121°34'2216.4
2016-May-03 15:33N 31°17' E 121°34'154896.0
2016-May-03 15:32N 31°30' E 121°24'30556.4
2016-May-03 15:29N 31°00' E 121°26'821403.6
2016-May-03 15:26N 31°56' E 120°16'4655436.2
2016-May-03 15:21N 24°27' E 117°59'4574909.0
2016-May-03 15:15N 31°26' E 121°25'3 4.8
2016-May-03 14:33N 31°30' E 121°24'460276283.3
2016-May-03 14:33N 24°25' E 118°04'46136067.6
2016-May-03 14:33N 31°30' E 121°24'51077.6
2016-May-03 14:32N 31°33' E 121°20'18522.6
2016-May-03 14:30N 31°19' E 121°34'261.5
2016-May-03 14:28N 31°17' E 121°34'421.0
2016-May-03 14:18N 31°15' E 121°31'12574.8
2016-May-03 14:17N 31°26' E 121°25'11357.6
2016-May-03 14:15N 31°19' E 121°34'0 0.5
2016-May-03 13:33N 31°19' E 121°34'2372.3
2016-May-03 13:33N 31°17' E 121°34'151965.3
2016-May-03 13:32N 31°30' E 121°24'059.4
2016-May-03 13:32N 31°30' E 121°24'461184345.4
2016-May-03 13:32N 24°25' E 118°04'4591171.5
2016-May-03 13:08N 31°27' E 121°29'3 6.0
2016-May-03 12:33N 31°24' E 121°31'81158.7
2016-May-03 12:33N 31°30' E 121°24'0410.8
2016-May-03 12:33N 31°30' E 121°24'46166365.7
2016-May-03 12:32N 24°25' E 118°04'453101838.4
2016-May-03 12:32N 31°17' E 121°34'3616359.1
2016-May-03 12:32N 31°44' E 121°05'3517920.1
2016-May-03 12:32N 31°19' E 121°34'6577364.0
2016-May-03 12:26N 23°02' E 113°32'6396163.3
2016-May-03 12:20N 31°00' E 121°26'1751189.5
2016-May-03 12:11N 31°25' E 118°04'179283.6
2016-May-03 11:33N 31°19' E 121°34'1311741.3
2016-May-03 11:33N 31°30' E 121°24'2926369.6
2016-May-03 11:33N 31°00' E 121°26'303676.5
2016-May-03 11:33N 31°30' E 121°24'461276519.5
2016-May-03 11:33N 24°25' E 118°04'4548938.4
2016-May-03 11:30N 31°19' E 121°33'4 4.5
2016-May-03 10:34N 31°22' E 121°30'91514.0
2016-May-03 10:33N 31°30' E 121°24'461103688.6
2016-May-03 10:33N 24°25' E 118°04'26310167.6
2016-May-03 10:31N 23°02' E 113°32'659197666.4
2016-May-03 10:31N 31°30' E 121°24'358.5
2016-May-03 10:28N 31°26' E 121°25'321.2
2016-May-03 10:19N 31°30' E 121°25'6533214.4
2016-May-03 10:06N 23°06' E 113°37'6521186.0
2016-May-03 09:33N 31°26' E 121°29'45968810.1
2016-May-03 09:33N 24°25' E 118°04'461414732.4
2016-May-03 09:33N 31°31' E 121°22'3159.4
2016-May-03 09:32N 31°30' E 121°24'497.7
2016-May-03 09:30N 31°26' E 121°25'360.2
2016-May-03 09:27N 31°30' E 121°25'6557811.0
2016-May-03 09:22N 23°05' E 113°34'6592637.3
2016-May-03 09:07N 31°60' E 120°48'211134.7
2016-May-03 09:05N 32°00' E 120°23'233352.8
2016-May-03 09:05N 31°58' E 120°50'2649.7
2016-May-03 08:33N 31°58' E 120°19'6173165.1
2016-May-03 08:33N 31°30' E 121°23'46078913.5
2016-May-03 08:33N 24°25' E 118°04'46197585.8
2016-May-03 08:33N 31°30' E 121°24'433421.2
2016-May-03 08:32N 31°60' E 120°48'684774.9
2016-May-03 08:31N 31°00' E 121°27'63871741.4
2016-May-03 08:31N 23°03' E 113°32'65815095.3
2016-May-03 08:28N 31°35' E 121°17'11281.2
2016-May-03 08:26N 31°26' E 121°25'45721640.1
2016-May-03 08:24N 24°27' E 117°59'2592476.2
2016-May-03 08:18N 23°02' E 113°32'659883.6
2016-May-03 07:33N 31°30' E 121°24'66067901.2
2016-May-03 07:33N 23°05' E 113°26'26647927.8
2016-May-03 07:33N 24°25' E 118°04'47868769.6
2016-May-03 07:32N 32°00' E 120°45'6922734.7
2016-May-03 07:32N 31°00' E 121°27'4118269.5
2016-May-03 07:32N 31°39' E 121°13'6629.7
2016-May-03 07:31N 31°35' E 121°18'6592015.8
2016-May-03 07:12N 23°02' E 113°32'65717910.3
2016-May-03 07:09N 31°26' E 121°25'29512802.0
2016-May-03 07:08N 26°45' E 119°43'271470.5
2016-May-03 06:33N 31°00' E 121°27'435782327.1
2016-May-03 06:33N 24°25' E 118°04'466279349.8
2016-May-03 06:33N 31°39' E 121°13'161778.8
2016-May-03 06:33N 31°26' E 121°25'4914.2
2016-May-03 06:32N 31°30' E 121°24'66595784.8
2016-May-03 06:32N 23°02' E 113°21'1027.7
2016-May-03 06:11N 23°02' E 113°32'263418.2
2016-May-03 05:33N 24°25' E 118°04'461552986.1
2016-May-03 05:33N 31°30' E 121°24'17129297.7
2016-May-03 05:33N 31°25' E 118°04'15620104.1
2016-May-03 05:32N 31°44' E 121°06'4683447.0
2016-May-03 05:32N 31°00' E 121°27'856525.1
2016-May-03 05:32N 31°56' E 120°11'67635.3
2016-May-03 05:25N 31°30' E 121°23'2933.9
2016-May-03 04:34N 31°00' E 121°27'303227.3
2016-May-03 04:33N 31°30' E 121°24'293207.9
2016-May-03 04:32N 31°01' E 121°27'435260962.2
2016-May-03 04:32N 24°25' E 118°04'45410096.7
2016-May-03 04:30N 31°19' E 121°34'13568.8
2016-May-03 04:28N 31°30' E 121°23'3299.5
2016-May-03 04:28N 31°26' E 121°25'301246.7
2016-May-03 04:26N 30°58' E 121°14'3635263.8
2016-May-03 04:22N 36°55' E 122°27'3181227.3
2016-May-03 04:06N 31°57' E 120°13'313565.9
2016-May-03 03:33N 36°48' E 122°28'778215448.9
2016-May-03 03:33N 24°25' E 118°04'454272613.6
2016-May-03 03:33N 31°19' E 121°34'2035786.7
2016-May-03 03:33N 31°00' E 121°27'304632.8
2016-May-03 03:33N 31°30' E 121°24'6417860.7
2016-May-03 03:32N 31°57' E 120°15'8218481.0
2016-May-03 03:32N 30°60' E 121°25'6446.3
2016-May-03 03:31N 30°58' E 121°18'658700.0
2016-May-03 03:31N 31°59' E 120°49'2494.3
2016-May-03 03:15N 31°59' E 120°20'6476621.4
2016-May-03 03:09N 23°02' E 113°32'6361063.0
2016-May-03 02:33N 30°59' E 121°23'310440.1
2016-May-03 02:33N 31°00' E 121°27'435260775.7
2016-May-03 02:33N 24°25' E 118°04'45436348.0
2016-May-03 02:33N 31°19' E 121°34'657394318.5
2016-May-03 02:33N 23°02' E 113°31'660395893.1
2016-May-03 02:32N 31°30' E 121°24'1 5.2
2016-May-03 02:21N 31°30' E 121°23'331862.8
2016-May-03 02:20N 30°57' E 121°17'30512.5
2016-May-03 02:16N 31°26' E 121°25'674857.0
2016-May-03 02:15N 31°56' E 120°13'6694.1
2016-May-03 01:33N 31°30' E 121°24'29105273.6
2016-May-03 01:33N 31°01' E 121°28'384382.5
2016-May-03 01:33N 31°37' E 121°16'234899.0
2016-May-03 01:33N 31°19' E 121°34'454136305.2
2016-May-03 01:32N 24°25' E 118°04'4609906.4
2016-May-03 01:30N 31°28' E 121°25'28821.4
2016-May-03 01:28N 31°00' E 121°27'266246.9
2016-May-03 01:27N 31°26' E 121°25'4 4.0
2016-May-03 00:33N 31°30' E 121°24'30106576.1
2016-May-03 00:33N 31°00' E 121°27'43565193.9
2016-May-03 00:33N 24°25' E 118°04'46340616.4
2016-May-03 00:32N 31°33' E 121°20'9323.6
2016-May-03 00:31N 31°28' E 121°28'981.4
2016-May-03 00:24N 31°19' E 121°34'11141.4
2016-May-03 00:19N 31°28' E 121°25'2 2.5
2016-May-02 23:33N 31°30' E 121°24'461552988.2
2016-May-02 23:33N 24°25' E 118°04'45490870.1
2016-May-02 23:33N 31°19' E 121°34'134028.9
2016-May-02 23:33N 31°30' E 121°23'2952629.6
2016-May-02 23:33N 31°00' E 121°27'64082229.7
2016-May-02 23:32N 23°01' E 113°32'65840130.6
2016-May-02 23:31N 31°26' E 121°25'4229.0
2016-May-02 23:30N 31°31' E 121°25'13172.7
2016-May-02 23:26N 31°19' E 121°33'1148.5
2016-May-02 23:12N 31°28' E 121°25'4625422.4
2016-May-02 23:07N 24°24' E 117°57'4497089.7
2016-May-02 23:03N 31°18' E 121°12'1531.2
2016-May-02 22:33N 31°30' E 121°24'461331784.9
2016-May-02 22:33N 24°25' E 118°04'454109042.8
2016-May-02 22:33N 31°19' E 121°34'134834.6
2016-May-02 22:33N 31°30' E 121°23'2913157.4
2016-May-02 22:33N 31°00' E 121°27'64274506.1
2016-May-02 22:32N 22°58' E 113°32'64586057.0
2016-May-02 22:32N 31°56' E 120°14'1476020.6
2016-May-02 22:30N 29°58' E 121°57'9313901.9
2016-May-02 22:30N 31°28' E 121°28'4643421.8
2016-May-02 22:22N 24°25' E 117°52'4582064.6
2016-May-02 22:08N 31°19' E 121°33'2034.1
2016-May-02 21:33N 31°00' E 121°27'739094.4
2016-May-02 21:33N 29°55' E 122°06'10190881.6
2016-May-02 21:33N 31°30' E 121°24'1728.7
2016-May-02 21:33N 31°30' E 121°23'89361.8
2016-May-02 21:33N 31°25' E 121°31'459150164.9
2016-May-02 21:32N 24°25' E 118°04'45896911.2
2016-May-02 21:32N 31°26' E 121°25'353.1
2016-May-02 21:29N 31°29' E 121°24'66663062.3
2016-May-02 21:28N 22°51' E 113°35'66422324.4
2016-May-02 21:27N 31°19' E 121°34'458518.5
2016-May-02 20:34N 24°25' E 117°52'1119795.2
2016-May-02 20:34N 24°25' E 118°04'4351564654.1
2016-May-02 20:33N 31°00' E 121°27'204770.2
2016-May-02 20:33N 31°19' E 121°34'133387.4
2016-May-02 20:33N 31°30' E 121°24'10742984.6
2016-May-02 20:33N 29°48' E 122°05'10764307.0
2016-May-02 20:33N 31°30' E 121°24'2511289.4
2016-May-02 20:33N 31°20' E 120°57'3013628.0
2016-May-02 20:32N 30°59' E 121°23'64455170.9
2016-May-02 20:32N 22°47' E 113°38'6677848.1
2016-May-02 20:27N 31°30' E 121°23'9285.2
2016-May-02 20:25N 31°24' E 121°31'6121.7
2016-May-02 20:22N 31°26' E 121°25'1012.8
2016-May-02 19:33N 31°19' E 121°34'454136303.5
2016-May-02 19:33N 24°25' E 118°04'4351564634.3
2016-May-02 19:33N 31°00' E 121°27'305072.0
2016-May-02 19:33N 31°30' E 121°24'11411432.7
2016-May-02 19:32N 29°41' E 122°06'641109919.8
2016-May-02 19:32N 22°11' E 113°38'2693855.2
2016-May-02 19:28N 24°25' E 117°52'46434777.7
2016-May-02 19:27N 31°30' E 121°23'101074.2
2016-May-02 19:26N 31°21' E 121°31'220.1
2016-May-02 19:20N 31°23' E 121°31'581363.9
2016-May-02 19:17N 32°00' E 120°38'478660.5
2016-May-02 18:34N 24°25' E 117°52'439789492.4
2016-May-02 18:33N 31°00' E 121°27'43552155.1
2016-May-02 18:33N 24°25' E 118°04'27827819.3
2016-May-02 18:32N 22°11' E 113°38'69734357.5
2016-May-02 18:31N 31°30' E 121°24'133032.9
2016-May-02 18:31N 31°19' E 121°34'13194.2
2016-May-02 18:27N 31°30' E 121°23'1145464.3
2016-May-02 18:26N 29°42' E 122°05'8698.8
2016-May-02 17:33N 31°00' E 121°27'185985.5
2016-May-02 17:33N 31°18' E 121°34'151567.7
2016-May-02 17:33N 31°30' E 121°24'461165876.9
2016-May-02 17:33N 24°25' E 118°04'45421242.4
2016-May-02 17:31N 31°19' E 121°34'694178343.0
2016-May-02 17:31N 22°11' E 113°38'6969636.2
2016-May-02 17:27N 31°30' E 121°23'1144555.2
2016-May-02 17:25N 29°42' E 122°05'15610575.7
2016-May-02 17:24N 32°01' E 120°44'431314.5
2016-May-02 17:22N 31°31' E 121°21'4654040.6
2016-May-02 17:15N 24°25' E 117°52'78318542.7
2016-May-02 17:13N 36°49' E 122°34'7831190.2
2016-May-02 16:33N 24°25' E 117°52'112083.7
2016-May-02 16:33N 24°25' E 118°04'4351564654.1
2016-May-02 16:33N 31°00' E 121°27'303451.1
2016-May-02 16:33N 31°30' E 121°24'11316974.3
2016-May-02 16:32N 29°42' E 122°04'641230595.7
2016-May-02 16:32N 22°11' E 113°38'69423118.5
2016-May-02 16:30N 31°19' E 121°34'10353.7
2016-May-02 16:29N 31°11' E 121°28'59620.3
2016-May-02 16:23N 32°00' E 120°49'421200.6
2016-May-02 16:21N 31°30' E 121°23'791526.5
2016-May-02 16:18N 32°01' E 119°58'946536.2
2016-May-02 16:17N 31°05' E 121°28'241080.7
2016-May-02 16:15N 31°30' E 121°24'3230.8
2016-May-02 16:15N 31°26' E 121°25'1015.2
2016-May-02 15:33N 31°19' E 121°34'454817831.1
2016-May-02 15:33N 24°25' E 118°04'43592038.5
2016-May-02 15:33N 31°00' E 121°27'3010700.7
2016-May-02 15:33N 31°30' E 121°24'2421529.4
2016-May-02 15:33N 31°06' E 121°27'3131.0
2016-May-02 15:32N 31°04' E 121°28'8124400.6
2016-May-02 15:31N 29°49' E 122°06'6234456.3
2016-May-02 15:23N 22°40' E 113°42'2529438.4
2016-May-02 15:21N 24°25' E 117°52'46115236.6
2016-May-02 15:20N 31°26' E 121°25'12681.3
2016-May-02 15:19N 31°18' E 121°34'881335.7
2016-May-02 15:15N 31°59' E 120°02'64689489.2
2016-May-02 15:14N 22°52' E 113°32'624921.2
2016-May-02 14:34N 29°55' E 122°05'39474617.5
2016-May-02 14:33N 24°25' E 118°04'454272613.6
2016-May-02 14:33N 31°19' E 121°34'14688.7
2016-May-02 14:32N 31°30' E 121°24'3015331.7
2016-May-02 14:32N 31°00' E 121°27'261464.4
2016-May-02 14:31N 31°26' E 121°25'66599712.9
2016-May-02 14:30N 22°48' E 113°36'65064985.7
2016-May-02 14:30N 31°04' E 121°28'316.0
2016-May-02 14:20N 31°01' E 121°29'29212.5
2016-May-02 14:12N 31°30' E 121°23'460722.3
2016-May-02 13:34N 24°25' E 118°04'466186240.2
2016-May-02 13:33N 31°57' E 120°09'8613530.1
2016-May-02 13:33N 31°04' E 121°28'266753.3
2016-May-02 13:33N 31°30' E 121°23'298771.6
2016-May-02 13:33N 31°00' E 121°27'2011925.5
2016-May-02 13:32N 31°19' E 121°34'848641.1
2016-May-02 13:32N 29°58' E 121°56'96353.9
2016-May-02 13:16N 31°30' E 121°24'17386.1
2016-May-02 13:13N 31°14' E 121°30'448681.6
2016-May-02 12:34N 24°25' E 118°04'46148793.3
2016-May-02 12:33N 31°30' E 121°24'142445.7
2016-May-02 12:33N 31°19' E 121°34'690130775.4
2016-May-02 12:32N 22°08' E 113°49'67583824.4
2016-May-02 12:32N 31°04' E 121°28'6469979.2
2016-May-02 12:28N 23°03' E 113°25'6602238.3
2016-May-02 12:10N 31°26' E 121°25'26761.8
2016-May-02 12:08N 31°00' E 121°27'29697.1
2016-May-02 12:06N 31°30' E 121°23'460856.4
2016-May-02 11:33N 24°25' E 118°04'435782317.2
2016-May-02 11:33N 31°00' E 121°27'6751214509.4
2016-May-02 11:33N 22°11' E 113°38'696835649.5
2016-May-02 11:33N 31°30' E 121°24'122074.0
2016-May-02 11:33N 31°20' E 121°32'288.6
2016-May-02 11:32N 31°19' E 121°34'204694.7
2016-May-02 11:32N 31°01' E 121°27'29861.1
2016-May-02 11:30N 31°30' E 121°23'390.8
2016-May-02 11:27N 31°26' E 121°25'662270.8
2016-May-02 11:26N 31°57' E 120°17'50134.1
2016-May-02 11:03N 31°40' E 121°12'1428.9
2016-May-02 10:33N 31°30' E 121°24'629667.8
2016-May-02 10:33N 31°60' E 120°20'5820943.3
2016-May-02 10:33N 31°17' E 121°06'28153159.5
2016-May-02 10:33N 26°45' E 119°43'16731656.6
2016-May-02 10:32N 24°25' E 118°04'43562585.4
2016-May-02 10:32N 31°00' E 121°27'395465.6
2016-May-02 10:31N 31°39' E 121°14'25438.0
2016-May-02 10:28N 31°19' E 121°34'66162629.0
2016-May-02 10:27N 22°54' E 113°35'63616601.3
2016-May-02 10:25N 30°58' E 121°18'2466.5
2016-May-02 10:04N 31°18' E 121°34'453899.6
2016-May-02 09:34N 24°25' E 118°04'435223519.2
2016-May-02 09:33N 31°00' E 121°27'439263164.1
2016-May-02 09:33N 24°25' E 117°52'46443996.5
2016-May-02 09:33N 31°30' E 121°24'71779.6
2016-May-02 09:32N 31°35' E 121°18'65926372.2
2016-May-02 09:31N 23°04' E 113°30'65615242.2
2016-May-02 09:28N 31°26' E 121°25'458499.5
2016-May-02 08:33N 24°25' E 118°04'435391163.5
2016-May-02 08:33N 31°00' E 121°27'314075.5
2016-May-02 08:33N 31°31' E 121°22'2913.6
2016-May-02 08:33N 31°30' E 121°24'133236.3
2016-May-02 08:32N 31°19' E 121°34'6565146.8
2016-May-02 08:25N 23°04' E 113°30'6393624.6
2016-May-02 08:14N 31°17' E 121°07'4475359.8
2016-May-02 08:09N 24°25' E 117°52'458768.4
2016-May-02 07:33N 31°19' E 121°34'2017888.2
2016-May-02 07:33N 31°00' E 121°27'435223522.0
2016-May-02 07:33N 24°25' E 118°04'46043620.7
2016-May-02 07:33N 31°30' E 121°25'1655.3
2016-May-02 07:33N 31°30' E 121°24'191160.3
2016-May-02 07:32N 31°17' E 121°07'19102.3
2016-May-02 07:21N 31°30' E 121°23'6583326.2
2016-May-02 07:09N 23°04' E 113°30'6569885.1
2016-May-02 07:05N 31°26' E 121°25'2649.1
2016-May-02 06:33N 31°00' E 121°27'435195581.8
2016-May-02 06:33N 24°25' E 118°04'460331505.1
2016-May-02 06:33N 31°30' E 121°25'11843.9
2016-May-02 06:33N 31°30' E 121°23'1249.9
2016-May-02 06:33N 31°30' E 121°24'1917378.0
2016-May-02 06:33N 31°17' E 121°07'2327037.7
2016-May-02 06:32N 31°19' E 121°34'4585204.4
2016-May-02 06:27N 24°25' E 117°52'2539306.0
2016-May-02 06:26N 23°04' E 113°30'65855109.0
2016-May-02 06:25N 31°24' E 121°31'5 5.8
2016-May-02 05:33N 31°19' E 121°34'178321251.1
2016-May-02 05:33N 31°25' E 118°05'17143879.7
2016-May-02 05:33N 31°26' E 121°25'45865898.8
2016-May-02 05:33N 24°25' E 118°04'46124039.0
2016-May-02 05:32N 31°30' E 121°24'14331.0
2016-May-02 05:29N 31°40' E 121°13'162155.3
2016-May-02 05:29N 31°28' E 121°25'210.9
2016-May-02 05:18N 31°30' E 121°23'1318.2
2016-May-02 04:34N 31°19' E 121°34'133031.9
2016-May-02 04:33N 31°30' E 121°24'461127594.6
2016-May-02 04:33N 24°25' E 118°04'46522932.5
2016-May-02 04:32N 31°38' E 121°16'384744.7
2016-May-02 04:31N 31°01' E 121°26'29380.0
2016-May-02 04:27N 31°30' E 121°23'169.2
2016-May-02 04:26N 31°30' E 121°24'361.7
2016-May-02 04:23N 31°26' E 121°25'26120.9
2016-May-02 04:10N 31°00' E 121°27'2032.6
2016-May-02 03:33N 31°19' E 121°34'454148696.6
2016-May-02 03:33N 24°25' E 118°04'4371572877.7
2016-May-02 03:33N 31°02' E 121°29'2834002.2
2016-May-02 03:33N 31°30' E 121°24'464238860.5
2016-May-02 03:33N 24°25' E 117°52'439789502.2
2016-May-02 03:33N 31°00' E 121°27'291814.4
2016-May-02 03:32N 31°30' E 121°23'61144.3
2016-May-02 03:32N 31°35' E 121°19'1084.5
2016-May-02 03:25N 31°26' E 121°25'35315143.2
2016-May-02 03:24N 25°45' E 119°39'80543907.3
2016-May-02 03:22N 39°05' E 117°46'9856592.5
2016-May-02 03:14N 23°04' E 113°29'64126217.8
2016-May-02 03:12N 31°02' E 121°29'2 3.8
2016-May-02 02:33N 31°00' E 121°27'312605.2
2016-May-02 02:33N 31°31' E 121°23'301320.9
2016-May-02 02:31N 31°02' E 121°29'29827.9
2016-May-02 02:29N 31°30' E 121°24'142574.4
2016-May-02 02:29N 31°19' E 121°34'45815712.3
2016-May-02 02:27N 24°25' E 117°52'2542095.9
2016-May-02 02:20N 23°04' E 113°29'98586483.2
2016-May-02 02:19N 39°04' E 117°48'103513358.6
2016-May-02 02:14N 22°11' E 113°38'6971018.1
2016-May-02 01:33N 31°28' E 121°28'42605.1
2016-May-02 01:33N 31°30' E 121°24'461331788.0
2016-May-02 01:33N 24°25' E 118°04'437393049.9
2016-May-02 01:33N 31°02' E 121°29'183094.0
2016-May-02 01:33N 31°19' E 121°34'65628819.2
2016-May-02 01:31N 23°04' E 113°29'64145232.9
2016-May-02 01:31N 31°02' E 121°29'64810853.6
2016-May-02 01:27N 23°03' E 113°18'66433183.0
2016-May-02 01:26N 31°26' E 121°25'31150.8
2016-May-02 01:13N 30°57' E 121°11'426638.2
2016-May-02 00:33N 24°25' E 118°04'447804558.0
2016-May-02 00:33N 31°13' E 121°30'74423.4
2016-May-02 00:33N 31°19' E 121°34'458206223.4
2016-May-02 00:33N 24°25' E 117°52'44484142.5
2016-May-02 00:33N 31°06' E 121°27'64975315.4
2016-May-02 00:32N 23°02' E 113°23'66474713.1
2016-May-02 00:32N 31°30' E 121°24'3430172.8
2016-May-02 00:32N 30°58' E 121°14'26436494.1
2016-May-02 00:31N 26°46' E 119°43'29210108.7
2016-May-02 00:29N 31°23' E 121°30'226546.8
2016-May-02 00:29N 31°01' E 121°30'64122194.5
2016-May-02 00:27N 23°04' E 113°29'6563319.3
2016-May-02 00:16N 31°26' E 121°25'4927735.3
2016-May-02 00:12N 39°05' E 117°45'471734.9
2016-May-01 23:33N 31°44' E 121°07'2017610.9
2016-May-01 23:33N 31°30' E 121°24'461276483.4
2016-May-01 23:33N 24°25' E 118°04'43738331.1
2016-May-01 23:33N 31°01' E 121°30'641256548.6
2016-May-01 23:32N 23°05' E 113°28'6572364585.6
2016-May-01 23:32N 31°19' E 121°34'17945972.3
2016-May-01 23:32N 31°25' E 118°04'16814081.4
2016-May-01 23:31N 30°58' E 121°18'31815.2
2016-May-01 23:29N 31°30' E 121°23'46413354.8
2016-May-01 23:27N 24°25' E 117°52'44920440.7
2016-May-01 23:26N 31°11' E 121°28'11520.4
2016-May-01 23:24N 31°22' E 121°30'4504937.4
2016-May-01 23:19N 38°52' E 121°32'4422693.8
2016-May-01 23:09N 31°30' E 121°24'1 0.9
2016-May-01 22:34N 31°30' E 121°24'46159247.1
2016-May-01 22:33N 24°25' E 118°04'9538054.0
2016-May-01 22:33N 25°24' E 119°26'387348548.3
2016-May-01 22:33N 31°40' E 121°13'69462457.6
2016-May-01 22:32N 22°14' E 113°42'691355560.4
2016-May-01 22:32N 31°30' E 121°23'141404.7
2016-May-01 22:31N 31°18' E 121°34'1666.5
2016-May-01 22:31N 31°19' E 121°34'171269.4
2016-May-01 22:31N 31°03' E 121°29'46717713.1
2016-May-01 22:29N 38°50' E 121°34'85435748.4
2016-May-01 22:28N 24°46' E 119°01'40950809.7
2016-May-01 22:27N 31°14' E 121°29'452406816.2
2016-May-01 22:27N 24°25' E 117°52'2542744.2
2016-May-01 22:21N 23°04' E 113°29'65650261.3
2016-May-01 22:21N 31°22' E 121°30'1761923.1
2016-May-01 22:15N 31°25' E 118°04'404582.9
2016-May-01 21:34N 24°43' E 118°53'41567872.5
2016-May-01 21:33N 31°15' E 121°29'175157944.9
2016-May-01 21:33N 31°25' E 118°04'179128722.5
2016-May-01 21:33N 31°19' E 121°34'204141.2
2016-May-01 21:33N 31°01' E 121°27'30106786.2
2016-May-01 21:33N 31°30' E 121°24'46157205.8
2016-May-01 21:32N 24°25' E 118°04'45095376.9
2016-May-01 21:32N 31°15' E 121°33'24695.3
2016-May-01 21:30N 31°36' E 121°17'43427931.7
2016-May-01 21:29N 38°50' E 121°33'1033743938.1
2016-May-01 21:29N 23°04' E 113°29'6569642.0
2016-May-01 21:25N 31°22' E 121°30'7181.4
2016-May-01 21:22N 31°28' E 121°25'46320847.3
2016-May-01 21:21N 24°25' E 117°52'2735923.7
2016-May-01 21:18N 22°11' E 113°33'652239928.0
2016-May-01 21:08N 37°47' W 122°16'57549761.5
2016-May-01 20:33N 31°19' E 121°34'172207.9
2016-May-01 20:33N 31°03' E 121°28'276472.4
2016-May-01 20:32N 31°30' E 121°24'4611658868.1
2016-May-01 20:32N 24°25' E 118°04'26459436.1
2016-May-01 20:32N 23°04' E 113°29'659215657.4
2016-May-01 20:32N 31°32' E 121°21'51704.6
2016-May-01 20:32N 31°28' E 121°25'57531294347.8
2016-May-01 20:31N 37°48' W 122°19'575288875.6
2016-May-01 20:28N 31°19' E 121°33'5250.2
2016-May-01 20:26N 31°22' E 121°30'14226.3
2016-May-01 20:23N 31°08' E 121°28'44615287.4
2016-May-01 20:21N 24°25' E 117°52'1061152.4
2016-May-01 20:15N 25°33' E 119°21'366522.7
2016-May-01 19:33N 31°21' E 121°32'455204740.2
2016-May-01 19:33N 24°25' E 118°04'2831020226.8
2016-May-01 19:33N 22°11' E 113°32'700229193.2
2016-May-01 19:33N 31°30' E 121°24'57474137595.6
2016-May-01 19:33N 37°52' W 122°23'5746356627.2
2016-May-01 19:32N 31°19' E 121°34'36513157.9
2016-May-01 19:30N 25°33' E 119°21'3739865.7
2016-May-01 19:28N 31°30' E 121°24'053.4
2016-May-01 19:28N 31°30' E 121°24'26313.6
2016-May-01 19:23N 31°04' E 121°28'64227520.2
2016-May-01 19:22N 23°04' E 113°29'264328.7
2016-May-01 18:33N 24°25' E 118°04'98117489.8
2016-May-01 18:33N 25°33' E 119°21'373671597.6
2016-May-01 18:33N 31°30' E 121°24'659338825.5
2016-May-01 18:33N 23°04' E 113°29'65678771.6
2016-May-01 18:33N 31°19' E 121°34'69389137.5
2016-May-01 18:32N 22°11' E 113°38'69423131.7
2016-May-01 18:30N 31°23' E 121°30'196777.0
2016-May-01 18:30N 31°04' E 121°28'19650.5
2016-May-01 18:28N 31°20' E 121°40'16264.5
2016-May-01 18:25N 31°30' E 121°24'93361.4
2016-May-01 18:09N 29°59' E 121°48'85856.5
2016-May-01 18:03N 31°22' E 121°30'1836.7
2016-May-01 17:33N 31°04' E 121°28'349251633.2
2016-May-01 17:33N 25°33' E 119°21'373223876.2
2016-May-01 17:33N 31°30' E 121°24'461110588.6
2016-May-01 17:33N 24°25' E 118°04'454125820.2
2016-May-01 17:33N 31°19' E 121°34'8311503.4
2016-May-01 17:32N 29°58' E 121°53'908264.0
2016-May-01 17:32N 31°25' E 121°30'172.2
2016-May-01 17:31N 31°24' E 121°31'8295.5
2016-May-01 17:29N 31°30' E 121°24'3363379.0
2016-May-01 17:23N 26°08' E 119°34'33214555.4
2016-May-01 17:22N 31°21' E 121°39'3013712.7
2016-May-01 17:21N 30°58' E 121°16'43238889.8
2016-May-01 17:21N 24°25' E 117°52'4649944.5
2016-May-01 17:18N 31°30' E 121°24'6593698.9
2016-May-01 17:07N 23°04' E 113°29'6561164.1
2016-May-01 16:34N 31°19' E 121°34'454817831.1
2016-May-01 16:33N 24°25' E 118°04'46159245.3
2016-May-01 16:33N 31°30' E 121°24'0574.9
2016-May-01 16:33N 31°30' E 121°24'9927344.3
2016-May-01 16:33N 29°56' E 122°01'7286723.1
2016-May-01 16:33N 30°58' E 121°19'10683.0
2016-May-01 16:32N 31°04' E 121°28'253803.7
2016-May-01 16:31N 31°29' E 121°25'0 2.2
2016-May-01 16:29N 31°29' E 121°25'1 5.2
2016-May-01 16:14N 31°30' E 121°23'1 1.2
2016-May-01 15:33N 31°30' E 121°24'519131.1
2016-May-01 15:33N 31°33' E 121°19'108390057.0
2016-May-01 15:33N 29°54' E 122°09'395473706.6
2016-May-01 15:33N 24°25' E 118°04'46087234.1
2016-May-01 15:33N 31°30' E 121°24'348653.5
2016-May-01 15:33N 30°57' E 121°13'355023.8
2016-May-01 15:32N 31°32' E 121°21'353.4
2016-May-01 15:29N 31°30' E 121°23'26729.1
2016-May-01 15:27N 31°04' E 121°28'4422182.0
2016-May-01 15:15N 24°25' E 117°52'46116947.0
2016-May-01 15:13N 31°20' E 121°40'165864.9
2016-May-01 15:13N 31°30' E 121°24'460700.0
2016-May-01 14:34N 24°25' E 118°04'43091103.9
2016-May-01 14:33N 30°59' E 121°19'3228656.0
2016-May-01 14:33N 31°30' E 121°24'10877927.8
2016-May-01 14:33N 29°48' E 122°05'1143867.9
2016-May-01 14:31N 31°34' E 121°18'201470.8
2016-May-01 14:30N 31°19' E 121°34'13604.3
2016-May-01 14:29N 31°30' E 121°23'26533.2
2016-May-01 14:26N 31°04' E 121°28'371069.6
2016-May-01 14:24N 31°39' E 121°13'1 0.8
2016-May-01 13:34N 31°39' E 121°13'465558510.9
2016-May-01 13:33N 24°25' E 118°04'461414725.0
2016-May-01 13:33N 31°30' E 121°24'308385.6
2016-May-01 13:33N 30°60' E 121°25'301670.0
2016-May-01 13:32N 31°30' E 121°23'1137032.7
2016-May-01 13:31N 29°42' E 122°05'1124529.8
2016-May-01 13:30N 31°29' E 121°25'65817819.2
2016-May-01 13:27N 23°04' E 113°29'65630690.0
2016-May-01 13:26N 31°19' E 121°34'161406.5
2016-May-01 13:25N 31°04' E 121°28'352968.9
2016-May-01 13:25N 31°37' E 121°16'256087.8
2016-May-01 13:25N 31°21' E 121°39'14236.9
2016-May-01 13:21N 31°28' E 121°25'2 2.8
2016-May-01 12:33N 31°30' E 121°24'373671666.6
2016-May-01 12:33N 25°33' E 119°21'28854596.8
2016-May-01 12:33N 29°41' E 122°06'126227308.0
2016-May-01 12:33N 31°39' E 121°13'465558517.7
2016-May-01 12:33N 24°25' E 118°04'4619703.9
2016-May-01 12:30N 31°31' E 121°21'9771.4
2016-May-01 12:29N 31°38' E 121°14'37822.0
2016-May-01 12:27N 31°04' E 121°28'19650.0
2016-May-01 12:25N 31°21' E 121°39'5383.0
2016-May-01 12:24N 31°19' E 121°34'1416.1
2016-May-01 11:33N 31°30' E 121°24'461414715.2
2016-May-01 11:33N 24°25' E 118°04'9835246.9
2016-May-01 11:33N 25°33' E 119°21'29116365.9
2016-May-01 11:32N 29°46' E 122°04'8425145.0
2016-May-01 11:32N 31°04' E 121°28'385417.7
2016-May-01 11:32N 31°39' E 121°13'161.5
2016-May-01 11:31N 31°40' E 121°12'14248.9
2016-May-01 11:27N 31°30' E 121°23'6585778.1
2016-May-01 11:21N 23°04' E 113°29'112812607.3
2016-May-01 11:15N 40°21' E 122°09'54315758.7
2016-May-01 11:13N 31°19' E 121°34'454684.4
2016-May-01 10:33N 24°25' E 118°04'461414696.9
2016-May-01 10:33N 31°30' E 121°24'171450.5
2016-May-01 10:33N 31°41' E 121°10'303004.6
2016-May-01 10:32N 31°19' E 121°34'222226.2
2016-May-01 10:31N 31°36' E 121°17'11431450.0
2016-May-01 10:31N 29°51' E 122°08'803946.8
2016-May-01 10:30N 31°04' E 121°28'381934.9
2016-May-01 10:29N 31°39' E 121°13'13108.4
2016-May-01 10:21N 31°30' E 121°23'282160.5
2016-May-01 10:21N 31°02' E 121°29'135012.7
2016-May-01 10:21N 31°14' E 121°29'144139.3
2016-May-01 10:20N 31°01' E 121°27'4602.3
2016-May-01 10:20N 30°59' E 121°23'34312119.1
2016-May-01 10:18N 25°33' E 119°21'3541437.4
2016-May-01 10:03N 23°04' E 113°29'6181235.6
2016-May-01 09:33N 29°55' E 122°05'7466909.1
2016-May-01 09:33N 31°03' E 121°29'437314965.7
2016-May-01 09:33N 24°25' E 118°04'44293664.9
2016-May-01 09:33N 31°15' E 121°09'2125658.0
2016-May-01 09:33N 31°19' E 121°34'142723.2
2016-May-01 09:33N 31°30' E 121°24'1243589.9
2016-May-01 09:33N 31°39' E 121°14'242272.8
2016-May-01 09:32N 31°16' E 121°04'24416.7
2016-May-01 09:29N 31°04' E 121°28'44214750.0
2016-May-01 09:27N 24°25' E 117°52'4645266.2
2016-May-01 09:21N 31°30' E 121°23'580.5
2016-May-01 09:17N 31°31' E 121°17'9894.6
2016-May-01 09:17N 31°39' E 121°13'382820.0
2016-May-01 09:16N 31°04' E 121°28'2637.2
2016-May-01 08:34N 31°30' E 121°24'9715942.3
2016-May-01 08:33N 29°57' E 121°58'8530518.4
2016-May-01 08:33N 31°19' E 121°34'1220858.9
2016-May-01 08:33N 31°29' E 121°27'461184349.7
2016-May-01 08:33N 24°25' E 118°04'46593085.1
2016-May-01 08:32N 31°39' E 121°13'371160.3
2016-May-01 08:31N 31°05' E 121°28'25488.3
2016-May-01 08:27N 31°30' E 121°23'191620.5
2016-May-01 08:27N 31°17' E 121°06'23884.4
2016-May-01 08:25N 31°04' E 121°28'467.6
2016-May-01 08:22N 31°01' E 121°27'21359.0
2016-May-01 08:19N 31°21' E 121°31'3666496.4
2016-May-01 08:15N 25°33' E 119°21'3542664.3
2016-May-01 08:07N 23°04' E 113°29'541230.2
2016-May-01 08:05N 22°10' E 113°32'6811313.0
2016-May-01 07:33N 31°15' E 121°09'1967192.5
2016-May-01 07:33N 31°30' E 121°23'4601656238.6
2016-May-01 07:33N 24°25' E 118°04'438121427.5
2016-May-01 07:33N 31°04' E 121°28'44274.4
2016-May-01 07:33N 31°01' E 121°27'304627.6
2016-May-01 07:33N 31°30' E 121°24'659592911.1
2016-May-01 07:33N 23°04' E 113°29'985295535.1
2016-May-01 07:33N 39°04' E 117°47'58223288.1
2016-May-01 07:31N 29°58' E 121°50'7019283.4
2016-May-01 07:31N 31°05' E 121°28'355961.6
2016-May-01 07:30N 31°37' E 121°15'11173.1
2016-May-01 07:27N 31°30' E 121°24'814941.6
2016-May-01 07:27N 31°24' E 121°31'69120558.3
2016-May-01 07:25N 22°14' E 113°42'6896260.8
2016-May-01 07:18N 31°19' E 121°34'26130.3
2016-May-01 07:06N 31°39' E 121°13'31743945.3
2016-May-01 07:06N 36°49' E 122°37'349653.8
2016-May-01 06:34N 31°05' E 121°28'439263351.6
2016-May-01 06:33N 24°24' E 118°05'438526181.4
2016-May-01 06:33N 31°04' E 121°28'6742424908.0
2016-May-01 06:33N 22°15' E 113°42'36894586.8
2016-May-01 06:33N 25°33' E 119°21'9825176.4
2016-May-01 06:33N 24°25' E 118°04'454109045.5
2016-May-01 06:33N 31°19' E 121°34'692118560.3
2016-May-01 06:32N 22°12' E 113°40'99878095.0
2016-May-01 06:32N 36°52' E 122°41'328393871.5
2016-May-01 06:31N 31°30' E 121°24'13390.6
2016-May-01 06:30N 31°39' E 121°13'6593662.8
2016-May-01 06:19N 23°04' E 113°29'6584253.1
2016-May-01 06:09N 31°30' E 121°23'4898837.4
2016-May-01 06:06N 39°05' E 117°46'8801615.1
2016-May-01 05:33N 24°25' E 118°04'4611658616.2
2016-May-01 05:33N 31°30' E 121°24'262263.8
2016-May-01 05:33N 31°05' E 121°28'283472.4
2016-May-01 05:32N 31°32' E 121°21'172061.1
2016-May-01 05:32N 31°19' E 121°34'1316115.5
2016-May-01 05:32N 31°30' E 121°23'261944.5
2016-May-01 05:31N 31°04' E 121°28'17666.2
2016-May-01 05:29N 31°21' E 121°27'4589749.0
2016-May-01 05:27N 24°25' E 117°52'2534321.1
2016-May-01 05:23N 22°49' E 113°36'667806.6
2016-May-01 04:33N 31°30' E 121°24'46169109.0
2016-May-01 04:33N 24°25' E 118°04'454125821.7
2016-May-01 04:33N 31°19' E 121°34'65662189.0
2016-May-01 04:32N 23°04' E 113°29'64230836.9
2016-May-01 04:31N 31°05' E 121°28'46738237.5
2016-May-01 04:30N 38°52' E 121°32'44217500.6
2016-May-01 04:29N 31°30' E 121°23'66140358.9
2016-May-01 04:28N 22°55' E 113°36'3169.5
2016-May-01 04:27N 22°53' E 113°34'254130442.5
2016-May-01 04:27N 24°25' E 117°52'44266372.2
2016-May-01 04:26N 31°04' E 121°28'17146.7
2016-May-01 04:19N 31°21' E 121°27'454585.2
2016-May-01 03:32N 24°25' E 118°04'46157194.4
2016-May-01 03:32N 31°30' E 121°24'261546.9
2016-May-01 03:31N 31°05' E 121°28'35021353.9
2016-May-01 03:30N 25°33' E 119°21'36639873.1
2016-May-01 03:29N 31°19' E 121°34'66051621.7
2016-May-01 03:29N 22°55' E 113°36'64522332.6
2016-May-01 03:27N 31°04' E 121°28'261193.4
2016-May-01 03:26N 31°30' E 121°24'9757.1
2016-May-01 03:25N 31°21' E 121°27'657591006.1
2016-May-01 03:25N 22°59' E 113°31'66118016.9
2016-May-01 03:23N 31°30' E 121°23'46412551.1
2016-May-01 03:20N 24°25' E 117°52'2542140.6
2016-May-01 03:13N 23°04' E 113°29'633939.9
2016-May-01 02:33N 30°59' E 121°20'248502.6
2016-May-01 02:33N 31°19' E 121°34'142432.0
2016-May-01 02:32N 31°30' E 121°24'46150262.9
2016-May-01 02:32N 24°25' E 118°04'43915333.2
2016-May-01 02:30N 31°04' E 121°28'194.4
2016-May-01 02:29N 31°05' E 121°28'1759801.5
2016-May-01 02:29N 31°22' E 121°29'656236022.8
2016-May-01 02:29N 23°05' E 113°28'65876430.6
2016-May-01 02:29N 31°30' E 121°23'164.4
2016-May-01 02:28N 31°30' E 121°24'2121.5
2016-May-01 02:27N 31°28' E 121°25'46338783.3
2016-May-01 02:26N 24°25' E 117°52'4701767.2
2016-May-01 02:11N 31°40' E 121°13'69913977.7
2016-May-01 02:08N 22°11' E 113°38'5432492.3
2016-May-01 02:07N 23°04' E 113°29'6341122.3
2016-May-01 01:33N 30°59' E 121°22'431110933.3
2016-May-01 01:33N 24°25' E 118°04'461165882.8
2016-May-01 01:33N 31°30' E 121°24'132557.7
2016-May-01 01:33N 31°19' E 121°34'13743.8
2016-May-01 01:32N 31°30' E 121°23'261929.2
2016-May-01 01:31N 31°04' E 121°28'2753946.4
2016-May-01 01:27N 26°45' E 119°43'40519700.5
2016-May-01 01:25N 23°04' E 113°29'65827878.9
2016-May-01 01:24N 31°28' E 121°25'18131.7
2016-May-01 01:16N 31°10' E 121°28'6789073.6
2016-May-01 01:11N 22°14' E 113°42'6944967.5
2016-May-01 01:03N 31°45' E 121°06'469957.2
2016-May-01 00:33N 24°25' E 118°04'467420671.1
2016-May-01 00:33N 31°43' E 121°08'2011947.7
2016-May-01 00:33N 31°29' E 121°25'21086.5
2016-May-01 00:33N 31°30' E 121°24'1416341.8
2016-May-01 00:33N 31°19' E 121°34'201686.9
2016-May-01 00:32N 31°01' E 121°27'63952270.6
2016-May-01 00:32N 23°06' E 113°27'103327755.5
2016-May-01 00:29N 38°51' E 121°34'441793613.0
2016-May-01 00:29N 31°30' E 121°24'188104.2
2016-May-01 00:29N 31°12' E 121°30'6243.9
2016-May-01 00:28N 31°07' E 121°28'1611876.0
2016-May-01 00:28N 30°57' E 121°12'26316344.1
2016-May-01 00:27N 26°46' E 119°42'75833.9
2016-May-01 00:21N 25°33' E 119°21'3667205.6
2016-May-01 00:18N 31°21' E 121°32'1823.6
2016-Apr-30 23:33N 31°03' E 121°28'274258.0
2016-Apr-30 23:33N 31°30' E 121°24'461331784.0
2016-Apr-30 23:33N 24°25' E 118°04'454109044.1
2016-Apr-30 23:33N 31°19' E 121°34'45868740.3
2016-Apr-30 23:32N 24°25' E 117°52'43217103.3
2016-Apr-30 23:31N 30°57' E 121°17'33819.9
2016-Apr-30 23:28N 31°30' E 121°24'022.0
2016-Apr-30 23:28N 31°30' E 121°24'11507.9
2016-Apr-30 23:26N 31°38' E 121°15'66028971.7
2016-Apr-30 23:25N 23°06' E 113°27'103322811.9
2016-Apr-30 23:22N 38°51' E 121°33'4321823.5
2016-Apr-30 23:08N 31°39' E 121°13'29501.2
2016-Apr-30 23:05N 31°17' E 121°34'452870.5
2016-Apr-30 22:34N 24°25' E 118°04'461184324.5
2016-Apr-30 22:33N 31°30' E 121°24'59146.1
2016-Apr-30 22:33N 31°34' E 121°20'54899.5
2016-Apr-30 22:33N 31°30' E 121°24'132122.6
2016-Apr-30 22:33N 31°20' E 121°33'163501.8
2016-Apr-30 22:33N 31°31' E 121°21'3238638.3
2016-Apr-30 22:33N 30°59' E 121°22'238207.4
2016-Apr-30 22:32N 31°19' E 121°34'65720200.3
2016-Apr-30 22:30N 23°06' E 113°27'6584156.4
2016-Apr-30 22:21N 31°30' E 121°23'14141.5
2016-Apr-30 22:15N 31°40' E 121°13'1522.1
2016-Apr-30 21:33N 31°30' E 121°26'113628.5
2016-Apr-30 21:33N 31°20' E 121°33'1214946.9
2016-Apr-30 21:33N 31°30' E 121°24'461127609.2
2016-Apr-30 21:33N 24°25' E 118°04'462831696.1
2016-Apr-30 21:33N 31°33' E 121°19'5989.6
2016-Apr-30 21:33N 31°37' E 121°16'46899188.4
2016-Apr-30 21:32N 24°25' E 117°52'46163831.6
2016-Apr-30 21:32N 31°24' E 121°31'44732827.8
2016-Apr-30 21:31N 38°50' E 121°33'470153768.3
2016-Apr-30 21:31N 31°01' E 121°27'291873.8
2016-Apr-30 21:30N 31°30' E 121°23'381183.8
2016-Apr-30 21:28N 31°57' E 120°52'382125.8
2016-Apr-30 21:27N 31°30' E 121°24'65912955.0
2016-Apr-30 21:24N 23°06' E 113°27'64026475.0
2016-Apr-30 21:22N 31°56' E 120°11'113802.4
2016-Apr-30 21:14N 31°25' E 118°03'1771406.7
2016-Apr-30 21:06N 31°13' E 121°30'814.9
2016-Apr-30 20:33N 31°20' E 121°33'173135.8
2016-Apr-30 20:33N 31°33' E 121°20'57472068806.6
2016-Apr-30 20:33N 37°53' W 122°24'57481217188.6
2016-Apr-30 20:33N 31°36' E 121°17'84236.8
2016-Apr-30 20:33N 31°30' E 121°24'0236.0
2016-Apr-30 20:32N 31°30' E 121°24'8681.2
2016-Apr-30 20:32N 31°24' E 121°31'41368.5
2016-Apr-30 20:32N 31°27' E 121°28'69326276.3
2016-Apr-30 20:30N 22°13' E 113°40'547197.2
2016-Apr-30 20:29N 23°06' E 113°27'65987829.2
2016-Apr-30 20:29N 31°25' E 121°31'65923713.0
2016-Apr-30 20:27N 23°04' E 113°29'122003.9
2016-Apr-30 20:27N 22°54' E 113°35'25221627.8
2016-Apr-30 20:26N 24°25' E 117°52'480108039.5
2016-Apr-30 20:26N 32°00' E 120°45'45534.7
2016-Apr-30 20:21N 31°30' E 121°23'1 1.0
2016-Apr-30 19:33N 31°30' E 121°24'46139495.4
2016-Apr-30 19:33N 24°25' E 118°04'619311147513.8
2016-Apr-30 19:32N 37°51' W 122°23'5746985010.0
2016-Apr-30 19:32N 31°30' E 121°26'2208.6
2016-Apr-30 19:31N 31°30' E 121°23'124.1
2016-Apr-30 19:29N 31°30' E 121°24'299.8
2016-Apr-30 19:28N 31°28' E 121°26'46418141.4
2016-Apr-30 19:26N 24°25' E 117°52'2551613.4
2016-Apr-30 19:17N 23°06' E 113°27'56770.5
2016-Apr-30 19:12N 22°13' E 113°48'269414.9
2016-Apr-30 18:34N 24°25' E 118°04'461150795.4
2016-Apr-30 18:33N 31°30' E 121°24'659338825.8
2016-Apr-30 18:33N 23°04' E 113°29'65667519.0
2016-Apr-30 18:33N 31°19' E 121°34'84887.0
2016-Apr-30 18:33N 31°27' E 121°29'5750169681.1
2016-Apr-30 18:31N 37°48' W 122°19'575310354727.6
2016-Apr-30 18:30N 31°30' E 121°24'3318.6
2016-Apr-30 18:30N 31°32' E 121°21'711407.6
2016-Apr-30 18:27N 31°58' E 120°03'6388569.3
2016-Apr-30 18:22N 23°06' E 113°27'2551086.4
2016-Apr-30 18:08N 24°25' E 117°52'458785.6
2016-Apr-30 17:33N 31°19' E 121°34'454109044.1
2016-Apr-30 17:33N 24°25' E 118°04'461331749.8
2016-Apr-30 17:33N 31°30' E 121°24'91522.2
2016-Apr-30 17:33N 31°23' E 121°30'69249738.0
2016-Apr-30 17:33N 31°59' E 120°20'101191.2
2016-Apr-30 17:32N 31°57' E 120°08'64053563.3
2016-Apr-30 17:31N 23°04' E 113°29'65934898.8
2016-Apr-30 17:30N 31°36' E 121°17'69292246.4
2016-Apr-30 17:30N 22°15' E 113°43'531659.0
2016-Apr-30 17:28N 23°06' E 113°27'2559563.0
2016-Apr-30 17:26N 24°25' E 117°52'46445117.0
2016-Apr-30 17:26N 31°30' E 121°23'1229.2
2016-Apr-30 17:25N 31°30' E 121°24'460530.9
2016-Apr-30 16:33N 24°25' E 118°04'276497421.9
2016-Apr-30 16:33N 22°12' E 113°40'69592644.2
2016-Apr-30 16:33N 31°30' E 121°24'1324263.4
2016-Apr-30 16:33N 31°19' E 121°34'13612.0
2016-Apr-30 16:32N 31°30' E 121°23'15579.7
2016-Apr-30 16:30N 31°41' E 121°11'15762.1
2016-Apr-30 16:29N 31°30' E 121°24'46410640.3
2016-Apr-30 16:26N 24°25' E 117°52'2562192.8
2016-Apr-30 16:19N 23°06' E 113°26'659148307.7
2016-Apr-30 16:19N 31°29' E 121°25'6595377.1
2016-Apr-30 16:12N 23°04' E 113°29'5485.3
2016-Apr-30 15:33N 22°11' E 113°38'697313558.5
2016-Apr-30 15:33N 31°30' E 121°24'46063745.4
2016-Apr-30 15:33N 24°25' E 118°04'454116834.4
2016-Apr-30 15:33N 31°19' E 121°34'132110.6
2016-Apr-30 15:32N 31°30' E 121°24'65912756.9
2016-Apr-30 15:29N 23°04' E 113°29'41869.8
2016-Apr-30 15:29N 23°00' E 113°31'797.8
2016-Apr-30 15:25N 23°06' E 113°26'6345097.1
2016-Apr-30 15:17N 30°59' E 121°21'64970748.6
2016-Apr-30 15:17N 22°19' E 114°07'6698626.4
2016-Apr-30 15:12N 31°59' E 120°20'611218.7
2016-Apr-30 15:09N 31°30' E 121°23'460777.0
2016-Apr-30 14:34N 24°25' E 118°04'46192156.0
2016-Apr-30 14:33N 31°30' E 121°24'66445079.2
2016-Apr-30 14:32N 23°02' E 113°24'66199196.6
2016-Apr-30 14:32N 31°19' E 121°34'13717.5
2016-Apr-30 14:31N 31°30' E 121°24'65962433.2
2016-Apr-30 14:30N 23°06' E 113°26'601673.3
2016-Apr-30 14:28N 22°19' E 114°08'67427562.7
2016-Apr-30 14:27N 31°30' E 121°23'607438.5
2016-Apr-30 14:26N 32°01' E 120°23'7126.7
2016-Apr-30 14:23N 31°57' E 120°17'631114.0
2016-Apr-30 14:20N 31°30' E 121°23'37337.0
2016-Apr-30 14:13N 31°55' E 120°52'475715.6
2016-Apr-30 13:33N 24°25' E 118°04'4618463.0
2016-Apr-30 13:30N 31°30' E 121°24'1416235.8
2016-Apr-30 13:30N 31°19' E 121°34'671172540.8
2016-Apr-30 13:30N 22°19' E 114°08'6469537.4
2016-Apr-30 13:26N 30°58' E 121°18'32326.0
2016-Apr-30 13:20N 31°30' E 121°23'130.0
2016-Apr-30 13:18N 31°30' E 121°24'42205.2
2016-Apr-30 13:06N 31°59' E 120°50'412036.6
2016-Apr-30 13:05N 31°30' E 121°23'1 1.5
2016-Apr-30 12:33N 31°30' E 121°24'46129624.2
2016-Apr-30 12:33N 24°25' E 118°04'43267683.3
2016-Apr-30 12:32N 30°59' E 121°23'22181.8
2016-Apr-30 12:25N 31°19' E 121°34'65720214.2
2016-Apr-30 12:23N 23°06' E 113°26'659103074.0
2016-Apr-30 12:23N 31°30' E 121°23'9538.7
2016-Apr-30 12:22N 31°22' E 121°28'10235.3
2016-Apr-30 12:19N 31°30' E 121°22'43898.0
2016-Apr-30 12:16N 32°00' E 120°46'478666.6
2016-Apr-30 11:33N 24°25' E 118°04'45560713.0
2016-Apr-30 11:33N 31°22' E 121°29'36750808.8
2016-Apr-30 11:32N 25°33' E 119°21'3951420850.9
2016-Apr-30 11:32N 32°00' E 120°48'4377225.6
2016-Apr-30 11:32N 31°30' E 121°24'475787.9
2016-Apr-30 11:32N 32°00' E 120°42'4712922.2
2016-Apr-30 11:32N 31°30' E 121°23'158.7
2016-Apr-30 11:31N 31°30' E 121°22'141285.6
2016-Apr-30 11:30N 31°19' E 121°34'193557.3
2016-Apr-30 11:30N 31°01' E 121°29'64130764.2
2016-Apr-30 11:28N 23°06' E 113°26'6605359.5
2016-Apr-30 11:21N 31°36' E 121°17'8414.0
2016-Apr-30 11:20N 31°30' E 121°24'29554.0
2016-Apr-30 11:17N 31°01' E 121°29'201484.3
2016-Apr-30 11:16N 31°12' E 121°09'439621.5
2016-Apr-30 10:33N 24°25' E 118°04'454204457.8
2016-Apr-30 10:33N 31°19' E 121°34'235629.4
2016-Apr-30 10:33N 31°37' E 121°16'102095.5
2016-Apr-30 10:33N 31°30' E 121°24'1334.5
2016-Apr-30 10:33N 31°31' E 121°23'15408.4
2016-Apr-30 10:30N 31°22' E 121°37'66116177.3
2016-Apr-30 10:28N 23°06' E 113°26'65937068.6
2016-Apr-30 10:27N 31°30' E 121°24'127.4
2016-Apr-30 10:26N 31°30' E 121°23'134.5
2016-Apr-30 10:24N 31°30' E 121°22'6926537.2
2016-Apr-30 10:18N 22°14' E 113°41'3692421.9
2016-Apr-30 10:08N 25°33' E 119°21'98168.1
2016-Apr-30 09:34N 24°25' E 118°04'46532216.4
2016-Apr-30 09:33N 31°39' E 121°14'12231.4
2016-Apr-30 09:29N 31°30' E 121°24'37537539.7
2016-Apr-30 09:29N 25°30' E 119°23'36820365.9
2016-Apr-30 09:28N 31°19' E 121°34'65781558.2
2016-Apr-30 09:27N 23°06' E 113°26'25612445.3
2016-Apr-30 09:26N 24°25' E 117°52'46466773.2
2016-Apr-30 09:26N 31°30' E 121°23'117.9
2016-Apr-30 09:24N 31°30' E 121°24'1148.3
2016-Apr-30 09:23N 31°30' E 121°22'16252.5
2016-Apr-30 09:19N 31°21' E 121°38'1698.2
2016-Apr-30 09:10N 31°31' E 121°23'2 2.5
2016-Apr-30 08:33N 31°30' E 121°24'091.8
2016-Apr-30 08:33N 31°30' E 121°24'461331770.8
2016-Apr-30 08:33N 24°25' E 118°04'454102227.6
2016-Apr-30 08:33N 31°19' E 121°34'6572365188.2
2016-Apr-30 08:33N 23°06' E 113°26'6601187685.0
2016-Apr-30 08:33N 31°41' E 121°10'47042275.7
2016-Apr-30 08:32N 24°25' E 117°52'46466773.2
2016-Apr-30 08:32N 31°30' E 121°23'161225.2
2016-Apr-30 08:31N 31°15' E 121°30'16762.3
2016-Apr-30 08:30N 31°30' E 121°22'1691289.4
2016-Apr-30 08:22N 31°25' E 118°04'1242164.0
2016-Apr-30 08:18N 32°01' E 120°24'591368.8
2016-Apr-30 08:16N 31°31' E 121°23'4862734.4
2016-Apr-30 08:05N 39°04' E 117°48'8801663.0
2016-Apr-30 07:33N 24°25' E 118°04'27281587.6
2016-Apr-30 07:33N 22°15' E 113°43'68760332.2
2016-Apr-30 07:32N 31°19' E 121°34'118275.5
2016-Apr-30 07:32N 31°29' E 121°26'29671010.4
2016-Apr-30 07:32N 26°47' E 119°43'29636714.5
2016-Apr-30 07:32N 31°30' E 121°23'190.3
2016-Apr-30 07:31N 31°30' E 121°22'1674.3
2016-Apr-30 07:31N 31°30' E 121°24'666581.0
2016-Apr-30 07:30N 31°56' E 120°13'484.2
2016-Apr-30 07:27N 31°57' E 120°18'133.6
2016-Apr-30 07:26N 31°57' E 120°17'470281703.5
2016-Apr-30 07:26N 24°25' E 117°52'2557652.1
2016-Apr-30 07:24N 23°06' E 113°27'6404123.2
2016-Apr-30 07:15N 31°17' E 121°09'1725.4
2016-Apr-30 06:33N 31°30' E 121°22'460551999.6
2016-Apr-30 06:33N 24°25' E 118°04'45432071.8
2016-Apr-30 06:32N 31°19' E 121°34'253301.4
2016-Apr-30 06:32N 31°17' E 121°05'63815309.6
2016-Apr-30 06:30N 23°06' E 113°27'61031810.4
2016-Apr-30 06:28N 29°58' E 121°49'844326.3
2016-Apr-30 06:27N 31°21' E 121°31'4350.2
2016-Apr-30 06:27N 31°25' E 121°32'459517.3
2016-Apr-30 05:33N 24°25' E 118°04'45778393.8
2016-Apr-30 05:33N 31°24' E 121°31'51465.9
2016-Apr-30 05:33N 31°19' E 121°34'152.8
2016-Apr-30 05:31N 31°20' E 121°33'855043.1
2016-Apr-30 05:30N 29°58' E 121°59'9611577.9
2016-Apr-30 05:30N 31°30' E 121°24'119.1
2016-Apr-30 05:28N 31°30' E 121°23'141.9
2016-Apr-30 05:27N 31°30' E 121°22'1736.0
2016-Apr-30 05:27N 31°31' E 121°23'4644190.4
2016-Apr-30 05:20N 24°25' E 117°52'1114.2
2016-Apr-30 04:34N 24°25' E 118°04'454181740.2
2016-Apr-30 04:33N 31°19' E 121°34'518515.2
2016-Apr-30 04:33N 31°15' E 121°30'224124.9
2016-Apr-30 04:33N 31°34' E 121°18'8442.9
2016-Apr-30 04:32N 31°29' E 121°26'10119173.9
2016-Apr-30 04:32N 29°54' E 122°08'1034019.7
2016-Apr-30 04:30N 31°30' E 121°24'115.4
2016-Apr-30 04:25N 31°31' E 121°23'6717197.7
2016-Apr-30 04:24N 31°57' E 120°10'3933350.6
2016-Apr-30 04:17N 25°26' E 119°25'355639149.2
2016-Apr-30 04:17N 23°06' E 113°27'2551642.7
2016-Apr-30 04:08N 24°25' E 117°52'4647987.2
2016-Apr-30 04:04N 31°30' E 121°23'1425.6
2016-Apr-30 03:32N 31°40' E 121°12'466279432.8
2016-Apr-30 03:32N 24°25' E 118°04'46740986.0
2016-Apr-30 03:32N 31°57' E 120°15'6432860.5
2016-Apr-30 03:31N 31°30' E 121°23'1092722.5
2016-Apr-30 03:29N 29°46' E 122°04'10955965.6
2016-Apr-30 03:29N 31°30' E 121°24'1269.2
2016-Apr-30 03:29N 31°31' E 121°23'221355.7
2016-Apr-30 03:28N 31°09' E 121°27'4471944.4
2016-Apr-30 03:14N 24°25' E 117°52'441654.0
2016-Apr-30 02:33N 31°03' E 121°29'437314965.9
2016-Apr-30 02:33N 24°25' E 118°04'11465.8
2016-Apr-30 02:32N 24°25' E 117°52'46413692.9
2016-Apr-30 02:30N 31°30' E 121°24'133156.8
2016-Apr-30 02:30N 31°19' E 121°34'1510478.0
2016-Apr-30 02:30N 31°31' E 121°23'116.9
2016-Apr-30 02:25N 31°30' E 121°23'21458.5
2016-Apr-30 02:23N 31°44' E 121°05'65924980.3
2016-Apr-30 02:21N 23°06' E 113°27'55701.6
2016-Apr-30 02:16N 22°11' E 113°38'6422834.8
2016-Apr-30 02:03N 29°42' E 122°07'6371301.0
2016-Apr-30 01:33N 22°14' E 113°42'274986222.1
2016-Apr-30 01:33N 24°25' E 118°04'46061384.5
2016-Apr-30 01:33N 31°30' E 121°24'425218476.2
2016-Apr-30 01:33N 24°47' E 118°49'311124552.8
2016-Apr-30 01:33N 23°06' E 113°27'25520405.6
2016-Apr-30 01:32N 24°25' E 117°52'43898549.2
2016-Apr-30 01:32N 31°00' E 121°26'3017718.8
2016-Apr-30 01:31N 31°30' E 121°23'11381587.7
2016-Apr-30 01:31N 29°42' E 122°04'1144162.5
2016-Apr-30 01:30N 31°31' E 121°23'37956860.8
2016-Apr-30 01:29N 25°26' E 119°25'35412869.7
2016-Apr-30 01:28N 22°42' E 113°41'32177.2
2016-Apr-30 01:17N 22°10' E 113°38'279383.0
2016-Apr-30 00:33N 24°25' E 118°04'4601655180.9
2016-Apr-30 00:33N 31°29' E 121°23'291946.2
2016-Apr-30 00:32N 31°00' E 121°26'301833.0
2016-Apr-30 00:31N 31°30' E 121°23'666399663.6
2016-Apr-30 00:31N 22°49' E 113°36'667149977.0
2016-Apr-30 00:31N 31°30' E 121°24'10742907.6
2016-Apr-30 00:31N 29°48' E 122°05'29910537.4
2016-Apr-30 00:29N 25°26' E 119°25'1041834.3
2016-Apr-30 00:26N 24°25' E 117°52'2552579.4
2016-Apr-30 00:20N 23°06' E 113°27'265343.3
2016-Apr-29 23:33N 24°25' E 118°04'43443402.6
2016-Apr-29 23:33N 31°00' E 121°26'7413266.9
2016-Apr-29 23:33N 29°55' E 122°06'755084.6
2016-Apr-29 23:32N 31°03' E 121°29'46811549.2
2016-Apr-29 23:29N 38°51' E 121°33'45242786.2
2016-Apr-29 23:29N 31°19' E 121°34'3719088.6
2016-Apr-29 23:26N 25°26' E 119°25'10416269.5
2016-Apr-29 23:26N 24°25' E 117°52'46479491.9
2016-Apr-29 23:25N 31°30' E 121°23'6586420.8
2016-Apr-29 23:19N 23°06' E 113°27'65927571.4
2016-Apr-29 23:18N 31°30' E 121°24'700938.7
2016-Apr-29 22:33N 22°11' E 113°32'28328345.1
2016-Apr-29 22:32N 24°25' E 118°04'9613777.0
2016-Apr-29 22:32N 25°26' E 119°25'37920338.8
2016-Apr-29 22:31N 31°30' E 121°24'307632.0
2016-Apr-29 22:31N 31°00' E 121°26'68929.5
2016-Apr-29 22:26N 29°57' E 121°55'965674.5
2016-Apr-29 22:25N 31°30' E 121°23'65862348.6
2016-Apr-29 22:25N 23°06' E 113°27'6577749.4
2016-Apr-29 22:20N 31°19' E 121°34'4584660.3
2016-Apr-29 22:14N 24°25' E 117°52'88613011.9
2016-Apr-29 22:10N 38°50' E 121°33'54017038.9
2016-Apr-29 22:08N 29°52' E 122°15'539922.8
2016-Apr-29 21:33N 38°50' E 121°34'8841060818.8
2016-Apr-29 21:33N 24°25' E 118°04'10425.8
2016-Apr-29 21:31N 24°25' E 117°53'45891656.5
2016-Apr-29 21:31N 31°19' E 121°34'65752523.8
2016-Apr-29 21:30N 23°06' E 113°27'6238565.2
2016-Apr-29 21:26N 29°52' E 122°15'1071891.1
2016-Apr-29 21:22N 31°30' E 121°23'9342.2
2016-Apr-29 21:21N 31°21' E 121°28'69223485.5
2016-Apr-29 21:19N 22°11' E 113°39'69615563.3
2016-Apr-29 21:16N 31°30' E 121°24'29160.3
2016-Apr-29 21:05N 31°00' E 121°26'435816.9
2016-Apr-29 20:34N 24°25' E 118°04'3582.4
2016-Apr-29 20:33N 24°25' E 118°01'2729059.5
2016-Apr-29 20:31N 22°14' E 113°42'67060297.1
2016-Apr-29 20:31N 31°00' E 121°26'30743.6
2016-Apr-29 20:28N 31°30' E 121°23'131726.7
2016-Apr-29 20:28N 31°19' E 121°34'65710189.3
2016-Apr-29 20:24N 23°05' E 113°27'65919436.8
2016-Apr-29 20:22N 31°30' E 121°24'1 3.2
2016-Apr-29 20:09N 31°29' E 121°23'461767.6
2016-Apr-29 19:33N 24°22' E 118°09'54564.3
2016-Apr-29 19:33N 24°25' E 118°04'43417959.7
2016-Apr-29 19:32N 31°00' E 121°26'202451.5
2016-Apr-29 19:31N 31°19' E 121°34'132077.6
2016-Apr-29 19:31N 31°30' E 121°24'66091398.5
2016-Apr-29 19:30N 23°01' E 113°31'6248350.1
2016-Apr-29 19:26N 29°52' E 122°15'107986.6
2016-Apr-29 19:19N 31°30' E 121°23'16143.9
2016-Apr-29 19:13N 31°41' E 121°11'1624.6
2016-Apr-29 18:34N 31°29' E 121°23'1614484.4
2016-Apr-29 18:33N 31°41' E 121°11'467210180.3
2016-Apr-29 18:33N 24°25' E 118°04'105346.7
2016-Apr-29 18:33N 24°15' E 118°09'26510716.4
2016-Apr-29 18:32N 22°54' E 113°34'66276839.5
2016-Apr-29 18:31N 31°19' E 121°34'20623.1
2016-Apr-29 18:29N 31°00' E 121°26'30286.0
2016-Apr-29 18:23N 31°30' E 121°24'460546.1
2016-Apr-29 17:32N 24°25' E 118°04'145209.0
2016-Apr-29 17:32N 24°10' E 118°03'481247366.2
2016-Apr-29 17:32N 31°41' E 121°11'43909.4
2016-Apr-29 17:29N 31°00' E 121°26'305331.1
2016-Apr-29 17:29N 31°30' E 121°24'66719856.1
2016-Apr-29 17:27N 22°47' E 113°38'64911505.4
2016-Apr-29 17:24N 31°58' E 120°03'863099.8
2016-Apr-29 17:22N 31°19' E 121°34'13172.1
2016-Apr-29 17:17N 31°29' E 121°23'3571983.3
2016-Apr-29 17:07N 25°44' E 119°39'117213.2
2016-Apr-29 16:34N 24°25' E 118°04'45413980.0
2016-Apr-29 16:32N 31°19' E 121°34'201793.3
2016-Apr-29 16:31N 31°00' E 121°26'433239.2
2016-Apr-29 16:30N 31°41' E 121°11'1228011.1
2016-Apr-29 16:29N 29°52' E 122°15'1072071.4
2016-Apr-29 16:26N 31°30' E 121°24'713061.0
2016-Apr-29 16:25N 31°57' E 120°08'701769.3
2016-Apr-29 16:22N 31°29' E 121°23'65920273.0
2016-Apr-29 16:20N 22°57' E 113°37'651334768.3
2016-Apr-29 16:20N 31°14' E 121°30'448574.7
2016-Apr-29 15:33N 24°25' E 118°04'46044797.1
2016-Apr-29 15:33N 31°30' E 121°24'167256.3
2016-Apr-29 15:33N 31°41' E 121°11'2911692.4
2016-Apr-29 15:33N 31°19' E 121°34'20570.0
2016-Apr-29 15:30N 31°00' E 121°26'304253.4
2016-Apr-29 15:30N 31°30' E 121°23'6747887.8
2016-Apr-29 15:30N 31°57' E 120°12'671257.1
2016-Apr-29 15:27N 31°29' E 121°23'6943298.6
2016-Apr-29 15:14N 22°12' E 113°40'6963983.0
2016-Apr-29 15:04N 31°41' E 121°09'466924.7
2016-Apr-29 14:33N 24°25' E 118°04'45433380.9
2016-Apr-29 14:33N 31°19' E 121°34'135257.1
2016-Apr-29 14:32N 31°29' E 121°23'116.7
2016-Apr-29 14:30N 31°30' E 121°24'5116849.2
2016-Apr-29 14:30N 31°60' E 120°35'362015.1
2016-Apr-29 14:29N 31°41' E 121°11'3876302.2
2016-Apr-29 14:25N 25°26' E 119°25'39432996.2
2016-Apr-29 14:24N 31°57' E 120°17'68818615.9
2016-Apr-29 14:22N 22°11' E 113°34'70111210.8
2016-Apr-29 14:18N 31°44' E 121°06'203481.6
2016-Apr-29 14:18N 31°30' E 121°23'15516.1
2016-Apr-29 14:16N 31°21' E 121°38'4948756.4
2016-Apr-29 14:13N 23°52' E 117°45'4714867.6
2016-Apr-29 14:07N 31°00' E 121°26'32616.1
2016-Apr-29 14:04N 31°31' E 121°19'6581287.9
2016-Apr-29 13:33N 22°57' E 113°37'259466965.0
2016-Apr-29 13:33N 24°25' E 118°04'467240203.2
2016-Apr-29 13:33N 31°41' E 121°11'47168145.1
2016-Apr-29 13:33N 31°60' E 120°21'7415703.4
2016-Apr-29 13:33N 31°19' E 121°34'494593301.2
2016-Apr-29 13:33N 23°50' E 117°41'47423705.6
2016-Apr-29 13:32N 31°00' E 121°26'342201.4
2016-Apr-29 13:31N 31°33' E 121°19'5155.3
2016-Apr-29 13:29N 31°29' E 121°23'13522.4
2016-Apr-29 13:27N 31°20' E 121°33'37110954.3
2016-Apr-29 13:25N 25°26' E 119°25'3784493.6
2016-Apr-29 13:20N 31°30' E 121°23'1 3.3
2016-Apr-29 13:09N 31°30' E 121°24'460783.3
2016-Apr-29 12:33N 24°25' E 118°04'43450402.4
2016-Apr-29 12:33N 31°00' E 121°26'201267.7
2016-Apr-29 12:32N 31°19' E 121°34'298772.0
2016-Apr-29 12:32N 31°41' E 121°11'38733971.2
2016-Apr-29 12:31N 25°26' E 119°25'1407219.8
2016-Apr-29 12:30N 23°44' E 117°38'52042513.9
2016-Apr-29 12:29N 32°03' E 120°25'603771.9
2016-Apr-29 12:28N 31°30' E 121°23'131610.7
2016-Apr-29 12:28N 31°39' E 121°13'239232.7
2016-Apr-29 12:28N 31°21' E 121°31'1056.2
2016-Apr-29 12:17N 31°29' E 121°23'1 9.5
2016-Apr-29 12:12N 31°30' E 121°24'27678.5
2016-Apr-29 12:10N 31°03' E 121°29'437724.6
2016-Apr-29 11:33N 24°25' E 118°04'43758317.6
2016-Apr-29 11:33N 31°03' E 121°29'4851.7
2016-Apr-29 11:33N 31°00' E 121°26'2915016.4
2016-Apr-29 11:33N 31°29' E 121°23'131245.1
2016-Apr-29 11:32N 31°19' E 121°34'202521.8
2016-Apr-29 11:31N 31°01' E 121°27'29722.8
2016-Apr-29 11:29N 31°30' E 121°23'1259.5
2016-Apr-29 11:29N 31°30' E 121°24'37825233.1
2016-Apr-29 11:28N 25°26' E 119°25'38777345.4
2016-Apr-29 11:28N 31°41' E 121°11'241181.6
2016-Apr-29 11:26N 31°24' E 121°31'1922.0
2016-Apr-29 10:34N 31°38' E 121°15'3923365.9
2016-Apr-29 10:33N 31°00' E 121°26'67177878.3
2016-Apr-29 10:33N 22°14' E 113°41'690124160.0
2016-Apr-29 10:33N 31°19' E 121°34'4541635662.2
2016-Apr-29 10:33N 24°25' E 118°04'46048712.3
2016-Apr-29 10:32N 31°30' E 121°23'140.8
2016-Apr-29 10:31N 31°30' E 121°24'37990841.2
2016-Apr-29 10:31N 25°26' E 119°25'35419906.1
2016-Apr-29 10:30N 31°03' E 121°29'27455.6
2016-Apr-29 10:26N 31°29' E 121°23'460522.0
2016-Apr-29 09:33N 24°25' E 118°04'463277567.0
2016-Apr-29 09:33N 31°33' E 121°20'3417336.4
2016-Apr-29 09:33N 31°00' E 121°26'203342.0
2016-Apr-29 09:33N 31°19' E 121°34'1917476.3
2016-Apr-29 09:33N 31°17' E 121°11'212775.5
2016-Apr-29 09:32N 31°03' E 121°29'85875.2
2016-Apr-29 09:32N 30°59' E 121°20'316556.8
2016-Apr-29 09:32N 31°30' E 121°23'3785512.4
2016-Apr-29 09:28N 25°26' E 119°25'81371.7
2016-Apr-29 09:15N 26°45' E 119°43'29821862.3
2016-Apr-29 09:14N 31°30' E 121°24'3043.8
2016-Apr-29 08:33N 31°00' E 121°26'43424037.8
2016-Apr-29 08:32N 24°25' E 118°04'46092011.0
2016-Apr-29 08:32N 31°30' E 121°23'1483.0
2016-Apr-29 08:32N 31°30' E 121°24'1323809.7
2016-Apr-29 08:32N 31°19' E 121°34'243399.1
2016-Apr-29 08:31N 30°59' E 121°20'63361620.1
2016-Apr-29 08:31N 23°04' E 113°30'66019793.1
2016-Apr-29 08:29N 31°21' E 121°38'12614.1
2016-Apr-29 08:28N 31°29' E 121°27'18736.6
2016-Apr-29 08:26N 31°17' E 121°11'3632109.5
2016-Apr-29 08:16N 25°26' E 119°25'351497.1
2016-Apr-29 07:34N 31°00' E 121°26'203502.1
2016-Apr-29 07:33N 31°19' E 121°34'45486086.4
2016-Apr-29 07:33N 24°25' E 118°04'4317602.1
2016-Apr-29 07:29N 30°59' E 121°20'271365.2
2016-Apr-29 07:28N 31°24' E 121°31'5146212.6
2016-Apr-29 07:28N 32°00' E 120°49'40160185.7
2016-Apr-29 07:28N 25°26' E 119°25'4003943.4
2016-Apr-29 07:22N 32°02' E 120°28'572005.9
2016-Apr-29 07:20N 31°30' E 121°23'129.6
2016-Apr-29 07:19N 31°30' E 121°24'6605117.4
2016-Apr-29 07:11N 22°57' E 113°37'1082.3
2016-Apr-29 07:04N 23°04' E 113°30'264517.8
2016-Apr-29 06:33N 24°25' E 118°04'434120187.4
2016-Apr-29 06:33N 31°00' E 121°26'173813.3
2016-Apr-29 06:33N 31°10' E 121°09'181397.0
2016-Apr-29 06:32N 31°03' E 121°29'2719655.4
2016-Apr-29 06:32N 31°30' E 121°24'132962.7
2016-Apr-29 06:32N 31°19' E 121°34'7318873.5
2016-Apr-29 06:32N 31°59' E 120°21'39629713.3
2016-Apr-29 06:31N 25°26' E 119°25'348125237.3
2016-Apr-29 06:31N 30°59' E 121°20'31453.1
2016-Apr-29 06:27N 31°30' E 121°23'832.1
2016-Apr-29 06:11N 31°24' E 121°31'2439.2
2016-Apr-29 05:34N 31°00' E 121°26'301871.5
2016-Apr-29 05:33N 31°30' E 121°24'214140.4
2016-Apr-29 05:32N 31°13' E 121°09'44054669.3
2016-Apr-29 05:32N 24°25' E 118°04'43129823.3
2016-Apr-29 05:31N 30°59' E 121°20'241287.8
2016-Apr-29 05:30N 31°19' E 121°34'5310.8
2016-Apr-29 05:29N 31°24' E 121°31'101430.4
2016-Apr-29 05:28N 31°15' E 121°29'771602.5
2016-Apr-29 05:26N 31°56' E 120°12'661500.2
2016-Apr-29 05:23N 31°30' E 121°23'27376.0
2016-Apr-29 05:19N 31°03' E 121°29'1925.2
2016-Apr-29 04:33N 31°21' E 121°30'11013.9
2016-Apr-29 04:33N 31°23' E 121°30'2313649.7
2016-Apr-29 04:33N 31°00' E 121°26'434156245.6
2016-Apr-29 04:33N 24°25' E 118°04'431103388.8
2016-Apr-29 04:33N 30°59' E 121°20'64192338.3
2016-Apr-29 04:32N 22°54' E 113°30'66763142.2
2016-Apr-29 04:32N 31°30' E 121°24'87244.5
2016-Apr-29 04:32N 31°24' E 121°31'2211062.3
2016-Apr-29 04:32N 31°03' E 121°29'902779.4
2016-Apr-29 04:30N 31°57' E 120°04'42114290.8
2016-Apr-29 04:28N 38°52' E 121°32'47327917.2
2016-Apr-29 04:27N 30°59' E 121°20'2428956.4
2016-Apr-29 04:27N 31°22' E 121°28'5220.3
2016-Apr-29 04:26N 31°19' E 121°34'37127829.2
2016-Apr-29 04:25N 25°26' E 119°25'3782303.5
2016-Apr-29 04:15N 31°30' E 121°23'3043.6
2016-Apr-29 03:33N 30°59' E 121°23'53792.5
2016-Apr-29 03:33N 31°02' E 121°29'3769.6
2016-Apr-29 03:33N 31°00' E 121°26'3021340.0
2016-Apr-29 03:33N 31°30' E 121°24'312243.4
2016-Apr-29 03:32N 30°59' E 121°20'431221547.4
2016-Apr-29 03:32N 24°25' E 118°04'964151.2
2016-Apr-29 03:31N 25°26' E 119°25'81388695.6
2016-Apr-29 03:30N 38°52' E 121°32'9668218.4
2016-Apr-29 03:23N 23°16' E 116°53'54924086.2
2016-Apr-29 03:22N 31°30' E 121°23'213.2
2016-Apr-29 03:11N 31°28' E 121°26'442705.6
2016-Apr-29 02:34N 38°50' E 121°33'470563944.2
2016-Apr-29 02:33N 31°00' E 121°27'239030.0
2016-Apr-29 02:33N 31°17' E 121°08'2240173.1
2016-Apr-29 02:33N 31°00' E 121°26'314075.2
2016-Apr-29 02:33N 31°30' E 121°22'336647.9
2016-Apr-29 02:33N 30°58' E 121°15'428385396.5
2016-Apr-29 02:32N 24°25' E 118°04'431119294.8
2016-Apr-29 02:32N 30°59' E 121°20'31408.4
2016-Apr-29 02:28N 31°30' E 121°23'6594635.7
2016-Apr-29 02:19N 23°01' E 113°31'658147965.2
2016-Apr-29 02:19N 31°20' E 121°32'117.5
2016-Apr-29 02:14N 31°19' E 121°34'203715.3
2016-Apr-29 02:14N 31°01' E 121°27'291050.3
2016-Apr-29 02:12N 31°30' E 121°24'3794381.6
2016-Apr-29 02:07N 25°26' E 119°25'37417474.2
2016-Apr-29 02:05N 31°21' E 121°38'457856.9
2016-Apr-29 01:33N 24°25' E 118°04'455409326.7
2016-Apr-29 01:33N 31°20' E 121°32'2175827.3
2016-Apr-29 01:33N 31°00' E 121°26'351126245.5
2016-Apr-29 01:33N 25°26' E 119°25'81278999.4
2016-Apr-29 01:33N 38°51' E 121°34'470153852.3
2016-Apr-29 01:32N 31°00' E 121°27'6408.8
2016-Apr-29 01:31N 30°59' E 121°20'221429.6
2016-Apr-29 01:31N 31°17' E 121°05'2825599.1
2016-Apr-29 01:30N 31°21' E 121°38'14572.9
2016-Apr-29 01:29N 31°30' E 121°24'1 8.7
2016-Apr-29 01:25N 31°30' E 121°23'6583162.0
2016-Apr-29 01:12N 23°04' E 113°30'6596362.1
2016-Apr-29 01:06N 31°37' E 121°16'23796.1
2016-Apr-29 01:04N 31°19' E 121°34'454887.5
2016-Apr-29 00:33N 24°25' E 118°04'434260409.3
2016-Apr-29 00:33N 31°00' E 121°26'161.5
2016-Apr-29 00:33N 31°00' E 121°27'73263038.6
2016-Apr-29 00:33N 29°56' E 122°06'30923641.9
2016-Apr-29 00:32N 25°22' E 119°24'352316362.7
2016-Apr-29 00:32N 30°59' E 121°20'412802.6
2016-Apr-29 00:31N 31°40' E 121°14'137793.9
2016-Apr-29 00:31N 31°30' E 121°23'1 6.0
2016-Apr-29 00:24N 31°30' E 121°24'14643.4
2016-Apr-29 00:23N 31°21' E 121°38'5134.2
2016-Apr-29 00:21N 31°20' E 121°32'6573705.2
2016-Apr-29 00:10N 23°02' E 113°32'6381033.0
2016-Apr-28 23:33N 31°00' E 121°26'27046344.0
2016-Apr-28 23:33N 26°45' E 119°43'271243856.7
2016-Apr-28 23:33N 31°00' E 121°27'435142259.2
2016-Apr-28 23:33N 24°25' E 118°04'460103587.5
2016-Apr-28 23:32N 31°30' E 121°24'132368.5
2016-Apr-28 23:32N 31°19' E 121°34'321482.1
2016-Apr-28 23:31N 31°43' E 121°08'454279.1
2016-Apr-28 23:30N 30°59' E 121°20'4198.2
2016-Apr-28 23:29N 30°58' E 121°16'63251722.4
2016-Apr-28 23:28N 22°56' E 113°37'81816.8
2016-Apr-28 23:28N 23°02' E 113°32'3519090.2
2016-Apr-28 23:26N 25°22' E 119°24'37710611.7
2016-Apr-28 23:24N 31°21' E 121°38'66010282.2
2016-Apr-28 23:20N 23°04' E 113°30'545098.8
2016-Apr-28 23:19N 22°11' E 113°38'6966508.0
2016-Apr-28 23:13N 31°30' E 121°23'6911057.1
2016-Apr-28 22:33N 22°14' E 113°42'670482513.8
2016-Apr-28 22:33N 31°00' E 121°27'1341.5
2016-Apr-28 22:33N 31°00' E 121°26'434781227.9
2016-Apr-28 22:33N 24°25' E 118°04'454545220.7
2016-Apr-28 22:33N 31°19' E 121°34'17832069.6
2016-Apr-28 22:33N 31°25' E 118°05'1619187.1
2016-Apr-28 22:32N 31°39' E 121°13'389199838.9
2016-Apr-28 22:32N 25°22' E 119°24'35223876.4
2016-Apr-28 22:31N 30°59' E 121°20'472849749.3
2016-Apr-28 22:31N 38°51' E 121°33'450405259.3
2016-Apr-28 22:31N 31°20' E 121°32'23286.2
2016-Apr-28 22:26N 30°59' E 121°22'311840.8
2016-Apr-28 22:25N 31°30' E 121°24'1594.6
2016-Apr-28 22:16N 31°21' E 121°38'6606237.6
2016-Apr-28 22:09N 23°02' E 113°32'6391066.5
2016-Apr-28 21:33N 31°00' E 121°27'11024.6
2016-Apr-28 21:33N 31°00' E 121°26'434260409.3
2016-Apr-28 21:33N 24°25' E 118°04'460276247.6
2016-Apr-28 21:33N 31°30' E 121°24'659263509.7
2016-Apr-28 21:33N 23°02' E 113°32'516602.7
2016-Apr-28 21:32N 22°11' E 113°38'542585.9
2016-Apr-28 21:31N 23°04' E 113°29'65656268.3
2016-Apr-28 21:31N 31°20' E 121°32'37511647.5
2016-Apr-28 21:29N 25°22' E 119°24'81517063.3
2016-Apr-28 21:26N 38°50' E 121°32'4516938.9
2016-Apr-28 21:22N 31°19' E 121°34'83900.1
2016-Apr-28 21:16N 31°57' E 120°07'592649.5
2016-Apr-28 21:15N 31°39' E 121°13'411900.6
2016-Apr-28 21:14N 30°59' E 121°20'63567188.1
2016-Apr-28 21:13N 22°57' E 113°37'638965.5
2016-Apr-28 20:34N 30°60' E 121°24'4331558769.9
2016-Apr-28 20:33N 24°25' E 118°04'273981244.3
2016-Apr-28 20:33N 22°15' E 113°43'67715419.5
2016-Apr-28 20:31N 31°57' E 120°11'6428715.6
2016-Apr-28 20:26N 23°02' E 113°32'65916024.2
2016-Apr-28 20:24N 31°30' E 121°24'38216982.8
2016-Apr-28 20:23N 25°22' E 119°24'3557341.5
2016-Apr-28 20:20N 31°00' E 121°27'40151.9
2016-Apr-28 20:04N 31°39' E 121°13'1325.5
2016-Apr-28 19:33N 31°30' E 121°24'46040427.5
2016-Apr-28 19:32N 24°25' E 118°04'26326261.1
2016-Apr-28 19:32N 23°02' E 113°32'639328452.1
2016-Apr-28 19:32N 31°00' E 121°27'355182488.8
2016-Apr-28 19:32N 25°22' E 119°24'3889139.6
2016-Apr-28 19:29N 31°39' E 121°13'26216.2
2016-Apr-28 19:22N 31°19' E 121°34'762595.4
2016-Apr-28 19:20N 31°57' E 120°17'741716.4
2016-Apr-28 19:17N 31°21' E 121°33'422.8
2016-Apr-28 19:06N 31°21' E 121°38'2341.4
2016-Apr-28 18:34N 31°00' E 121°27'435223538.9
2016-Apr-28 18:33N 24°25' E 118°04'43333173.2
2016-Apr-28 18:33N 30°60' E 121°25'4207.7
2016-Apr-28 18:32N 30°59' E 121°20'6341140354.6
2016-Apr-28 18:32N 23°04' E 113°29'65925769.2
2016-Apr-28 18:30N 31°30' E 121°24'147.4
2016-Apr-28 18:29N 31°30' E 121°23'3823393.4
2016-Apr-28 18:23N 25°22' E 119°24'38814874.1
2016-Apr-28 18:21N 31°39' E 121°13'66022208.9
2016-Apr-28 18:19N 23°05' E 113°27'6572965.4
2016-Apr-28 18:06N 31°20' E 121°32'6611207.2
2016-Apr-28 17:33N 23°02' E 113°24'269193519.1
2016-Apr-28 17:33N 24°25' E 118°04'435104316.8
2016-Apr-28 17:33N 31°00' E 121°27'8248937.8
2016-Apr-28 17:33N 32°02' E 120°24'8197338.7
2016-Apr-28 17:33N 30°60' E 121°25'2115322.0
2016-Apr-28 17:32N 31°19' E 121°34'136906.6
2016-Apr-28 17:32N 31°30' E 121°23'164.9
2016-Apr-28 17:32N 31°30' E 121°24'3111212.9
2016-Apr-28 17:32N 30°59' E 121°20'24468.4
2016-Apr-28 17:29N 31°20' E 121°32'25272.8
2016-Apr-28 17:23N 31°39' E 121°13'465559.9
2016-Apr-28 16:33N 24°25' E 118°04'43586930.7
2016-Apr-28 16:33N 31°00' E 121°27'2272.3
2016-Apr-28 16:33N 30°60' E 121°25'637286570.7
2016-Apr-28 16:32N 23°04' E 113°29'65754999.8
2016-Apr-28 16:32N 31°21' E 121°33'121077.9
2016-Apr-28 16:31N 31°30' E 121°24'133376.6
2016-Apr-28 16:31N 31°19' E 121°34'34929.5
2016-Apr-28 16:31N 31°21' E 121°31'3219.7
2016-Apr-28 16:30N 31°24' E 121°31'248554.9
2016-Apr-28 16:30N 31°41' E 121°12'151641.3
2016-Apr-28 16:29N 31°30' E 121°23'6582161.5
2016-Apr-28 16:11N 23°04' E 113°29'264421.7
2016-Apr-28 15:33N 24°25' E 118°04'431387707.9
2016-Apr-28 15:33N 30°59' E 121°20'6584.0
2016-Apr-28 15:33N 31°00' E 121°27'2262.2
2016-Apr-28 15:32N 30°60' E 121°25'431021.4
2016-Apr-28 15:30N 31°41' E 121°12'151463.8
2016-Apr-28 15:29N 31°30' E 121°23'15466.4
2016-Apr-28 15:27N 31°21' E 121°38'14620.4
2016-Apr-28 15:26N 31°30' E 121°24'6594781.7
2016-Apr-28 15:18N 23°02' E 113°32'65732831.3
2016-Apr-28 15:16N 31°19' E 121°34'1294.7
2016-Apr-28 15:09N 31°29' E 121°25'2949.0
2016-Apr-28 14:33N 30°60' E 121°25'4331559161.8
2016-Apr-28 14:33N 24°25' E 118°04'43539118.8
2016-Apr-28 14:33N 31°00' E 121°27'61135.5
2016-Apr-28 14:32N 30°59' E 121°20'321222.2
2016-Apr-28 14:31N 31°31' E 121°22'276.6
2016-Apr-28 14:29N 31°30' E 121°23'1205.1
2016-Apr-28 14:29N 31°30' E 121°24'6595539.4
2016-Apr-28 14:22N 23°04' E 113°29'6605055.1
2016-Apr-28 14:14N 31°21' E 121°38'431.5
2016-Apr-28 14:07N 31°19' E 121°34'454811.7
2016-Apr-28 13:33N 24°25' E 118°04'435195596.5
2016-Apr-28 13:33N 31°00' E 121°27'64089.2
2016-Apr-28 13:33N 30°59' E 121°20'4421.9
2016-Apr-28 13:32N 30°60' E 121°25'367575.4
2016-Apr-28 13:32N 31°35' E 121°18'211763.4
2016-Apr-28 13:31N 31°19' E 121°34'13350.3
2016-Apr-28 13:29N 31°30' E 121°23'1 7.1
2016-Apr-28 13:24N 31°30' E 121°24'2934.9
2016-Apr-28 12:34N 31°00' E 121°26'2035918.6
2016-Apr-28 12:33N 31°19' E 121°34'45445435.1
2016-Apr-28 12:33N 24°25' E 118°04'43565198.0
2016-Apr-28 12:32N 31°00' E 121°27'38933337.3
2016-Apr-28 12:32N 24°53' E 119°02'38618770.2
2016-Apr-28 12:31N 30°59' E 121°21'185.3
2016-Apr-28 12:30N 30°59' E 121°20'246251.0
2016-Apr-28 12:30N 31°21' E 121°33'65715259.8
2016-Apr-28 12:27N 23°02' E 113°32'65910050.6
2016-Apr-28 12:23N 31°30' E 121°24'837.0
2016-Apr-28 12:10N 31°25' E 121°32'8263.4
2016-Apr-28 12:08N 31°30' E 121°23'297484.7
2016-Apr-28 12:08N 31°01' E 121°27'435758.6
2016-Apr-28 11:34N 24°25' E 118°04'435173997.0
2016-Apr-28 11:33N 31°01' E 121°27'27405.6
2016-Apr-28 11:33N 31°02' E 121°29'184259.9
2016-Apr-28 11:33N 31°19' E 121°34'2238878.3
2016-Apr-28 11:33N 30°59' E 121°24'39361514.7
2016-Apr-28 11:33N 24°48' E 118°58'41641560.4
2016-Apr-28 11:32N 31°22' E 121°30'68710226.8
2016-Apr-28 11:28N 22°15' E 113°43'69021792.7
2016-Apr-28 11:26N 31°30' E 121°23'315867.8
2016-Apr-28 11:26N 30°59' E 121°20'6888.7
2016-Apr-28 11:25N 31°00' E 121°27'63974150.1
2016-Apr-28 11:25N 23°04' E 113°29'65728833.9
2016-Apr-28 11:24N 31°21' E 121°33'4154.3
2016-Apr-28 11:22N 31°21' E 121°38'6605259.0
2016-Apr-28 11:14N 23°02' E 113°32'6594198.1
2016-Apr-28 11:05N 31°30' E 121°24'460874.7
2016-Apr-28 10:33N 24°25' E 118°04'454116831.6
2016-Apr-28 10:33N 31°19' E 121°34'229957.8
2016-Apr-28 10:33N 30°59' E 121°23'39865180.7
2016-Apr-28 10:33N 24°44' E 118°53'40463173.4
2016-Apr-28 10:32N 31°03' E 121°29'3945.9
2016-Apr-28 10:32N 31°06' E 121°27'6682.9
2016-Apr-28 10:32N 31°01' E 121°29'214620.7
2016-Apr-28 10:31N 31°16' E 121°12'198484.0
2016-Apr-28 10:31N 31°24' E 121°32'24867.3
2016-Apr-28 10:29N 31°00' E 121°27'291318.6
2016-Apr-28 10:28N 31°30' E 121°24'1673.2
2016-Apr-28 10:15N 31°16' E 121°33'5675.1
2016-Apr-28 10:15N 31°21' E 121°33'5289.6
2016-Apr-28 10:14N 31°21' E 121°39'457683.9
2016-Apr-28 09:33N 24°25' E 118°04'455136526.8
2016-Apr-28 09:33N 31°21' E 121°33'2110681.5
2016-Apr-28 09:33N 31°00' E 121°27'235273.3
2016-Apr-28 09:33N 31°23' E 121°34'2327128.3
2016-Apr-28 09:33N 31°01' E 121°28'303196.6
2016-Apr-28 09:32N 31°31' E 121°22'21350.7
2016-Apr-28 09:32N 31°30' E 121°23'2295.8
2016-Apr-28 09:32N 31°29' E 121°26'67997734.1
2016-Apr-28 09:31N 22°27' E 113°47'66637445.3
2016-Apr-28 09:30N 31°10' E 121°28'1552352.4
2016-Apr-28 09:30N 31°16' E 121°12'19139.4
2016-Apr-28 09:22N 31°19' E 121°34'65713906.3
2016-Apr-28 09:19N 23°02' E 113°32'342.0
2016-Apr-28 09:15N 23°04' E 113°29'639930.3
2016-Apr-28 08:34N 31°00' E 121°27'435104316.8
2016-Apr-28 08:33N 24°25' E 118°04'461184456.7
2016-Apr-28 08:33N 31°32' E 121°21'131821.2
2016-Apr-28 08:33N 31°21' E 121°30'172128.1
2016-Apr-28 08:32N 31°16' E 121°12'67339097.6
2016-Apr-28 08:31N 22°15' E 113°43'674105532.1
2016-Apr-28 08:31N 31°06' E 121°28'281790.5
2016-Apr-28 08:30N 31°33' E 121°19'172593.4
2016-Apr-28 08:29N 31°21' E 121°33'122695.8
2016-Apr-28 08:29N 31°30' E 121°23'6588003.3
2016-Apr-28 08:24N 23°04' E 113°29'251817.3
2016-Apr-28 08:23N 22°42' E 113°41'66112861.9
2016-Apr-28 08:20N 31°14' E 121°29'6502.5
2016-Apr-28 08:20N 31°08' E 121°28'64545524.8
2016-Apr-28 08:19N 23°02' E 113°32'54738.1
2016-Apr-28 08:14N 22°19' E 114°07'66412380.7
2016-Apr-28 08:11N 31°12' E 121°30'6861094.1
2016-Apr-28 07:34N 22°10' E 113°41'3928196.3
2016-Apr-28 07:33N 22°49' E 113°36'668480789.6
2016-Apr-28 07:33N 31°36' E 121°17'693623464.1
2016-Apr-28 07:33N 22°14' E 113°42'274140677.4
2016-Apr-28 07:33N 24°25' E 118°04'444114297.5
2016-Apr-28 07:33N 31°11' E 121°28'2716186.0
2016-Apr-28 07:33N 31°36' E 121°17'1047481.3
2016-Apr-28 07:32N 29°58' E 121°57'709388.5
2016-Apr-28 07:32N 31°04' E 121°28'64230833.1
2016-Apr-28 07:30N 23°02' E 113°32'64217496.0
2016-Apr-28 07:28N 31°16' E 121°12'16320.3
2016-Apr-28 07:25N 31°15' E 121°30'16134.1
2016-Apr-28 07:18N 31°30' E 121°23'13294.7
2016-Apr-28 07:15N 31°19' E 121°34'6565613.5
2016-Apr-28 07:08N 23°04' E 113°29'6191059.8
2016-Apr-28 06:33N 29°55' E 122°06'8530608.5
2016-Apr-28 06:33N 31°14' E 121°29'1425573.1
2016-Apr-28 06:33N 31°00' E 121°26'42149409.0
2016-Apr-28 06:33N 31°40' E 121°12'4213600.4
2016-Apr-28 06:33N 31°00' E 121°27'64074339.8
2016-Apr-28 06:32N 22°56' E 113°37'2609184.0
2016-Apr-28 06:31N 24°25' E 118°04'44340936.4
2016-Apr-28 06:30N 31°16' E 121°12'245322.1
2016-Apr-28 06:30N 31°39' E 121°13'660791799.0
2016-Apr-28 06:30N 23°02' E 113°32'65713136.3
2016-Apr-28 06:27N 31°21' E 121°32'12957.8
2016-Apr-28 06:26N 31°30' E 121°23'65810345.3
2016-Apr-28 06:22N 23°04' E 113°29'54699.2
2016-Apr-28 06:18N 22°11' E 113°33'30625069.2
2016-Apr-28 06:17N 24°25' E 118°33'442227514.8
2016-Apr-28 06:17N 31°18' E 121°34'453627.7
2016-Apr-28 05:33N 24°25' E 118°04'435312954.4
2016-Apr-28 05:33N 31°00' E 121°27'241764.2
2016-Apr-28 05:33N 31°24' E 121°31'10051594.9
2016-Apr-28 05:32N 29°48' E 122°05'967819.2
2016-Apr-28 05:32N 31°19' E 121°34'66040952.3
2016-Apr-28 05:31N 23°03' E 113°25'617046.1
2016-Apr-28 05:30N 22°19' E 114°10'65631493.6
2016-Apr-28 05:29N 31°16' E 121°12'191717.5
2016-Apr-28 05:28N 31°20' E 121°33'118.0
2016-Apr-28 05:25N 31°21' E 121°32'12660.1
2016-Apr-28 05:24N 31°30' E 121°23'1068.1
2016-Apr-28 05:15N 31°21' E 121°30'455658.8
2016-Apr-28 04:33N 24°25' E 118°04'435195601.4
2016-Apr-28 04:33N 31°00' E 121°27'2176387.4
2016-Apr-28 04:33N 31°21' E 121°30'17429.3
2016-Apr-28 04:31N 31°16' E 121°12'1922488.5
2016-Apr-28 04:31N 31°19' E 121°33'41779.6
2016-Apr-28 04:31N 31°23' E 121°30'44836690.0
2016-Apr-28 04:30N 38°51' E 121°33'4441597076.9
2016-Apr-28 04:30N 31°28' E 121°27'7128.5
2016-Apr-28 04:27N 31°21' E 121°30'25359.5
2016-Apr-28 04:23N 31°41' E 121°12'467563.5
2016-Apr-28 03:33N 24°25' E 118°04'443319307.9
2016-Apr-28 03:33N 31°16' E 121°12'181471.8
2016-Apr-28 03:32N 31°31' E 121°22'312090.4
2016-Apr-28 03:31N 31°00' E 121°27'202745.9
2016-Apr-28 03:31N 31°19' E 121°34'45181243.1
2016-Apr-28 03:31N 38°51' E 121°33'45011900.2
2016-Apr-28 03:28N 31°21' E 121°31'4331.3
2016-Apr-28 03:28N 31°25' E 121°30'6654392.3
2016-Apr-28 03:18N 23°02' E 113°21'615110720.7
2016-Apr-28 03:18N 29°42' E 122°03'1121645.1
2016-Apr-28 03:14N 31°30' E 121°23'61884.4
2016-Apr-28 03:10N 32°00' E 120°21'723522.9
2016-Apr-28 03:09N 31°21' E 121°33'97165.9
2016-Apr-28 02:34N 29°47' E 122°04'8032066.1
2016-Apr-28 02:33N 31°00' E 121°27'470105760.0
2016-Apr-28 02:33N 38°50' E 121°32'884176778.3
2016-Apr-28 02:33N 24°25' E 118°04'455117101.5
2016-Apr-28 02:33N 31°22' E 121°30'171656.7
2016-Apr-28 02:32N 31°16' E 121°12'181153.0
2016-Apr-28 02:31N 31°31' E 121°22'151164.5
2016-Apr-28 02:30N 31°19' E 121°34'659197786.7
2016-Apr-28 02:30N 23°04' E 113°25'66140323.7
2016-Apr-28 02:29N 31°30' E 121°23'65824435.6
2016-Apr-28 02:27N 23°02' E 113°32'6617100.0
2016-Apr-28 02:22N 31°41' E 121°12'241155.4
2016-Apr-28 02:21N 31°24' E 121°31'975.2
2016-Apr-28 02:13N 31°30' E 121°23'39872.2
2016-Apr-28 02:11N 31°58' E 120°51'6976652.2
2016-Apr-28 02:04N 22°15' E 113°43'6701291.1
2016-Apr-28 01:33N 31°00' E 121°27'435260801.9
2016-Apr-28 01:33N 24°25' E 118°04'395710178.1
2016-Apr-28 01:33N 29°54' E 122°09'5381936335.0
2016-Apr-28 01:33N 38°51' E 121°33'44051075.0
2016-Apr-28 01:33N 31°31' E 121°22'2213.2
2016-Apr-28 01:32N 31°30' E 121°23'69359422.6
2016-Apr-28 01:31N 22°13' E 113°40'691276345.4
2016-Apr-28 01:31N 31°19' E 121°34'149977.1
2016-Apr-28 01:31N 31°30' E 121°23'172608.0
2016-Apr-28 01:31N 31°16' E 121°12'18743.7
2016-Apr-28 01:29N 31°26' E 121°29'67524527.8
2016-Apr-28 01:28N 22°19' E 114°07'67167143.6
2016-Apr-28 01:27N 31°21' E 121°30'210.8
2016-Apr-28 01:15N 31°21' E 121°33'2130.2
2016-Apr-28 00:33N 31°00' E 121°27'294157.9
2016-Apr-28 00:33N 31°29' E 121°24'460165653.2
2016-Apr-28 00:33N 24°25' E 118°04'46125122.2
2016-Apr-28 00:32N 31°30' E 121°23'1245.3
2016-Apr-28 00:31N 31°31' E 121°22'1527357.1
2016-Apr-28 00:31N 31°19' E 121°34'8510936.3
2016-Apr-28 00:31N 29°57' E 121°59'884817.8
2016-Apr-28 00:30N 31°16' E 121°12'17279.5
2016-Apr-28 00:26N 31°30' E 121°23'6983475.8
2016-Apr-28 00:14N 22°11' E 113°35'541525.6
2016-Apr-28 00:12N 23°04' E 113°29'58622.5
2016-Apr-28 00:06N 22°18' E 114°08'6531189.1
2016-Apr-27 23:33N 31°00' E 121°26'653293861.4
2016-Apr-27 23:33N 22°18' E 114°08'675220872.6
2016-Apr-27 23:33N 31°30' E 121°23'46144813.1
2016-Apr-27 23:32N 24°25' E 118°04'461237084.1
2016-Apr-27 23:32N 31°31' E 121°22'65964102.0
2016-Apr-27 23:32N 23°02' E 113°32'642769868.3
2016-Apr-27 23:32N 31°16' E 121°12'6418071.6
2016-Apr-27 23:27N 23°04' E 113°29'65845559.9
2016-Apr-27 23:26N 31°30' E 121°23'10124.8
2016-Apr-27 23:21N 31°21' E 121°30'2175.6
2016-Apr-27 23:20N 31°21' E 121°33'12491.3
2016-Apr-27 23:19N 31°30' E 121°24'1215.8
2016-Apr-27 22:33N 31°21' E 121°33'2174968.1
2016-Apr-27 22:33N 31°00' E 121°26'653293863.6
2016-Apr-27 22:33N 22°18' E 114°08'6722418132.2
2016-Apr-27 22:33N 31°19' E 121°34'454181740.2
2016-Apr-27 22:33N 24°25' E 118°04'461110639.2
2016-Apr-27 22:33N 31°31' E 121°22'2130.9
2016-Apr-27 22:32N 31°30' E 121°23'65845581.8
2016-Apr-27 22:31N 23°02' E 113°32'64257740.1
2016-Apr-27 22:31N 31°16' E 121°12'17304.0
2016-Apr-27 22:27N 31°21' E 121°30'10271.8
2016-Apr-27 22:25N 31°30' E 121°24'6593931.5
2016-Apr-27 22:15N 23°04' E 113°29'264381.4
2016-Apr-27 21:33N 24°25' E 118°04'435782277.8
2016-Apr-27 21:33N 31°00' E 121°26'653261212.1
2016-Apr-27 21:33N 22°18' E 114°08'10631275893.2
2016-Apr-27 21:33N 38°50' E 121°33'45541980.6
2016-Apr-27 21:33N 31°16' E 121°12'172031.7
2016-Apr-27 21:32N 31°30' E 121°23'163.2
2016-Apr-27 21:31N 31°30' E 121°23'14984.7
2016-Apr-27 21:31N 31°19' E 121°34'151409.3
2016-Apr-27 21:30N 31°31' E 121°22'65911622.3
2016-Apr-27 21:27N 23°04' E 113°29'65974091.2
2016-Apr-27 21:26N 31°30' E 121°24'65927580.4
2016-Apr-27 21:25N 23°02' E 113°32'6415152.7
2016-Apr-27 21:17N 31°01' E 121°30'19213.6
2016-Apr-27 21:12N 31°21' E 121°33'271737.9
2016-Apr-27 21:11N 31°41' E 121°12'28530.1
2016-Apr-27 21:08N 31°20' E 121°34'2035.6
2016-Apr-27 20:33N 31°00' E 121°26'435120350.4
2016-Apr-27 20:33N 24°25' E 118°04'261156784.1
2016-Apr-27 20:33N 22°55' E 113°36'644463506.3
2016-Apr-27 20:33N 31°01' E 121°29'3136604.0
2016-Apr-27 20:33N 31°31' E 121°22'224357.8
2016-Apr-27 20:33N 31°16' E 121°03'637109160.0
2016-Apr-27 20:32N 23°04' E 113°29'64147112.6
2016-Apr-27 20:32N 31°16' E 121°12'64227171.4
2016-Apr-27 20:30N 23°02' E 113°32'65840866.4
2016-Apr-27 20:29N 31°30' E 121°23'1 5.1
2016-Apr-27 20:22N 31°30' E 121°23'016.4
2016-Apr-27 20:20N 31°30' E 121°24'66835367.6
2016-Apr-27 20:19N 22°55' E 113°25'45425.2
2016-Apr-27 20:13N 22°10' E 113°31'6831049.0
2016-Apr-27 19:34N 31°16' E 121°12'206422.3
2016-Apr-27 19:33N 31°00' E 121°26'435111754.0
2016-Apr-27 19:33N 24°25' E 118°04'4611659721.8
2016-Apr-27 19:33N 31°31' E 121°22'313138.1
2016-Apr-27 19:32N 31°01' E 121°29'294504.4
2016-Apr-27 19:32N 31°30' E 121°23'118.9
2016-Apr-27 19:30N 31°30' E 121°23'66720695.3
2016-Apr-27 19:28N 22°49' E 113°36'422307.9
2016-Apr-27 19:27N 22°18' E 114°08'675202461.9
2016-Apr-27 19:27N 31°30' E 121°24'65911799.9
2016-Apr-27 19:23N 23°02' E 113°32'52589.5
2016-Apr-27 19:18N 22°10' E 113°31'54476.6
2016-Apr-27 19:11N 23°04' E 113°29'541167.3
2016-Apr-27 19:09N 22°11' E 113°38'69545460.0
2016-Apr-27 19:08N 31°20' E 121°34'2035.5
2016-Apr-27 18:33N 31°00' E 121°26'31111239.9
2016-Apr-27 18:33N 31°31' E 121°22'1819.9
2016-Apr-27 18:33N 31°30' E 121°23'171181.9
2016-Apr-27 18:32N 31°16' E 121°12'6412308502.6
2016-Apr-27 18:32N 23°04' E 113°29'264237646.4
2016-Apr-27 18:32N 24°25' E 118°04'45546770.7
2016-Apr-27 18:32N 31°20' E 121°34'1812905.9
2016-Apr-27 18:32N 31°02' E 121°29'281004.8
2016-Apr-27 18:30N 31°30' E 121°24'028.1
2016-Apr-27 18:29N 31°30' E 121°23'658592567.5
2016-Apr-27 18:29N 23°02' E 113°32'554936.7
2016-Apr-27 18:28N 22°18' E 114°08'2498.2
2016-Apr-27 18:14N 22°14' E 113°42'68911377.7
2016-Apr-27 18:10N 31°19' E 121°34'6946157.1
2016-Apr-27 18:03N 22°10' E 113°37'6801370.3
2016-Apr-27 17:33N 31°16' E 121°12'177809.7
2016-Apr-27 17:33N 31°30' E 121°23'4611657997.7
2016-Apr-27 17:33N 24°25' E 118°04'4351564536.1
2016-Apr-27 17:33N 31°00' E 121°26'3155480.6
2016-Apr-27 17:33N 31°31' E 121°22'6941249437.1
2016-Apr-27 17:33N 22°12' E 113°40'264946.2
2016-Apr-27 17:33N 22°18' E 114°08'67237218.9
2016-Apr-27 17:32N 31°20' E 121°34'014.0
2016-Apr-27 17:30N 31°19' E 121°34'14424.4
2016-Apr-27 17:28N 31°30' E 121°24'013.8
2016-Apr-27 17:26N 31°30' E 121°23'65814186.5
2016-Apr-27 17:24N 23°04' E 113°29'6577100.5
2016-Apr-27 17:18N 31°21' E 121°33'6575075.9
2016-Apr-27 17:10N 23°02' E 113°32'6391044.1
2016-Apr-27 16:34N 31°00' E 121°26'435521518.5
2016-Apr-27 16:33N 24°25' E 118°04'46197620.5
2016-Apr-27 16:33N 31°31' E 121°22'65857818.9
2016-Apr-27 16:33N 23°04' E 113°29'641164891.5
2016-Apr-27 16:32N 31°16' E 121°12'192716.5
2016-Apr-27 16:32N 31°20' E 121°34'13135.1
2016-Apr-27 16:26N 31°30' E 121°24'13745.4
2016-Apr-27 16:25N 31°19' E 121°34'141467.2
2016-Apr-27 16:24N 31°30' E 121°23'132.4
2016-Apr-27 16:23N 31°30' E 121°23'15510.8
2016-Apr-27 16:22N 31°41' E 121°12'67856753.1
2016-Apr-27 16:21N 22°18' E 114°08'55768.4
2016-Apr-27 16:17N 23°02' E 113°32'22131.3
2016-Apr-27 16:06N 22°42' E 113°41'2240.2
2016-Apr-27 15:33N 23°02' E 113°32'6391149610.9
2016-Apr-27 15:33N 31°00' E 121°26'3017881.0
2016-Apr-27 15:33N 31°30' E 121°23'461184231.6
2016-Apr-27 15:33N 24°25' E 118°04'46044762.7
2016-Apr-27 15:32N 31°30' E 121°23'2177.6
2016-Apr-27 15:32N 31°31' E 121°22'66430272.2
2016-Apr-27 15:31N 22°53' E 113°34'474548.0
2016-Apr-27 15:30N 22°18' E 114°08'523006.6
2016-Apr-27 15:29N 22°55' E 113°27'65057056.2
2016-Apr-27 15:28N 31°16' E 121°12'19599.8
2016-Apr-27 15:26N 31°19' E 121°34'1 5.6
2016-Apr-27 15:11N 31°21' E 121°33'1422.2
2016-Apr-27 14:33N 31°31' E 121°22'3113859.2
2016-Apr-27 14:33N 31°00' E 121°26'2017661.3
2016-Apr-27 14:33N 31°16' E 121°12'4431596519.7
2016-Apr-27 14:33N 24°25' E 118°04'26332609.4
2016-Apr-27 14:33N 23°02' E 113°32'658139426.6
2016-Apr-27 14:32N 31°30' E 121°23'67432373.0
2016-Apr-27 14:31N 22°18' E 114°08'5810394.8
2016-Apr-27 14:31N 23°04' E 113°29'65915393.9
2016-Apr-27 14:28N 31°30' E 121°24'12389.5
2016-Apr-27 14:26N 31°21' E 121°33'6594125.6
2016-Apr-27 14:17N 22°59' E 113°33'65920439.7
2016-Apr-27 14:15N 31°19' E 121°34'14504.1
2016-Apr-27 14:13N 31°30' E 121°23'3365906.0
2016-Apr-27 14:10N 26°08' E 119°34'309509.9
2016-Apr-27 13:34N 31°00' E 121°26'43550468.9
2016-Apr-27 13:33N 24°25' E 118°04'46051756.2
2016-Apr-27 13:32N 31°30' E 121°23'172770.6
2016-Apr-27 13:32N 31°16' E 121°12'181056.9
2016-Apr-27 13:31N 31°31' E 121°22'15364.8
2016-Apr-27 13:29N 31°19' E 121°34'65628134.9
2016-Apr-27 13:27N 23°04' E 113°29'58743.1
2016-Apr-27 13:23N 22°18' E 114°08'67213079.5
2016-Apr-27 13:19N 31°21' E 121°33'121729.5
2016-Apr-27 13:19N 31°30' E 121°24'014.9
2016-Apr-27 13:17N 31°30' E 121°23'3040.5
2016-Apr-27 12:33N 31°00' E 121°26'435111754.0
2016-Apr-27 12:33N 24°25' E 118°04'25130125.0
2016-Apr-27 12:33N 22°18' E 114°08'674303496.6
2016-Apr-27 12:32N 31°30' E 121°23'2849502.6
2016-Apr-27 12:32N 31°02' E 121°29'294990.9
2016-Apr-27 12:32N 31°31' E 121°22'66139646.8
2016-Apr-27 12:31N 22°59' E 113°33'6599643.2
2016-Apr-27 12:27N 31°21' E 121°33'65740062.1
2016-Apr-27 12:26N 23°04' E 113°30'65831598.6
2016-Apr-27 12:25N 31°30' E 121°23'15104.4
2016-Apr-27 12:16N 31°41' E 121°12'153605.2
2016-Apr-27 12:16N 31°30' E 121°24'1392.1
2016-Apr-27 12:07N 31°19' E 121°34'6721183.6
2016-Apr-27 11:33N 22°18' E 114°08'6752429928.3
2016-Apr-27 11:33N 31°31' E 121°22'461276591.4
2016-Apr-27 11:33N 24°25' E 118°04'45456401.5
2016-Apr-27 11:33N 31°19' E 121°34'1656.3
2016-Apr-27 11:33N 31°21' E 121°33'212143.1
2016-Apr-27 11:32N 31°00' E 121°26'24263.7
2016-Apr-27 11:27N 31°17' E 121°06'233827.5
2016-Apr-27 11:26N 31°20' E 121°34'13153.1
2016-Apr-27 11:21N 31°30' E 121°24'049.8
2016-Apr-27 11:21N 31°30' E 121°23'196.7
2016-Apr-27 11:20N 31°30' E 121°23'65810442.9
2016-Apr-27 11:16N 23°04' E 113°29'66011212.3
2016-Apr-27 11:13N 31°41' E 121°12'1320.1
2016-Apr-27 10:33N 31°31' E 121°22'31110894.9
2016-Apr-27 10:33N 31°00' E 121°26'43544701.0
2016-Apr-27 10:33N 24°25' E 118°04'46092012.2
2016-Apr-27 10:32N 31°30' E 121°23'67433721.6
2016-Apr-27 10:31N 22°18' E 114°08'513563.0
2016-Apr-27 10:30N 22°59' E 113°33'66112017.1
2016-Apr-27 10:27N 31°30' E 121°24'12491.3
2016-Apr-27 10:26N 31°21' E 121°33'65715253.9
2016-Apr-27 10:23N 23°04' E 113°29'318.3
2016-Apr-27 10:12N 23°02' E 113°32'657118196.9
2016-Apr-27 10:12N 31°19' E 121°34'14215.1
2016-Apr-27 10:08N 31°30' E 121°23'10304.0
2016-Apr-27 10:06N 31°38' E 121°16'6771232.3
2016-Apr-27 09:33N 22°18' E 114°08'25175312.4
2016-Apr-27 09:33N 24°25' E 118°04'43528445.8
2016-Apr-27 09:32N 31°00' E 121°26'203256.8
2016-Apr-27 09:32N 31°19' E 121°34'151562.8
2016-Apr-27 09:31N 31°31' E 121°22'66144893.2
2016-Apr-27 09:30N 22°59' E 113°33'66144864.9
2016-Apr-27 09:29N 31°30' E 121°23'69549084.7
2016-Apr-27 09:29N 22°12' E 113°38'69732179.6
2016-Apr-27 09:27N 31°35' E 121°18'7509.8
2016-Apr-27 09:26N 31°30' E 121°23'65817177.7
2016-Apr-27 09:24N 23°04' E 113°29'110.3
2016-Apr-27 09:20N 23°04' E 113°30'6402613.3
2016-Apr-27 09:06N 31°57' E 120°08'6621224.5
2016-Apr-27 08:33N 22°18' E 114°08'676173751.8
2016-Apr-27 08:33N 31°32' E 121°23'46259383.8
2016-Apr-27 08:33N 24°25' E 118°04'43512222.6
2016-Apr-27 08:30N 31°00' E 121°26'3113878.0
2016-Apr-27 08:30N 31°31' E 121°22'232.3
2016-Apr-27 08:27N 31°30' E 121°24'143254.5
2016-Apr-27 08:27N 31°19' E 121°34'132102.0
2016-Apr-27 08:26N 31°30' E 121°23'65812665.1
2016-Apr-27 08:23N 23°04' E 113°30'660107951.5
2016-Apr-27 08:23N 31°40' E 121°12'54410.1
2016-Apr-27 08:15N 31°57' E 120°12'64185485.8
2016-Apr-27 08:15N 23°04' E 113°29'658959.1
2016-Apr-27 07:33N 31°30' E 121°23'46048746.0
2016-Apr-27 07:33N 24°25' E 118°04'46133870.7
2016-Apr-27 07:32N 31°31' E 121°22'632670.0
2016-Apr-27 07:31N 31°57' E 120°14'831298.8
2016-Apr-27 07:27N 31°00' E 121°26'37266.7
2016-Apr-27 07:18N 31°36' E 121°17'650.5
2016-Apr-27 07:12N 31°40' E 121°13'6936578.4
2016-Apr-27 07:06N 22°16' E 113°43'69016339.1
2016-Apr-27 07:03N 31°30' E 121°23'3059.3
2016-Apr-27 06:33N 31°00' E 121°26'294578.6
2016-Apr-27 06:32N 31°30' E 121°23'41031.6
2016-Apr-27 06:32N 31°33' E 121°21'46221902.1
2016-Apr-27 06:31N 24°25' E 118°04'46728963.2
2016-Apr-27 06:30N 31°40' E 121°13'14882.8
2016-Apr-27 06:29N 31°30' E 121°23'230.2
2016-Apr-27 06:26N 31°31' E 121°22'1 5.4
2016-Apr-27 06:10N 31°30' E 121°23'1219.1
2016-Apr-27 05:33N 31°39' E 121°13'4071525.3
2016-Apr-27 05:33N 31°00' E 121°26'302591.5
2016-Apr-27 05:32N 31°30' E 121°24'0 7.4
2016-Apr-27 05:29N 31°30' E 121°23'6116873.8
2016-Apr-27 05:29N 32°00' E 120°21'69317949.9
2016-Apr-27 05:27N 22°11' E 113°32'283339959.1
2016-Apr-27 05:27N 24°25' E 118°04'81733062.3
2016-Apr-27 05:25N 37°32' E 122°19'4569956.0
2016-Apr-27 05:23N 29°56' E 122°16'105128.1
2016-Apr-27 04:33N 31°30' E 121°23'308247.4
2016-Apr-27 04:33N 31°00' E 121°26'3112333.6
2016-Apr-27 04:33N 31°31' E 121°22'46179032.8
2016-Apr-27 04:33N 24°25' E 118°04'27210890.9
2016-Apr-27 04:31N 22°15' E 113°43'69016021.3
2016-Apr-27 04:29N 31°30' E 121°23'1691289.1
2016-Apr-27 04:21N 31°25' E 118°05'1613897.2
2016-Apr-27 04:18N 31°39' E 121°13'48709.9
2016-Apr-27 04:14N 32°02' E 120°25'1494249.3
2016-Apr-27 04:12N 29°58' E 121°60'972111.8
2016-Apr-27 04:09N 31°30' E 121°23'44117430.2
2016-Apr-27 04:08N 38°51' E 121°33'103325476.2
2016-Apr-27 04:05N 23°04' E 113°29'65698464.8
2016-Apr-27 04:05N 31°19' E 121°34'2037.7
2016-Apr-27 03:33N 31°00' E 121°26'3118500.4
2016-Apr-27 03:33N 31°31' E 121°22'41301.6
2016-Apr-27 03:33N 31°34' E 121°19'72374.2
2016-Apr-27 03:33N 31°39' E 121°13'11216842.5
2016-Apr-27 03:32N 29°56' E 122°06'9313337.0
2016-Apr-27 03:32N 31°23' E 121°30'457821760.5
2016-Apr-27 03:32N 24°25' E 118°04'26413781.5
2016-Apr-27 03:31N 23°04' E 113°29'65518864.6
2016-Apr-27 03:29N 32°04' E 120°28'58761.1
2016-Apr-27 03:24N 31°30' E 121°23'14200.2
2016-Apr-27 03:20N 31°19' E 121°34'29901.9
2016-Apr-27 03:18N 31°40' E 121°11'15413.3
2016-Apr-27 03:16N 31°30' E 121°23'6619511.4
2016-Apr-27 03:12N 22°59' E 113°33'6276469.7
2016-Apr-27 03:06N 29°56' E 122°15'76140.7
2016-Apr-27 02:33N 31°00' E 121°26'203774.3
2016-Apr-27 02:33N 31°19' E 121°34'2716419.9
2016-Apr-27 02:33N 31°40' E 121°13'12120708.6
2016-Apr-27 02:33N 29°48' E 122°06'10914050.6
2016-Apr-27 02:32N 31°31' E 121°22'101459.8
2016-Apr-27 02:32N 31°38' E 121°14'66219376.7
2016-Apr-27 02:30N 22°59' E 113°33'66115862.4
2016-Apr-27 02:27N 31°30' E 121°23'12743.5
2016-Apr-27 02:26N 31°21' E 121°33'45514124.1
2016-Apr-27 02:24N 24°25' E 118°04'46011915.2
2016-Apr-27 02:22N 31°30' E 121°23'6697644.3
2016-Apr-27 02:17N 22°42' E 113°41'6703210.5
2016-Apr-27 02:04N 32°03' E 120°33'53103.1
2016-Apr-27 01:33N 31°31' E 121°22'152106.3
2016-Apr-27 01:33N 31°19' E 121°34'45425164.6
2016-Apr-27 01:32N 24°25' E 118°04'43544700.5
2016-Apr-27 01:31N 31°00' E 121°26'30825.6
2016-Apr-27 01:29N 31°30' E 121°23'65894822.5
2016-Apr-27 01:29N 23°04' E 113°29'66023309.8
2016-Apr-27 01:27N 31°40' E 121°13'382035.0
2016-Apr-27 01:26N 32°02' E 120°35'16124078.0
2016-Apr-27 01:26N 29°42' E 122°07'61673964.7
2016-Apr-27 01:25N 22°49' E 113°36'14144.8
2016-Apr-27 01:19N 23°02' E 113°32'65811909.2
2016-Apr-27 01:16N 31°30' E 121°23'744758.9
2016-Apr-27 01:15N 31°58' E 120°03'92132.2
2016-Apr-27 00:33N 31°00' E 121°26'317928.7
2016-Apr-27 00:33N 31°31' E 121°22'4613472.1
2016-Apr-27 00:25N 24°25' E 118°04'27465661.0
2016-Apr-27 00:25N 23°07' E 113°17'144951.3
2016-Apr-27 00:25N 23°02' E 113°32'103479213.3
2016-Apr-27 00:24N 38°50' E 121°33'419150776.3
2016-Apr-27 00:24N 31°57' E 120°08'8212885.1
2016-Apr-27 00:23N 31°19' E 121°34'827564.3
2016-Apr-27 00:23N 31°57' E 120°08'1674241.4
2016-Apr-27 00:20N 29°42' E 122°04'102972.4
2016-Apr-27 00:14N 31°21' E 121°33'69426294.6
2016-Apr-27 00:13N 22°11' E 113°38'65715883.0
2016-Apr-27 00:10N 29°56' E 122°15'1032901.8
2016-Apr-27 00:08N 31°30' E 121°23'441765.9
2016-Apr-26 23:33N 38°50' E 121°33'470338168.6
2016-Apr-26 23:33N 31°00' E 121°26'435223502.4
2016-Apr-26 23:33N 24°25' E 118°04'455327680.0
2016-Apr-26 23:33N 31°21' E 121°33'148257.1
2016-Apr-26 23:33N 31°31' E 121°22'642747.3
2016-Apr-26 23:32N 31°57' E 120°13'16013433.8
2016-Apr-26 23:31N 29°48' E 122°05'9720481.9
2016-Apr-26 23:31N 31°21' E 121°33'657112621.4
2016-Apr-26 23:30N 23°02' E 113°32'40427472.3
2016-Apr-26 23:29N 26°45' E 119°43'298107233.1
2016-Apr-26 23:29N 31°30' E 121°23'14615.9
2016-Apr-26 23:28N 31°40' E 121°13'11716818.6
2016-Apr-26 23:28N 29°56' E 122°15'9014129.0
2016-Apr-26 23:27N 31°19' E 121°34'13671.5
2016-Apr-26 23:26N 31°30' E 121°23'658014.1
2016-Apr-26 23:25N 31°57' E 120°14'27145.0
2016-Apr-26 23:14N 32°01' E 120°46'40390.3
2016-Apr-26 23:08N 31°31' E 121°17'105182.0
2016-Apr-26 22:34N 29°55' E 122°07'103372074.1
2016-Apr-26 22:34N 31°31' E 121°22'152740.7
2016-Apr-26 22:33N 31°19' E 121°34'201666.8
2016-Apr-26 22:32N 31°00' E 121°26'301651.2
2016-Apr-26 22:31N 31°30' E 121°23'695100109.8
2016-Apr-26 22:31N 22°12' E 113°39'107990327.7
2016-Apr-26 22:30N 38°50' E 121°34'1044341522.1
2016-Apr-26 22:30N 22°52' E 113°33'265119107.5
2016-Apr-26 22:30N 24°25' E 118°04'26378783.2
2016-Apr-26 22:30N 23°02' E 113°32'65859208.6
2016-Apr-26 22:29N 31°31' E 121°21'39055.4
2016-Apr-26 22:29N 31°30' E 121°23'12192.3
2016-Apr-26 22:25N 31°21' E 121°33'927377.1
2016-Apr-26 22:25N 29°56' E 122°15'11710298.7
2016-Apr-26 22:24N 31°40' E 121°13'66027018.0
2016-Apr-26 22:22N 23°04' E 113°29'64840205.9
2016-Apr-26 22:21N 31°60' E 120°20'112.7
2016-Apr-26 22:15N 32°00' E 120°22'3577389.5
2016-Apr-26 22:12N 37°57' E 119°54'4057545.7
2016-Apr-26 22:09N 31°21' E 121°33'1423.0
2016-Apr-26 21:33N 31°31' E 121°22'9870341.7
2016-Apr-26 21:33N 29°57' E 121°55'6401151263.5
2016-Apr-26 21:33N 22°15' E 113°42'669141716.6
2016-Apr-26 21:32N 31°00' E 121°26'271940.6
2016-Apr-26 21:31N 31°28' E 121°26'44343055.7
2016-Apr-26 21:31N 38°50' E 121°34'1079117725.3
2016-Apr-26 21:30N 22°12' E 113°39'693311758.1
2016-Apr-26 21:30N 31°21' E 121°33'26825.6
2016-Apr-26 21:28N 31°40' E 121°13'46718065.8
2016-Apr-26 21:27N 24°25' E 118°04'4008368.8
2016-Apr-26 21:24N 29°56' E 122°15'62548940.5
2016-Apr-26 21:23N 23°02' E 113°32'65957839.5
2016-Apr-26 21:22N 31°30' E 121°23'14212.2
2016-Apr-26 21:19N 31°19' E 121°34'6563352.0
2016-Apr-26 21:07N 23°04' E 113°29'6581168.3
2016-Apr-26 20:33N 31°31' E 121°22'141713.1
2016-Apr-26 20:32N 31°21' E 121°33'211414.9
2016-Apr-26 20:32N 31°00' E 121°26'252846.9
2016-Apr-26 20:31N 31°26' E 121°29'6347.2
2016-Apr-26 20:30N 31°30' E 121°23'132421.7
2016-Apr-26 20:30N 31°40' E 121°13'46767204.7
2016-Apr-26 20:29N 24°25' E 118°04'26327805.8
2016-Apr-26 20:29N 23°02' E 113°32'6572365097.9
2016-Apr-26 20:29N 31°21' E 121°33'922305.5
2016-Apr-26 20:26N 29°56' E 122°15'6272231.2
2016-Apr-26 20:09N 22°56' E 113°36'6611106.0
2016-Apr-26 19:34N 31°31' E 121°22'665265984.1
2016-Apr-26 19:33N 22°52' E 113°34'66782817.3
2016-Apr-26 19:33N 31°40' E 121°13'467210014.6
2016-Apr-26 19:33N 24°25' E 118°04'435156451.7
2016-Apr-26 19:33N 31°00' E 121°26'30409.0
2016-Apr-26 19:28N 31°30' E 121°23'659592842.1
2016-Apr-26 19:28N 23°02' E 113°32'51951.8
2016-Apr-26 19:25N 22°11' E 113°38'69469371.0
2016-Apr-26 19:24N 31°21' E 121°33'921211.6
2016-Apr-26 19:20N 29°56' E 122°15'92165965.1
2016-Apr-26 19:20N 31°21' E 121°33'636.3
2016-Apr-26 19:09N 31°26' E 121°29'0 0.0
2016-Apr-26 18:33N 31°26' E 121°29'711981.9
2016-Apr-26 18:33N 31°20' E 121°33'2647557.6
2016-Apr-26 18:33N 31°40' E 121°13'133713.0
2016-Apr-26 18:33N 31°30' E 121°23'305123.8
2016-Apr-26 18:32N 31°00' E 121°26'2115014.5
2016-Apr-26 18:32N 31°21' E 121°33'141247.9
2016-Apr-26 18:32N 31°31' E 121°22'66731597.5
2016-Apr-26 18:30N 22°55' E 113°27'441154.2
2016-Apr-26 18:28N 22°10' E 113°32'70215513.4
2016-Apr-26 18:25N 31°44' E 121°07'6602465.4
2016-Apr-26 18:09N 23°02' E 113°32'6601102.8
2016-Apr-26 17:33N 31°40' E 121°12'699139852.6
2016-Apr-26 17:33N 22°10' E 113°37'697156869.8
2016-Apr-26 17:33N 31°31' E 121°22'461184413.5
2016-Apr-26 17:33N 24°25' E 118°04'46566983.1
2016-Apr-26 17:32N 31°38' E 121°15'102457.5
2016-Apr-26 17:32N 31°30' E 121°23'658592602.2
2016-Apr-26 17:32N 23°04' E 113°29'63832370.0
2016-Apr-26 17:31N 31°00' E 121°26'21872.7
2016-Apr-26 17:29N 31°21' E 121°33'119.0
2016-Apr-26 17:25N 31°19' E 121°34'272404.1
2016-Apr-26 17:24N 31°40' E 121°13'1316.0
2016-Apr-26 16:33N 31°30' E 121°23'5787.7
2016-Apr-26 16:33N 31°34' E 121°20'111001.9
2016-Apr-26 16:32N 31°26' E 121°29'458206234.0
2016-Apr-26 16:32N 24°25' E 118°04'46151859.3
2016-Apr-26 16:32N 31°31' E 121°22'72581.3
2016-Apr-26 16:32N 31°37' E 121°17'21930.5
2016-Apr-26 16:30N 31°21' E 121°33'26639.0
2016-Apr-26 16:28N 31°40' E 121°13'66048520.8
2016-Apr-26 16:27N 23°04' E 113°29'6563202.1
2016-Apr-26 16:15N 31°19' E 121°34'1521.9
2016-Apr-26 15:33N 31°31' E 121°22'661158595.3
2016-Apr-26 15:33N 23°04' E 113°25'66174407.9
2016-Apr-26 15:32N 31°33' E 121°20'462128074.5
2016-Apr-26 15:32N 24°25' E 118°04'46124766.7
2016-Apr-26 15:31N 31°30' E 121°24'135.8
2016-Apr-26 15:30N 31°30' E 121°23'1254.5
2016-Apr-26 15:16N 31°21' E 121°33'922256.8
2016-Apr-26 15:14N 29°56' E 122°15'1178115.9
2016-Apr-26 15:13N 31°40' E 121°13'3584139.1
2016-Apr-26 15:08N 37°26' E 119°23'370641.2
2016-Apr-26 14:33N 31°30' E 121°23'1325.1
2016-Apr-26 14:33N 31°31' E 121°22'143300.7
2016-Apr-26 14:33N 31°21' E 121°33'455234051.5
2016-Apr-26 14:33N 24°25' E 118°04'46259349.2
2016-Apr-26 14:32N 31°31' E 121°24'36969928.8
2016-Apr-26 14:32N 37°26' E 119°23'371148226.4
2016-Apr-26 14:32N 31°30' E 121°25'111189.7
2016-Apr-26 14:31N 31°21' E 121°33'26333.1
2016-Apr-26 14:27N 31°40' E 121°13'66134984.1
2016-Apr-26 14:25N 23°02' E 113°32'62512370.4
2016-Apr-26 14:22N 29°56' E 122°15'911464.3
2016-Apr-26 14:19N 31°19' E 121°34'631.0
2016-Apr-26 14:07N 31°21' E 121°27'915.3
2016-Apr-26 13:33N 31°30' E 121°25'3676.9
2016-Apr-26 13:33N 31°31' E 121°22'5193.4
2016-Apr-26 13:31N 31°29' E 121°27'9198.9
2016-Apr-26 13:28N 31°21' E 121°33'121115.6
2016-Apr-26 13:28N 31°30' E 121°23'65914373.6
2016-Apr-26 13:25N 23°02' E 113°32'657168861.7
2016-Apr-26 13:25N 31°19' E 121°34'271859.2
2016-Apr-26 13:24N 31°40' E 121°13'144565.2
2016-Apr-26 13:24N 31°30' E 121°23'1043272.2
2016-Apr-26 13:22N 29°56' E 122°15'105131.2
2016-Apr-26 12:33N 31°31' E 121°22'3225.6
2016-Apr-26 12:33N 31°30' E 121°25'371333632.0
2016-Apr-26 12:33N 37°26' E 119°23'35853656.7
2016-Apr-26 12:32N 31°40' E 121°13'271642.5
2016-Apr-26 12:31N 31°19' E 121°34'8775.7
2016-Apr-26 12:31N 31°26' E 121°30'6151.1
2016-Apr-26 12:28N 31°21' E 121°33'6738.7
2016-Apr-26 12:28N 31°26' E 121°29'988039.2
2016-Apr-26 12:27N 29°56' E 122°15'1477225.7
2016-Apr-26 12:26N 32°01' E 120°46'66735305.6
2016-Apr-26 12:25N 22°56' E 113°33'66312051.7
2016-Apr-26 12:21N 31°30' E 121°23'65912350.5
2016-Apr-26 12:18N 23°02' E 113°32'6394997.2
2016-Apr-26 12:11N 31°00' E 121°26'21421.3
2016-Apr-26 12:08N 31°21' E 121°33'6571146.9
2016-Apr-26 11:33N 23°04' E 113°29'659592776.2
2016-Apr-26 11:33N 31°31' E 121°22'11960.6
2016-Apr-26 11:32N 31°23' E 121°30'2328169.2
2016-Apr-26 11:32N 31°16' E 121°04'256047.1
2016-Apr-26 11:32N 31°21' E 121°33'115781.0
2016-Apr-26 11:32N 31°30' E 121°25'295003.3
2016-Apr-26 11:32N 31°00' E 121°26'696556.0
2016-Apr-26 11:31N 32°01' E 120°47'308342.8
2016-Apr-26 11:31N 31°40' E 121°13'27735.3
2016-Apr-26 11:29N 31°19' E 121°34'8307.9
2016-Apr-26 11:27N 31°26' E 121°28'987867.0
2016-Apr-26 11:26N 29°56' E 122°15'921050.3
2016-Apr-26 11:21N 31°21' E 121°33'65876396.4
2016-Apr-26 11:21N 23°01' E 113°32'184878.7
2016-Apr-26 11:08N 23°20' E 116°50'529915.7
2016-Apr-26 10:33N 31°17' E 121°06'242231.6
2016-Apr-26 10:33N 31°00' E 121°26'525145478.2
2016-Apr-26 10:33N 23°18' E 116°47'551283124.4
2016-Apr-26 10:32N 31°31' E 121°22'1059258.1
2016-Apr-26 10:32N 29°56' E 122°15'927720.2
2016-Apr-26 10:31N 31°21' E 121°33'121116.0
2016-Apr-26 10:30N 31°30' E 121°23'9735.9
2016-Apr-26 10:30N 31°21' E 121°27'235786.3
2016-Apr-26 10:29N 31°40' E 121°13'3045212.7
2016-Apr-26 10:26N 26°47' E 119°43'4054158.9
2016-Apr-26 10:20N 23°01' E 113°32'6599307.8
2016-Apr-26 10:16N 31°26' E 121°28'549778.8
2016-Apr-26 09:34N 23°21' E 116°39'526947165.5
2016-Apr-26 09:33N 31°00' E 121°26'315837.7
2016-Apr-26 09:33N 31°31' E 121°22'11778.6
2016-Apr-26 09:32N 31°21' E 121°27'7738.2
2016-Apr-26 09:32N 31°28' E 121°25'16977.9
2016-Apr-26 09:31N 31°40' E 121°13'46752503.0
2016-Apr-26 09:30N 24°25' E 118°04'461552716.6
2016-Apr-26 09:30N 31°30' E 121°23'6196.7
2016-Apr-26 09:28N 31°26' E 121°28'65914044.3
2016-Apr-26 09:25N 23°01' E 113°32'65812139.1
2016-Apr-26 09:22N 31°19' E 121°34'13175.0
2016-Apr-26 09:18N 31°30' E 121°23'2939.8
2016-Apr-26 08:34N 31°00' E 121°26'525630400.0
2016-Apr-26 08:33N 23°25' E 116°33'1037532.4
2016-Apr-26 08:33N 24°25' E 118°04'4611658096.9
2016-Apr-26 08:33N 31°30' E 121°23'158.6
2016-Apr-26 08:31N 31°31' E 121°22'85521.2
2016-Apr-26 08:31N 31°26' E 121°28'659148342.7
2016-Apr-26 08:31N 23°01' E 113°32'65584209.9
2016-Apr-26 08:30N 31°21' E 121°27'6143.7
2016-Apr-26 08:28N 31°19' E 121°34'27237.4
2016-Apr-26 08:21N 31°40' E 121°13'26211.7
2016-Apr-26 08:14N 31°21' E 121°33'1060.2
2016-Apr-26 08:04N 31°28' E 121°25'460894.7
2016-Apr-26 07:33N 24°25' E 118°04'435195562.1
2016-Apr-26 07:33N 31°00' E 121°26'212136.8
2016-Apr-26 07:32N 31°21' E 121°27'112142.7
2016-Apr-26 07:32N 31°31' E 121°22'70126479.6
2016-Apr-26 07:32N 31°58' E 120°05'8475750.8
2016-Apr-26 07:32N 31°19' E 121°34'32673.6
2016-Apr-26 07:29N 31°43' E 121°08'571.3
2016-Apr-26 07:25N 31°40' E 121°13'13523.6
2016-Apr-26 07:23N 31°30' E 121°23'3129.2
2016-Apr-26 07:22N 31°28' E 121°25'271300.1
2016-Apr-26 07:21N 31°47' E 121°01'319345.8
2016-Apr-26 07:20N 31°26' E 121°28'6170.4
2016-Apr-26 07:18N 31°21' E 121°33'2127.7
2016-Apr-26 06:33N 31°00' E 121°26'3122252.3
2016-Apr-26 06:33N 31°31' E 121°22'983516.4
2016-Apr-26 06:31N 29°59' E 121°59'9414725.5
2016-Apr-26 06:31N 31°28' E 121°25'1017820.4
2016-Apr-26 06:31N 31°21' E 121°33'177.8
2016-Apr-26 06:30N 31°19' E 121°34'658263033.6
2016-Apr-26 06:30N 23°01' E 113°32'65984764.5
2016-Apr-26 06:29N 31°30' E 121°23'147181.0
2016-Apr-26 06:29N 31°40' E 121°13'574528.8
2016-Apr-26 06:28N 31°56' E 120°09'742567.9
2016-Apr-26 06:27N 31°26' E 121°28'51286.8
2016-Apr-26 06:26N 31°21' E 121°27'27823.7
2016-Apr-26 06:24N 31°43' E 121°08'13738.6
2016-Apr-26 06:23N 31°35' E 121°19'6295.9
2016-Apr-26 06:22N 31°30' E 121°23'1934386776.9
2016-Apr-26 06:22N 00°02' E 114°09'192681592.8
2016-Apr-26 06:20N 31°21' E 121°33'690112952.4
2016-Apr-26 06:20N 22°15' E 113°39'6947764.5
2016-Apr-26 06:15N 31°37' E 121°16'69423582.7
2016-Apr-26 06:13N 22°14' E 113°41'25208.4
2016-Apr-26 06:06N 22°39' E 113°43'26110817.4
2016-Apr-26 06:04N 24°25' E 118°04'466905.8
2016-Apr-26 05:33N 31°40' E 121°13'6712415208.2
2016-Apr-26 05:33N 22°43' E 113°41'67075359.8
2016-Apr-26 05:33N 31°34' E 121°20'112723.1
2016-Apr-26 05:33N 31°26' E 121°28'254150.2
2016-Apr-26 05:32N 31°00' E 121°26'3013466.0
2016-Apr-26 05:32N 31°30' E 121°23'2915114.3
2016-Apr-26 05:32N 31°01' E 121°29'301441.7
2016-Apr-26 05:31N 31°31' E 121°22'66024482.3
2016-Apr-26 05:29N 23°01' E 113°32'62346740.9
2016-Apr-26 05:28N 29°59' E 122°08'851703.0
2016-Apr-26 05:25N 31°19' E 121°34'45411280.7
2016-Apr-26 05:23N 24°25' E 118°04'46643012.0
2016-Apr-26 05:22N 31°56' E 120°14'7136659.4
2016-Apr-26 05:22N 31°21' E 121°27'451556.9
2016-Apr-26 04:34N 38°52' E 121°32'436523727.9
2016-Apr-26 04:33N 31°36' E 121°18'66811615.1
2016-Apr-26 04:30N 22°49' E 113°36'66739336.6
2016-Apr-26 04:29N 31°31' E 121°22'69127631.2
2016-Apr-26 04:28N 22°15' E 113°43'69063721.4
2016-Apr-26 04:27N 31°28' E 121°25'11361.4
2016-Apr-26 04:25N 31°19' E 121°34'201138.0
2016-Apr-26 04:24N 31°00' E 121°26'43515645.2
2016-Apr-26 04:22N 24°25' E 118°04'45327200.0
2016-Apr-26 04:21N 31°21' E 121°27'894049.8
2016-Apr-26 04:20N 29°59' E 122°08'11110545.8
2016-Apr-26 04:19N 31°40' E 121°13'35791852.6
2016-Apr-26 04:19N 37°35' E 122°05'3717773.0
2016-Apr-26 04:16N 31°25' E 121°32'75408.5
2016-Apr-26 04:05N 31°57' E 120°12'62116.7
2016-Apr-26 03:33N 31°32' E 121°19'3256.6
2016-Apr-26 03:33N 31°31' E 121°22'44016668.4
2016-Apr-26 03:31N 38°51' E 121°33'45038556.4
2016-Apr-26 03:30N 31°21' E 121°27'102873.8
2016-Apr-26 03:30N 31°30' E 121°23'3013434.3
2016-Apr-26 03:30N 31°00' E 121°26'712886.4
2016-Apr-26 03:29N 29°59' E 122°07'8513331.8
2016-Apr-26 03:28N 31°19' E 121°34'37510148.1
2016-Apr-26 03:26N 37°33' E 122°14'3679430.9
2016-Apr-26 03:24N 31°28' E 121°25'65979137.1
2016-Apr-26 03:23N 23°01' E 113°32'859.6
2016-Apr-26 03:16N 23°02' E 113°23'663943.1
2016-Apr-26 02:33N 31°32' E 121°19'3730.4
2016-Apr-26 02:33N 31°31' E 121°22'65940190.9
2016-Apr-26 02:32N 23°04' E 113°29'21639.7
2016-Apr-26 02:32N 23°05' E 113°26'10341861407.4
2016-Apr-26 02:32N 38°50' E 121°34'450147110.2
2016-Apr-26 02:32N 31°21' E 121°27'61064.5
2016-Apr-26 02:32N 31°19' E 121°34'142782.5
2016-Apr-26 02:31N 31°30' E 121°23'6513.4
2016-Apr-26 02:30N 31°26' E 121°28'255707.8
2016-Apr-26 02:30N 31°00' E 121°26'911320.4
2016-Apr-26 02:26N 31°58' E 120°04'15565.0
2016-Apr-26 02:25N 31°60' E 120°21'4718741.9
2016-Apr-26 02:21N 24°25' E 118°04'3919255.0
2016-Apr-26 02:19N 29°50' E 122°07'62029367.8
2016-Apr-26 02:17N 22°54' E 113°34'65911984.6
2016-Apr-26 02:14N 32°03' E 120°25'46343.5
2016-Apr-26 02:06N 31°40' E 121°13'1018.5
2016-Apr-26 01:33N 31°32' E 121°19'131612.0
2016-Apr-26 01:33N 31°21' E 121°27'11897.8
2016-Apr-26 01:32N 31°31' E 121°22'2024045.0
2016-Apr-26 01:32N 31°17' E 121°05'2529625.0
2016-Apr-26 01:32N 31°00' E 121°26'20853.5
2016-Apr-26 01:31N 31°19' E 121°34'66420612.5
2016-Apr-26 01:29N 22°49' E 113°36'26325635.4
2016-Apr-26 01:28N 24°25' E 118°04'46157179.6
2016-Apr-26 01:28N 31°30' E 121°23'692533.6
2016-Apr-26 01:26N 31°57' E 120°09'64428638.9
2016-Apr-26 01:25N 23°02' E 113°24'6636167.5
2016-Apr-26 01:18N 31°28' E 121°25'475.4
2016-Apr-26 01:15N 31°26' E 121°28'65922577.7
2016-Apr-26 01:14N 23°03' E 113°30'6394167.1
2016-Apr-26 01:04N 31°58' E 120°04'68131.6
2016-Apr-26 00:33N 31°31' E 121°18'28551.3
2016-Apr-26 00:33N 31°32' E 121°20'22324.2
2016-Apr-26 00:33N 31°31' E 121°22'112030.8
2016-Apr-26 00:33N 31°21' E 121°27'7769569.6
2016-Apr-26 00:33N 31°57' E 120°06'465837620.2
2016-Apr-26 00:33N 24°25' E 118°04'46627966.8
2016-Apr-26 00:32N 31°57' E 120°13'844316.1
2016-Apr-26 00:31N 31°00' E 121°26'63914835.3
2016-Apr-26 00:28N 23°03' E 113°30'20634.5
2016-Apr-26 00:26N 22°45' E 113°39'66819075.6
2016-Apr-26 00:24N 31°26' E 121°29'30191.5
2016-Apr-26 00:15N 30°58' E 121°17'43233.0
2016-Apr-26 00:04N 31°40' E 121°13'55109.1
2016-Apr-25 23:34N 31°57' E 120°11'231336.2
2016-Apr-25 23:32N 32°00' E 120°38'475171139.7
2016-Apr-25 23:32N 24°25' E 118°04'461414907.0
2016-Apr-25 23:32N 31°31' E 121°22'72462.9
2016-Apr-25 23:32N 31°36' E 121°17'3713469.4
2016-Apr-25 23:32N 30°59' E 121°21'5238.3
2016-Apr-25 23:31N 31°00' E 121°26'471564600.0
2016-Apr-25 23:31N 38°51' E 121°33'41793903.6
2016-Apr-25 23:30N 31°58' E 120°18'64642278.9
2016-Apr-25 23:30N 23°03' E 113°30'65712718.1
2016-Apr-25 23:26N 31°21' E 121°33'1772871.7
2016-Apr-25 23:23N 31°25' E 118°05'1728968.6
2016-Apr-25 23:22N 31°21' E 121°27'520.7
2016-Apr-25 23:07N 31°26' E 121°29'813.6
2016-Apr-25 22:33N 31°31' E 121°22'313362.4
2016-Apr-25 22:33N 31°00' E 121°26'411860.1
2016-Apr-25 22:31N 31°39' E 121°13'575810364955.1
2016-Apr-25 22:31N 37°47' W 122°16'6488382894.2
2016-Apr-25 22:30N 23°03' E 113°30'26363158.9
2016-Apr-25 22:30N 24°25' E 118°04'432259244.3
2016-Apr-25 22:30N 30°59' E 121°23'47132006.0
2016-Apr-25 22:29N 38°50' E 121°34'44058665.4
2016-Apr-25 22:29N 31°30' E 121°23'71139.1
2016-Apr-25 22:28N 31°26' E 121°29'536.8
2016-Apr-25 22:20N 31°21' E 121°27'231250.7
2016-Apr-25 22:19N 31°40' E 121°13'29113.4
2016-Apr-25 22:04N 32°01' E 120°48'69136.5
2016-Apr-25 21:33N 31°00' E 121°26'470282045.7
2016-Apr-25 21:33N 38°50' E 121°34'44052744.5
2016-Apr-25 21:33N 31°31' E 121°22'461207456.0
2016-Apr-25 21:33N 24°25' E 118°04'46737337.3
2016-Apr-25 21:32N 31°40' E 121°13'231807.8
2016-Apr-25 21:31N 31°21' E 121°27'550.2
2016-Apr-25 21:25N 31°26' E 121°29'7164.9
2016-Apr-25 21:23N 31°30' E 121°23'7 7.9
2016-Apr-25 20:32N 31°26' E 121°29'81034.0
2016-Apr-25 20:32N 31°31' E 121°22'3122226.5
2016-Apr-25 20:32N 31°00' E 121°26'201054.0
2016-Apr-25 20:31N 31°19' E 121°34'45429208.6
2016-Apr-25 20:30N 24°25' E 118°04'4535666.7
2016-Apr-25 20:25N 31°21' E 121°27'66111722.6
2016-Apr-25 20:22N 22°52' E 113°33'752.9
2016-Apr-25 20:14N 22°57' E 113°37'259381.8
2016-Apr-25 19:33N 24°25' E 118°04'45358285.6
2016-Apr-25 19:33N 31°21' E 121°27'112787.0
2016-Apr-25 19:33N 31°31' E 121°22'312782.1
2016-Apr-25 19:32N 31°00' E 121°26'20109.7
2016-Apr-25 19:21N 31°19' E 121°34'362201.9
2016-Apr-25 19:20N 31°46' E 121°04'9156.0
2016-Apr-25 19:17N 31°40' E 121°13'352349.5
2016-Apr-25 19:16N 32°00' E 120°40'542049.0
2016-Apr-25 19:14N 31°26' E 121°29'645.0
2016-Apr-25 19:06N 31°21' E 121°33'021.6
2016-Apr-25 19:06N 31°21' E 121°33'65876359.2
2016-Apr-25 19:05N 22°57' E 113°37'6611219.5
2016-Apr-25 18:33N 31°41' E 121°11'306308.3
2016-Apr-25 18:33N 31°21' E 121°38'4549.6
2016-Apr-25 18:32N 31°21' E 121°33'2631120.4
2016-Apr-25 18:32N 31°40' E 121°13'46734288.9
2016-Apr-25 18:31N 24°25' E 118°04'45342947.3
2016-Apr-25 18:31N 31°21' E 121°27'61596.7
2016-Apr-25 18:30N 31°19' E 121°34'65716779.3
2016-Apr-25 18:28N 22°57' E 113°37'6391895.0
2016-Apr-25 18:08N 31°00' E 121°26'0 0.0
2016-Apr-25 17:33N 31°00' E 121°26'318560.2
2016-Apr-25 17:33N 31°31' E 121°22'113828.3
2016-Apr-25 17:33N 31°24' E 121°31'45712281.1
2016-Apr-25 17:31N 24°25' E 118°04'259186761.6
2016-Apr-25 17:31N 22°57' E 113°37'660475482.4
2016-Apr-25 17:31N 31°38' E 121°14'201922.1
2016-Apr-25 17:30N 31°21' E 121°27'656.5
2016-Apr-25 17:23N 31°19' E 121°34'271095.8
2016-Apr-25 17:22N 31°40' E 121°13'262277.9
2016-Apr-25 17:21N 31°21' E 121°33'31192.6
2016-Apr-25 17:12N 31°02' E 121°04'361105.0
2016-Apr-25 17:10N 31°35' E 121°18'41603.3
2016-Apr-25 17:06N 32°00' E 120°40'3562.9
2016-Apr-25 16:33N 31°40' E 121°13'46780005.6
2016-Apr-25 16:32N 24°25' E 118°04'453116569.9
2016-Apr-25 16:32N 31°21' E 121°27'654112180.6
2016-Apr-25 16:32N 22°57' E 113°37'657124519.3
2016-Apr-25 16:31N 31°19' E 121°34'203411.9
2016-Apr-25 16:31N 31°00' E 121°26'315563.1
2016-Apr-25 16:31N 31°31' E 121°22'10404.1
2016-Apr-25 16:29N 31°38' E 121°14'34132.0
2016-Apr-25 16:14N 32°01' E 120°45'4460.2
2016-Apr-25 15:30N 31°31' E 121°22'152607.8
2016-Apr-25 15:30N 31°19' E 121°34'454327136.4
2016-Apr-25 15:30N 24°25' E 118°04'46131298.6
2016-Apr-25 15:29N 31°30' E 121°23'1017809.4
2016-Apr-25 15:29N 31°21' E 121°27'219253.0
2016-Apr-25 15:29N 31°00' E 121°26'396724.3
2016-Apr-25 15:28N 31°38' E 121°14'2313.1
2016-Apr-25 15:28N 31°40' E 121°13'11324032.7
2016-Apr-25 15:28N 29°55' E 122°03'617221998.0
2016-Apr-25 15:28N 23°03' E 113°30'66123111.5
2016-Apr-25 15:26N 32°01' E 120°45'66385235.4
2016-Apr-25 15:25N 22°57' E 113°37'8189.3
2016-Apr-25 15:23N 22°54' E 113°30'6665352.3
2016-Apr-25 15:15N 31°30' E 121°23'2 2.6
2016-Apr-25 14:33N 31°31' E 121°22'126258.0
2016-Apr-25 14:33N 31°40' E 121°13'4149168.1
2016-Apr-25 14:33N 31°02' E 121°29'21484.8
2016-Apr-25 14:33N 31°00' E 121°26'43517578.8
2016-Apr-25 14:32N 24°25' E 118°04'26312632.3
2016-Apr-25 14:30N 23°03' E 113°30'65894752.9
2016-Apr-25 14:30N 31°26' E 121°29'664597259.9
2016-Apr-25 14:30N 23°02' E 113°22'65918535.0
2016-Apr-25 14:28N 31°21' E 121°27'20237.2
2016-Apr-25 14:23N 31°38' E 121°14'20110.5
2016-Apr-25 14:12N 31°19' E 121°13'1522.8
2016-Apr-25 13:33N 31°31' E 121°22'65823700.2
2016-Apr-25 13:32N 23°03' E 113°30'4483.7
2016-Apr-25 13:31N 23°05' E 113°26'643462695.3
2016-Apr-25 13:31N 31°17' E 121°11'2125397.7
2016-Apr-25 13:31N 31°00' E 121°26'211233.7
2016-Apr-25 13:30N 31°21' E 121°27'23320.0
2016-Apr-25 13:26N 31°40' E 121°13'26746.5
2016-Apr-25 13:24N 31°21' E 121°33'24481.3
2016-Apr-25 13:21N 31°39' E 121°13'18751.7
2016-Apr-25 13:19N 31°26' E 121°29'303876.2
2016-Apr-25 13:19N 30°58' E 121°15'89767.4
2016-Apr-25 13:12N 29°41' E 122°07'89742.9
2016-Apr-25 13:05N 30°57' E 121°17'505974.7
2016-Apr-25 12:34N 22°36' E 120°12'539646279.1
2016-Apr-25 12:33N 31°31' E 121°22'191617.6
2016-Apr-25 12:33N 31°17' E 121°08'212322.0
2016-Apr-25 12:32N 30°58' E 121°19'24766.4
2016-Apr-25 12:30N 31°21' E 121°27'6411.3
2016-Apr-25 12:30N 31°19' E 121°33'65649225.0
2016-Apr-25 12:29N 23°04' E 113°29'63811666.8
2016-Apr-25 12:25N 31°00' E 121°26'25191.5
2016-Apr-25 12:17N 31°26' E 121°29'2432.4
2016-Apr-25 11:32N 31°17' E 121°02'223214.4
2016-Apr-25 11:32N 31°31' E 121°22'112269.7
2016-Apr-25 11:32N 31°21' E 121°27'226548.1
2016-Apr-25 11:31N 30°59' E 121°23'4018087.7
2016-Apr-25 11:31N 31°39' E 121°13'409565.7
2016-Apr-25 11:31N 31°00' E 121°26'6478382.4
2016-Apr-25 11:26N 22°55' E 113°27'67037662.9
2016-Apr-25 11:25N 31°40' E 121°13'13470.4
2016-Apr-25 11:24N 31°30' E 121°23'1151155.0
2016-Apr-25 11:18N 29°42' E 122°05'85115.5
2016-Apr-25 10:33N 31°00' E 121°26'315282.8
2016-Apr-25 10:33N 31°31' E 121°22'112414.6
2016-Apr-25 10:33N 31°39' E 121°13'12311074.9
2016-Apr-25 10:32N 29°43' E 122°02'123147569.5
2016-Apr-25 10:32N 31°39' E 121°13'67787096.7
2016-Apr-25 10:32N 22°19' E 114°06'67086150.0
2016-Apr-25 10:31N 31°21' E 121°27'61490.6
2016-Apr-25 10:31N 31°19' E 121°34'8653.9
2016-Apr-25 10:30N 31°26' E 121°29'768.4
2016-Apr-25 10:24N 31°30' E 121°23'30800.8
2016-Apr-25 10:22N 31°01' E 121°29'64856859.0
2016-Apr-25 10:21N 22°54' E 113°31'66021794.3
2016-Apr-25 10:20N 32°01' E 120°26'771613.7
2016-Apr-25 10:17N 30°58' E 121°16'6654460.3
2016-Apr-25 10:08N 22°12' E 113°40'6731178.4
2016-Apr-25 09:33N 31°00' E 121°26'  

Dump ship's entire track history